<?xml version="1.0" encoding="UTF-8" standalone="no" ?>
<gpx xmlns="http://www.topografix.com/GPX/1/1" xmlns:xsi="http://www.w3.org/2001/XMLSchema-instance" xsi:schemaLocation="http://www.topografix.com/GPX/1/1 http://www.topografix.com/GPX/1/1/gpx.xsd" version="1.1" creator="VisuGPX - https://www.visugpx.com">
  <metadata>
    <name>1/12 - Conques / Livignac - 2018-04-16</name>
    <desc><![CDATA[File with points/tracks from Locus Map/3.30.4]]></desc>
  </metadata>
  <trk>
    <name><![CDATA[2018-04-16 08:18:53]]></name>
    <trkseg>
      <trkpt lat="44.59941" lon="2.39804">
        <ele>333.65</ele>
        <time>2018-04-16T06:22:11.000Z</time>
      </trkpt>
      <trkpt lat="44.59948" lon="2.39765">
        <ele>333.46</ele>
        <time>2018-04-16T06:22:21.000Z</time>
      </trkpt>
      <trkpt lat="44.5993" lon="2.39754">
        <ele>333.22</ele>
        <time>2018-04-16T06:22:31.000Z</time>
      </trkpt>
      <trkpt lat="44.59922" lon="2.39744">
        <ele>333.46</ele>
        <time>2018-04-16T06:22:41.000Z</time>
      </trkpt>
      <trkpt lat="44.59917" lon="2.39732">
        <ele>333.96</ele>
        <time>2018-04-16T06:22:51.000Z</time>
      </trkpt>
      <trkpt lat="44.59919" lon="2.39723">
        <ele>333.54</ele>
        <time>2018-04-16T06:23:01.000Z</time>
      </trkpt>
      <trkpt lat="44.59913" lon="2.39718">
        <ele>331.67</ele>
        <time>2018-04-16T06:23:11.000Z</time>
      </trkpt>
      <trkpt lat="44.59902" lon="2.39718">
        <ele>331.19</ele>
        <time>2018-04-16T06:23:21.000Z</time>
      </trkpt>
      <trkpt lat="44.59897" lon="2.39721">
        <ele>331.61</ele>
        <time>2018-04-16T06:23:31.000Z</time>
      </trkpt>
      <trkpt lat="44.59897" lon="2.3972">
        <ele>331.41</ele>
        <time>2018-04-16T06:23:41.000Z</time>
      </trkpt>
      <trkpt lat="44.59898" lon="2.39718">
        <ele>331.64</ele>
        <time>2018-04-16T06:23:53.000Z</time>
      </trkpt>
      <trkpt lat="44.59904" lon="2.3971">
        <ele>330.3</ele>
        <time>2018-04-16T06:24:03.000Z</time>
      </trkpt>
      <trkpt lat="44.59898" lon="2.39699">
        <ele>328.9</ele>
        <time>2018-04-16T06:24:13.000Z</time>
      </trkpt>
      <trkpt lat="44.59899" lon="2.39686">
        <ele>327.28</ele>
        <time>2018-04-16T06:24:23.000Z</time>
      </trkpt>
      <trkpt lat="44.59893" lon="2.39669">
        <ele>325.85</ele>
        <time>2018-04-16T06:24:33.000Z</time>
      </trkpt>
      <trkpt lat="44.59887" lon="2.39661">
        <ele>325.05</ele>
        <time>2018-04-16T06:24:43.000Z</time>
      </trkpt>
      <trkpt lat="44.59884" lon="2.39645">
        <ele>323.44</ele>
        <time>2018-04-16T06:24:53.000Z</time>
      </trkpt>
      <trkpt lat="44.59886" lon="2.3963">
        <ele>322.34</ele>
        <time>2018-04-16T06:25:03.000Z</time>
      </trkpt>
      <trkpt lat="44.59886" lon="2.3961">
        <ele>321.43</ele>
        <time>2018-04-16T06:25:13.000Z</time>
      </trkpt>
      <trkpt lat="44.59885" lon="2.39594">
        <ele>320.5</ele>
        <time>2018-04-16T06:25:23.000Z</time>
      </trkpt>
      <trkpt lat="44.59888" lon="2.39576">
        <ele>318.89</ele>
        <time>2018-04-16T06:25:33.000Z</time>
      </trkpt>
      <trkpt lat="44.59884" lon="2.39565">
        <ele>317.06</ele>
        <time>2018-04-16T06:25:43.000Z</time>
      </trkpt>
      <trkpt lat="44.59877" lon="2.39555">
        <ele>315.14</ele>
        <time>2018-04-16T06:25:53.000Z</time>
      </trkpt>
      <trkpt lat="44.59867" lon="2.39547">
        <ele>313.99</ele>
        <time>2018-04-16T06:26:03.000Z</time>
      </trkpt>
      <trkpt lat="44.59858" lon="2.39541">
        <ele>312.72</ele>
        <time>2018-04-16T06:26:13.000Z</time>
      </trkpt>
      <trkpt lat="44.59854" lon="2.3953">
        <ele>311.01</ele>
        <time>2018-04-16T06:26:23.000Z</time>
      </trkpt>
      <trkpt lat="44.59844" lon="2.39512">
        <ele>309.9</ele>
        <time>2018-04-16T06:26:33.000Z</time>
      </trkpt>
      <trkpt lat="44.59841" lon="2.39494">
        <ele>307.99</ele>
        <time>2018-04-16T06:26:43.000Z</time>
      </trkpt>
      <trkpt lat="44.59834" lon="2.39486">
        <ele>306.08</ele>
        <time>2018-04-16T06:26:53.000Z</time>
      </trkpt>
      <trkpt lat="44.59827" lon="2.3948">
        <ele>304.19</ele>
        <time>2018-04-16T06:27:03.000Z</time>
      </trkpt>
      <trkpt lat="44.59818" lon="2.39475">
        <ele>302.47</ele>
        <time>2018-04-16T06:27:13.000Z</time>
      </trkpt>
      <trkpt lat="44.59824" lon="2.39461">
        <ele>300.64</ele>
        <time>2018-04-16T06:27:23.000Z</time>
      </trkpt>
      <trkpt lat="44.59822" lon="2.39454">
        <ele>298.92</ele>
        <time>2018-04-16T06:27:33.000Z</time>
      </trkpt>
      <trkpt lat="44.59818" lon="2.3945">
        <ele>298.32</ele>
        <time>2018-04-16T06:27:43.000Z</time>
      </trkpt>
      <trkpt lat="44.59817" lon="2.39448">
        <ele>298.39</ele>
        <time>2018-04-16T06:27:53.000Z</time>
      </trkpt>
      <trkpt lat="44.59817" lon="2.39447">
        <ele>298.62</ele>
        <time>2018-04-16T06:28:14.000Z</time>
      </trkpt>
      <trkpt lat="44.59815" lon="2.39438">
        <ele>296.98</ele>
        <time>2018-04-16T06:28:24.000Z</time>
      </trkpt>
      <trkpt lat="44.59814" lon="2.39424">
        <ele>294.34</ele>
        <time>2018-04-16T06:28:34.000Z</time>
      </trkpt>
      <trkpt lat="44.59812" lon="2.39415">
        <ele>292.24</ele>
        <time>2018-04-16T06:28:44.000Z</time>
      </trkpt>
      <trkpt lat="44.5981" lon="2.39407">
        <ele>290.36</ele>
        <time>2018-04-16T06:28:54.000Z</time>
      </trkpt>
      <trkpt lat="44.59812" lon="2.39396">
        <ele>288.29</ele>
        <time>2018-04-16T06:29:04.000Z</time>
      </trkpt>
      <trkpt lat="44.59815" lon="2.39385">
        <ele>286.47</ele>
        <time>2018-04-16T06:29:14.000Z</time>
      </trkpt>
      <trkpt lat="44.59817" lon="2.39371">
        <ele>284.77</ele>
        <time>2018-04-16T06:29:24.000Z</time>
      </trkpt>
      <trkpt lat="44.59817" lon="2.39363">
        <ele>282</ele>
        <time>2018-04-16T06:29:34.000Z</time>
      </trkpt>
      <trkpt lat="44.59817" lon="2.39352">
        <ele>279.53</ele>
        <time>2018-04-16T06:29:44.000Z</time>
      </trkpt>
      <trkpt lat="44.59816" lon="2.39341">
        <ele>277.59</ele>
        <time>2018-04-16T06:29:54.000Z</time>
      </trkpt>
      <trkpt lat="44.5981" lon="2.39334">
        <ele>275.96</ele>
        <time>2018-04-16T06:30:04.000Z</time>
      </trkpt>
      <trkpt lat="44.59806" lon="2.39326">
        <ele>273.85</ele>
        <time>2018-04-16T06:30:14.000Z</time>
      </trkpt>
      <trkpt lat="44.59807" lon="2.39316">
        <ele>272.01</ele>
        <time>2018-04-16T06:30:24.000Z</time>
      </trkpt>
      <trkpt lat="44.59807" lon="2.39306">
        <ele>270.22</ele>
        <time>2018-04-16T06:30:34.000Z</time>
      </trkpt>
      <trkpt lat="44.5981" lon="2.39299">
        <ele>269.49</ele>
        <time>2018-04-16T06:30:44.000Z</time>
      </trkpt>
      <trkpt lat="44.59814" lon="2.39285">
        <ele>268.45</ele>
        <time>2018-04-16T06:30:54.000Z</time>
      </trkpt>
      <trkpt lat="44.59817" lon="2.39269">
        <ele>268.76</ele>
        <time>2018-04-16T06:31:04.000Z</time>
      </trkpt>
      <trkpt lat="44.59816" lon="2.39253">
        <ele>267.75</ele>
        <time>2018-04-16T06:31:14.000Z</time>
      </trkpt>
      <trkpt lat="44.59816" lon="2.39234">
        <ele>266.14</ele>
        <time>2018-04-16T06:31:24.000Z</time>
      </trkpt>
      <trkpt lat="44.59813" lon="2.39227">
        <ele>265.25</ele>
        <time>2018-04-16T06:31:34.000Z</time>
      </trkpt>
      <trkpt lat="44.59812" lon="2.39226">
        <ele>263.33</ele>
        <time>2018-04-16T06:31:45.000Z</time>
      </trkpt>
      <trkpt lat="44.59804" lon="2.39224">
        <ele>263.15</ele>
        <time>2018-04-16T06:31:55.000Z</time>
      </trkpt>
      <trkpt lat="44.598" lon="2.39227">
        <ele>263.26</ele>
        <time>2018-04-16T06:32:05.000Z</time>
      </trkpt>
      <trkpt lat="44.59805" lon="2.39231">
        <ele>264.89</ele>
        <time>2018-04-16T06:32:15.000Z</time>
      </trkpt>
      <trkpt lat="44.59813" lon="2.3923">
        <ele>266.8</ele>
        <time>2018-04-16T06:32:25.000Z</time>
      </trkpt>
      <trkpt lat="44.59818" lon="2.39218">
        <ele>267.08</ele>
        <time>2018-04-16T06:32:35.000Z</time>
      </trkpt>
      <trkpt lat="44.59815" lon="2.39214">
        <ele>267.28</ele>
        <time>2018-04-16T06:32:45.000Z</time>
      </trkpt>
      <trkpt lat="44.59817" lon="2.39215">
        <ele>267.22</ele>
        <time>2018-04-16T06:32:55.000Z</time>
      </trkpt>
      <trkpt lat="44.59819" lon="2.39217">
        <ele>266.91</ele>
        <time>2018-04-16T06:33:05.000Z</time>
      </trkpt>
      <trkpt lat="44.5982" lon="2.39216">
        <ele>266.81</ele>
        <time>2018-04-16T06:33:15.000Z</time>
      </trkpt>
      <trkpt lat="44.59821" lon="2.39215">
        <ele>266.97</ele>
        <time>2018-04-16T06:33:25.000Z</time>
      </trkpt>
      <trkpt lat="44.59822" lon="2.39215">
        <ele>267.29</ele>
        <time>2018-04-16T06:33:38.000Z</time>
      </trkpt>
      <trkpt lat="44.5982" lon="2.39218">
        <ele>267.09</ele>
        <time>2018-04-16T06:33:48.000Z</time>
      </trkpt>
      <trkpt lat="44.5982" lon="2.39219">
        <ele>267.31</ele>
        <time>2018-04-16T06:33:58.000Z</time>
      </trkpt>
      <trkpt lat="44.5982" lon="2.39217">
        <ele>267.16</ele>
        <time>2018-04-16T06:34:23.000Z</time>
      </trkpt>
      <trkpt lat="44.5982" lon="2.39215">
        <ele>267.56</ele>
        <time>2018-04-16T06:34:33.000Z</time>
      </trkpt>
      <trkpt lat="44.59819" lon="2.39214">
        <ele>267.92</ele>
        <time>2018-04-16T06:34:43.000Z</time>
      </trkpt>
      <trkpt lat="44.59818" lon="2.39213">
        <ele>267.44</ele>
        <time>2018-04-16T06:34:53.000Z</time>
      </trkpt>
      <trkpt lat="44.59817" lon="2.3921">
        <ele>267.02</ele>
        <time>2018-04-16T06:35:03.000Z</time>
      </trkpt>
      <trkpt lat="44.59818" lon="2.39212">
        <ele>267.02</ele>
        <time>2018-04-16T06:35:13.000Z</time>
      </trkpt>
      <trkpt lat="44.59819" lon="2.39211">
        <ele>267.53</ele>
        <time>2018-04-16T06:35:23.000Z</time>
      </trkpt>
      <trkpt lat="44.59818" lon="2.39198">
        <ele>267.91</ele>
        <time>2018-04-16T06:35:33.000Z</time>
      </trkpt>
      <trkpt lat="44.59816" lon="2.39186">
        <ele>268.69</ele>
        <time>2018-04-16T06:35:43.000Z</time>
      </trkpt>
      <trkpt lat="44.59811" lon="2.39175">
        <ele>270</ele>
        <time>2018-04-16T06:35:53.000Z</time>
      </trkpt>
      <trkpt lat="44.59808" lon="2.39163">
        <ele>270.37</ele>
        <time>2018-04-16T06:36:03.000Z</time>
      </trkpt>
      <trkpt lat="44.59806" lon="2.39149">
        <ele>271.77</ele>
        <time>2018-04-16T06:36:13.000Z</time>
      </trkpt>
      <trkpt lat="44.598" lon="2.39138">
        <ele>272.26</ele>
        <time>2018-04-16T06:36:23.000Z</time>
      </trkpt>
      <trkpt lat="44.59793" lon="2.3913">
        <ele>273.19</ele>
        <time>2018-04-16T06:36:33.000Z</time>
      </trkpt>
      <trkpt lat="44.59783" lon="2.39123">
        <ele>274.43</ele>
        <time>2018-04-16T06:36:43.000Z</time>
      </trkpt>
      <trkpt lat="44.59774" lon="2.39115">
        <ele>275.5</ele>
        <time>2018-04-16T06:36:53.000Z</time>
      </trkpt>
      <trkpt lat="44.59767" lon="2.39107">
        <ele>276.28</ele>
        <time>2018-04-16T06:37:03.000Z</time>
      </trkpt>
      <trkpt lat="44.59765" lon="2.39101">
        <ele>276.54</ele>
        <time>2018-04-16T06:37:13.000Z</time>
      </trkpt>
      <trkpt lat="44.59765" lon="2.39099">
        <ele>277.91</ele>
        <time>2018-04-16T06:37:23.000Z</time>
      </trkpt>
      <trkpt lat="44.59766" lon="2.39095">
        <ele>279.52</ele>
        <time>2018-04-16T06:37:33.000Z</time>
      </trkpt>
      <trkpt lat="44.59762" lon="2.39091">
        <ele>280.68</ele>
        <time>2018-04-16T06:37:43.000Z</time>
      </trkpt>
      <trkpt lat="44.59756" lon="2.39089">
        <ele>281.6</ele>
        <time>2018-04-16T06:37:53.000Z</time>
      </trkpt>
      <trkpt lat="44.59751" lon="2.39085">
        <ele>282.92</ele>
        <time>2018-04-16T06:38:03.000Z</time>
      </trkpt>
      <trkpt lat="44.59748" lon="2.39077">
        <ele>284.65</ele>
        <time>2018-04-16T06:38:13.000Z</time>
      </trkpt>
      <trkpt lat="44.59742" lon="2.39075">
        <ele>286.18</ele>
        <time>2018-04-16T06:38:23.000Z</time>
      </trkpt>
      <trkpt lat="44.59737" lon="2.39074">
        <ele>287.95</ele>
        <time>2018-04-16T06:38:33.000Z</time>
      </trkpt>
      <trkpt lat="44.59732" lon="2.39069">
        <ele>288.91</ele>
        <time>2018-04-16T06:38:43.000Z</time>
      </trkpt>
      <trkpt lat="44.59724" lon="2.39073">
        <ele>290.79</ele>
        <time>2018-04-16T06:38:53.000Z</time>
      </trkpt>
      <trkpt lat="44.59724" lon="2.39074">
        <ele>292.19</ele>
        <time>2018-04-16T06:39:03.000Z</time>
      </trkpt>
      <trkpt lat="44.59724" lon="2.39073">
        <ele>293.7</ele>
        <time>2018-04-16T06:39:13.000Z</time>
      </trkpt>
      <trkpt lat="44.59719" lon="2.39072">
        <ele>294.95</ele>
        <time>2018-04-16T06:39:23.000Z</time>
      </trkpt>
      <trkpt lat="44.5971" lon="2.39072">
        <ele>296.14</ele>
        <time>2018-04-16T06:39:33.000Z</time>
      </trkpt>
      <trkpt lat="44.59708" lon="2.39068">
        <ele>297.45</ele>
        <time>2018-04-16T06:39:43.000Z</time>
      </trkpt>
      <trkpt lat="44.59705" lon="2.39061">
        <ele>299.34</ele>
        <time>2018-04-16T06:39:53.000Z</time>
      </trkpt>
      <trkpt lat="44.59703" lon="2.39057">
        <ele>301.01</ele>
        <time>2018-04-16T06:40:03.000Z</time>
      </trkpt>
      <trkpt lat="44.59702" lon="2.39055">
        <ele>302.94</ele>
        <time>2018-04-16T06:40:13.000Z</time>
      </trkpt>
      <trkpt lat="44.59698" lon="2.3905">
        <ele>303.84</ele>
        <time>2018-04-16T06:40:23.000Z</time>
      </trkpt>
      <trkpt lat="44.59696" lon="2.39046">
        <ele>305.33</ele>
        <time>2018-04-16T06:40:33.000Z</time>
      </trkpt>
      <trkpt lat="44.59701" lon="2.39043">
        <ele>306.58</ele>
        <time>2018-04-16T06:40:43.000Z</time>
      </trkpt>
      <trkpt lat="44.59702" lon="2.39039">
        <ele>306.75</ele>
        <time>2018-04-16T06:40:53.000Z</time>
      </trkpt>
      <trkpt lat="44.59697" lon="2.39038">
        <ele>306.95</ele>
        <time>2018-04-16T06:41:03.000Z</time>
      </trkpt>
      <trkpt lat="44.59694" lon="2.39032">
        <ele>308.43</ele>
        <time>2018-04-16T06:41:13.000Z</time>
      </trkpt>
      <trkpt lat="44.59688" lon="2.39032">
        <ele>309.86</ele>
        <time>2018-04-16T06:41:23.000Z</time>
      </trkpt>
      <trkpt lat="44.59682" lon="2.39031">
        <ele>311.53</ele>
        <time>2018-04-16T06:41:33.000Z</time>
      </trkpt>
      <trkpt lat="44.59681" lon="2.39029">
        <ele>313.09</ele>
        <time>2018-04-16T06:41:43.000Z</time>
      </trkpt>
      <trkpt lat="44.59676" lon="2.39031">
        <ele>314.26</ele>
        <time>2018-04-16T06:41:53.000Z</time>
      </trkpt>
      <trkpt lat="44.59674" lon="2.39039">
        <ele>315.3</ele>
        <time>2018-04-16T06:42:04.000Z</time>
      </trkpt>
      <trkpt lat="44.59675" lon="2.39041">
        <ele>316.92</ele>
        <time>2018-04-16T06:42:15.000Z</time>
      </trkpt>
      <trkpt lat="44.59672" lon="2.3904">
        <ele>318.68</ele>
        <time>2018-04-16T06:42:25.000Z</time>
      </trkpt>
      <trkpt lat="44.59675" lon="2.39031">
        <ele>319.71</ele>
        <time>2018-04-16T06:42:35.000Z</time>
      </trkpt>
      <trkpt lat="44.59672" lon="2.39028">
        <ele>321.05</ele>
        <time>2018-04-16T06:42:45.000Z</time>
      </trkpt>
      <trkpt lat="44.59675" lon="2.39023">
        <ele>322.16</ele>
        <time>2018-04-16T06:42:55.000Z</time>
      </trkpt>
      <trkpt lat="44.59677" lon="2.3902">
        <ele>324.01</ele>
        <time>2018-04-16T06:43:05.000Z</time>
      </trkpt>
      <trkpt lat="44.59676" lon="2.39017">
        <ele>324.9</ele>
        <time>2018-04-16T06:43:15.000Z</time>
      </trkpt>
      <trkpt lat="44.59673" lon="2.39011">
        <ele>326.33</ele>
        <time>2018-04-16T06:43:25.000Z</time>
      </trkpt>
      <trkpt lat="44.5967" lon="2.39003">
        <ele>328.08</ele>
        <time>2018-04-16T06:43:35.000Z</time>
      </trkpt>
      <trkpt lat="44.59667" lon="2.38997">
        <ele>329.57</ele>
        <time>2018-04-16T06:43:45.000Z</time>
      </trkpt>
      <trkpt lat="44.59666" lon="2.38992">
        <ele>331.16</ele>
        <time>2018-04-16T06:43:55.000Z</time>
      </trkpt>
      <trkpt lat="44.59663" lon="2.38986">
        <ele>333.19</ele>
        <time>2018-04-16T06:44:05.000Z</time>
      </trkpt>
      <trkpt lat="44.5966" lon="2.38982">
        <ele>334.96</ele>
        <time>2018-04-16T06:44:15.000Z</time>
      </trkpt>
      <trkpt lat="44.59657" lon="2.38978">
        <ele>336.74</ele>
        <time>2018-04-16T06:44:25.000Z</time>
      </trkpt>
      <trkpt lat="44.59651" lon="2.38975">
        <ele>337.72</ele>
        <time>2018-04-16T06:44:35.000Z</time>
      </trkpt>
      <trkpt lat="44.5965" lon="2.38973">
        <ele>339.04</ele>
        <time>2018-04-16T06:44:45.000Z</time>
      </trkpt>
      <trkpt lat="44.5965" lon="2.38968">
        <ele>340.68</ele>
        <time>2018-04-16T06:44:55.000Z</time>
      </trkpt>
      <trkpt lat="44.59651" lon="2.38962">
        <ele>341.93</ele>
        <time>2018-04-16T06:45:05.000Z</time>
      </trkpt>
      <trkpt lat="44.5965" lon="2.38961">
        <ele>343.11</ele>
        <time>2018-04-16T06:45:15.000Z</time>
      </trkpt>
      <trkpt lat="44.59648" lon="2.38957">
        <ele>344.56</ele>
        <time>2018-04-16T06:45:25.000Z</time>
      </trkpt>
      <trkpt lat="44.59651" lon="2.38956">
        <ele>345.79</ele>
        <time>2018-04-16T06:45:35.000Z</time>
      </trkpt>
      <trkpt lat="44.59655" lon="2.38954">
        <ele>347.13</ele>
        <time>2018-04-16T06:45:45.000Z</time>
      </trkpt>
      <trkpt lat="44.59658" lon="2.3895">
        <ele>348.53</ele>
        <time>2018-04-16T06:45:55.000Z</time>
      </trkpt>
      <trkpt lat="44.59658" lon="2.38943">
        <ele>350.34</ele>
        <time>2018-04-16T06:46:05.000Z</time>
      </trkpt>
      <trkpt lat="44.59657" lon="2.38939">
        <ele>351.66</ele>
        <time>2018-04-16T06:46:15.000Z</time>
      </trkpt>
      <trkpt lat="44.59656" lon="2.38932">
        <ele>352.76</ele>
        <time>2018-04-16T06:46:25.000Z</time>
      </trkpt>
      <trkpt lat="44.59653" lon="2.38926">
        <ele>354.29</ele>
        <time>2018-04-16T06:46:35.000Z</time>
      </trkpt>
      <trkpt lat="44.59656" lon="2.38918">
        <ele>354.84</ele>
        <time>2018-04-16T06:46:45.000Z</time>
      </trkpt>
      <trkpt lat="44.59653" lon="2.3891">
        <ele>356.14</ele>
        <time>2018-04-16T06:46:55.000Z</time>
      </trkpt>
      <trkpt lat="44.59654" lon="2.38901">
        <ele>357.69</ele>
        <time>2018-04-16T06:47:05.000Z</time>
      </trkpt>
      <trkpt lat="44.59654" lon="2.38896">
        <ele>358.9</ele>
        <time>2018-04-16T06:47:15.000Z</time>
      </trkpt>
      <trkpt lat="44.59657" lon="2.38889">
        <ele>359.93</ele>
        <time>2018-04-16T06:47:25.000Z</time>
      </trkpt>
      <trkpt lat="44.59658" lon="2.38876">
        <ele>360.69</ele>
        <time>2018-04-16T06:47:35.000Z</time>
      </trkpt>
      <trkpt lat="44.59655" lon="2.38869">
        <ele>362.49</ele>
        <time>2018-04-16T06:47:45.000Z</time>
      </trkpt>
      <trkpt lat="44.59647" lon="2.38861">
        <ele>363.31</ele>
        <time>2018-04-16T06:47:55.000Z</time>
      </trkpt>
      <trkpt lat="44.59644" lon="2.38857">
        <ele>365.13</ele>
        <time>2018-04-16T06:48:05.000Z</time>
      </trkpt>
      <trkpt lat="44.59641" lon="2.38853">
        <ele>366.65</ele>
        <time>2018-04-16T06:48:15.000Z</time>
      </trkpt>
      <trkpt lat="44.5964" lon="2.3885">
        <ele>368.24</ele>
        <time>2018-04-16T06:48:25.000Z</time>
      </trkpt>
      <trkpt lat="44.59638" lon="2.38845">
        <ele>369.81</ele>
        <time>2018-04-16T06:48:35.000Z</time>
      </trkpt>
      <trkpt lat="44.59638" lon="2.38839">
        <ele>370.83</ele>
        <time>2018-04-16T06:48:45.000Z</time>
      </trkpt>
      <trkpt lat="44.59636" lon="2.38834">
        <ele>372.39</ele>
        <time>2018-04-16T06:48:55.000Z</time>
      </trkpt>
      <trkpt lat="44.59636" lon="2.38825">
        <ele>373.88</ele>
        <time>2018-04-16T06:49:05.000Z</time>
      </trkpt>
      <trkpt lat="44.59636" lon="2.3882">
        <ele>375.82</ele>
        <time>2018-04-16T06:49:15.000Z</time>
      </trkpt>
      <trkpt lat="44.59633" lon="2.38813">
        <ele>377.08</ele>
        <time>2018-04-16T06:49:25.000Z</time>
      </trkpt>
      <trkpt lat="44.59633" lon="2.38808">
        <ele>378.29</ele>
        <time>2018-04-16T06:49:35.000Z</time>
      </trkpt>
      <trkpt lat="44.5963" lon="2.388">
        <ele>379.64</ele>
        <time>2018-04-16T06:49:45.000Z</time>
      </trkpt>
      <trkpt lat="44.59628" lon="2.38794">
        <ele>381.6</ele>
        <time>2018-04-16T06:49:55.000Z</time>
      </trkpt>
      <trkpt lat="44.59625" lon="2.38787">
        <ele>382.75</ele>
        <time>2018-04-16T06:50:05.000Z</time>
      </trkpt>
      <trkpt lat="44.59623" lon="2.38782">
        <ele>384.15</ele>
        <time>2018-04-16T06:50:15.000Z</time>
      </trkpt>
      <trkpt lat="44.59618" lon="2.38778">
        <ele>385.22</ele>
        <time>2018-04-16T06:50:25.000Z</time>
      </trkpt>
      <trkpt lat="44.59618" lon="2.38771">
        <ele>386.33</ele>
        <time>2018-04-16T06:50:35.000Z</time>
      </trkpt>
      <trkpt lat="44.59622" lon="2.38765">
        <ele>387.03</ele>
        <time>2018-04-16T06:50:45.000Z</time>
      </trkpt>
      <trkpt lat="44.59625" lon="2.38756">
        <ele>388.07</ele>
        <time>2018-04-16T06:50:55.000Z</time>
      </trkpt>
      <trkpt lat="44.59625" lon="2.38753">
        <ele>389.26</ele>
        <time>2018-04-16T06:51:05.000Z</time>
      </trkpt>
      <trkpt lat="44.5963" lon="2.38742">
        <ele>390.19</ele>
        <time>2018-04-16T06:51:15.000Z</time>
      </trkpt>
      <trkpt lat="44.59634" lon="2.38735">
        <ele>391.57</ele>
        <time>2018-04-16T06:51:25.000Z</time>
      </trkpt>
      <trkpt lat="44.59625" lon="2.38734">
        <ele>392.79</ele>
        <time>2018-04-16T06:51:35.000Z</time>
      </trkpt>
      <trkpt lat="44.59616" lon="2.38735">
        <ele>394.14</ele>
        <time>2018-04-16T06:51:45.000Z</time>
      </trkpt>
      <trkpt lat="44.59612" lon="2.38739">
        <ele>395.87</ele>
        <time>2018-04-16T06:51:55.000Z</time>
      </trkpt>
      <trkpt lat="44.59612" lon="2.38737">
        <ele>397.53</ele>
        <time>2018-04-16T06:52:05.000Z</time>
      </trkpt>
      <trkpt lat="44.59615" lon="2.38734">
        <ele>398.94</ele>
        <time>2018-04-16T06:52:15.000Z</time>
      </trkpt>
      <trkpt lat="44.59617" lon="2.38732">
        <ele>400.87</ele>
        <time>2018-04-16T06:52:25.000Z</time>
      </trkpt>
      <trkpt lat="44.59618" lon="2.38726">
        <ele>401.83</ele>
        <time>2018-04-16T06:52:35.000Z</time>
      </trkpt>
      <trkpt lat="44.59616" lon="2.38718">
        <ele>403.48</ele>
        <time>2018-04-16T06:52:45.000Z</time>
      </trkpt>
      <trkpt lat="44.59616" lon="2.38714">
        <ele>404.78</ele>
        <time>2018-04-16T06:52:55.000Z</time>
      </trkpt>
      <trkpt lat="44.59616" lon="2.3871">
        <ele>405.95</ele>
        <time>2018-04-16T06:53:05.000Z</time>
      </trkpt>
      <trkpt lat="44.59616" lon="2.38707">
        <ele>406.91</ele>
        <time>2018-04-16T06:53:15.000Z</time>
      </trkpt>
      <trkpt lat="44.59617" lon="2.38699">
        <ele>408.81</ele>
        <time>2018-04-16T06:53:25.000Z</time>
      </trkpt>
      <trkpt lat="44.59616" lon="2.38694">
        <ele>408.98</ele>
        <time>2018-04-16T06:53:35.000Z</time>
      </trkpt>
      <trkpt lat="44.59615" lon="2.38692">
        <ele>408.29</ele>
        <time>2018-04-16T06:53:48.000Z</time>
      </trkpt>
      <trkpt lat="44.59613" lon="2.38689">
        <ele>408.76</ele>
        <time>2018-04-16T06:53:58.000Z</time>
      </trkpt>
      <trkpt lat="44.59607" lon="2.38693">
        <ele>410.61</ele>
        <time>2018-04-16T06:54:08.000Z</time>
      </trkpt>
      <trkpt lat="44.59603" lon="2.387">
        <ele>411.53</ele>
        <time>2018-04-16T06:54:18.000Z</time>
      </trkpt>
      <trkpt lat="44.59601" lon="2.38701">
        <ele>411.83</ele>
        <time>2018-04-16T06:54:28.000Z</time>
      </trkpt>
      <trkpt lat="44.59602" lon="2.38706">
        <ele>411.6</ele>
        <time>2018-04-16T06:54:38.000Z</time>
      </trkpt>
      <trkpt lat="44.59604" lon="2.38706">
        <ele>411.53</ele>
        <time>2018-04-16T06:54:48.000Z</time>
      </trkpt>
      <trkpt lat="44.59606" lon="2.38707">
        <ele>412</ele>
        <time>2018-04-16T06:54:58.000Z</time>
      </trkpt>
      <trkpt lat="44.59606" lon="2.38706">
        <ele>411.95</ele>
        <time>2018-04-16T06:55:08.000Z</time>
      </trkpt>
      <trkpt lat="44.59606" lon="2.38708">
        <ele>411.74</ele>
        <time>2018-04-16T06:55:20.000Z</time>
      </trkpt>
      <trkpt lat="44.59606" lon="2.38705">
        <ele>412.24</ele>
        <time>2018-04-16T06:55:30.000Z</time>
      </trkpt>
      <trkpt lat="44.59609" lon="2.38698">
        <ele>413.41</ele>
        <time>2018-04-16T06:55:40.000Z</time>
      </trkpt>
      <trkpt lat="44.5961" lon="2.38689">
        <ele>414.64</ele>
        <time>2018-04-16T06:55:50.000Z</time>
      </trkpt>
      <trkpt lat="44.59611" lon="2.38681">
        <ele>416.45</ele>
        <time>2018-04-16T06:56:00.000Z</time>
      </trkpt>
      <trkpt lat="44.59607" lon="2.38678">
        <ele>417.64</ele>
        <time>2018-04-16T06:56:10.000Z</time>
      </trkpt>
      <trkpt lat="44.59605" lon="2.38681">
        <ele>418.92</ele>
        <time>2018-04-16T06:56:20.000Z</time>
      </trkpt>
      <trkpt lat="44.59603" lon="2.38686">
        <ele>419.99</ele>
        <time>2018-04-16T06:56:30.000Z</time>
      </trkpt>
      <trkpt lat="44.59601" lon="2.3869">
        <ele>420.11</ele>
        <time>2018-04-16T06:56:40.000Z</time>
      </trkpt>
      <trkpt lat="44.59598" lon="2.38696">
        <ele>420.57</ele>
        <time>2018-04-16T06:56:50.000Z</time>
      </trkpt>
      <trkpt lat="44.59595" lon="2.38697">
        <ele>420.76</ele>
        <time>2018-04-16T06:57:00.000Z</time>
      </trkpt>
      <trkpt lat="44.59591" lon="2.38699">
        <ele>421.78</ele>
        <time>2018-04-16T06:57:10.000Z</time>
      </trkpt>
      <trkpt lat="44.59582" lon="2.38703">
        <ele>423.27</ele>
        <time>2018-04-16T06:57:20.000Z</time>
      </trkpt>
      <trkpt lat="44.59581" lon="2.38709">
        <ele>424.47</ele>
        <time>2018-04-16T06:57:30.000Z</time>
      </trkpt>
      <trkpt lat="44.59577" lon="2.38716">
        <ele>426.12</ele>
        <time>2018-04-16T06:57:40.000Z</time>
      </trkpt>
      <trkpt lat="44.59574" lon="2.38725">
        <ele>427.4</ele>
        <time>2018-04-16T06:57:50.000Z</time>
      </trkpt>
      <trkpt lat="44.59574" lon="2.38729">
        <ele>428.6</ele>
        <time>2018-04-16T06:58:00.000Z</time>
      </trkpt>
      <trkpt lat="44.59572" lon="2.38738">
        <ele>430.37</ele>
        <time>2018-04-16T06:58:10.000Z</time>
      </trkpt>
      <trkpt lat="44.59571" lon="2.38741">
        <ele>431.16</ele>
        <time>2018-04-16T06:58:20.000Z</time>
      </trkpt>
      <trkpt lat="44.5957" lon="2.38749">
        <ele>432.59</ele>
        <time>2018-04-16T06:58:30.000Z</time>
      </trkpt>
      <trkpt lat="44.59572" lon="2.3875">
        <ele>433.84</ele>
        <time>2018-04-16T06:58:40.000Z</time>
      </trkpt>
      <trkpt lat="44.59568" lon="2.38753">
        <ele>435.65</ele>
        <time>2018-04-16T06:58:50.000Z</time>
      </trkpt>
      <trkpt lat="44.59563" lon="2.38761">
        <ele>436.9</ele>
        <time>2018-04-16T06:59:00.000Z</time>
      </trkpt>
      <trkpt lat="44.59561" lon="2.38766">
        <ele>437.58</ele>
        <time>2018-04-16T06:59:10.000Z</time>
      </trkpt>
      <trkpt lat="44.5956" lon="2.38774">
        <ele>438.82</ele>
        <time>2018-04-16T06:59:20.000Z</time>
      </trkpt>
      <trkpt lat="44.5956" lon="2.3878">
        <ele>440.63</ele>
        <time>2018-04-16T06:59:30.000Z</time>
      </trkpt>
      <trkpt lat="44.59557" lon="2.3879">
        <ele>441.88</ele>
        <time>2018-04-16T06:59:40.000Z</time>
      </trkpt>
      <trkpt lat="44.59559" lon="2.38798">
        <ele>442.95</ele>
        <time>2018-04-16T06:59:50.000Z</time>
      </trkpt>
      <trkpt lat="44.59557" lon="2.38804">
        <ele>444.7</ele>
        <time>2018-04-16T07:00:00.000Z</time>
      </trkpt>
      <trkpt lat="44.59557" lon="2.38809">
        <ele>445.95</ele>
        <time>2018-04-16T07:00:11.000Z</time>
      </trkpt>
      <trkpt lat="44.59556" lon="2.38816">
        <ele>447.51</ele>
        <time>2018-04-16T07:00:21.000Z</time>
      </trkpt>
      <trkpt lat="44.59553" lon="2.3882">
        <ele>448.74</ele>
        <time>2018-04-16T07:00:31.000Z</time>
      </trkpt>
      <trkpt lat="44.59554" lon="2.38824">
        <ele>449.98</ele>
        <time>2018-04-16T07:00:41.000Z</time>
      </trkpt>
      <trkpt lat="44.59552" lon="2.38829">
        <ele>451.59</ele>
        <time>2018-04-16T07:00:51.000Z</time>
      </trkpt>
      <trkpt lat="44.59549" lon="2.38835">
        <ele>452.64</ele>
        <time>2018-04-16T07:01:01.000Z</time>
      </trkpt>
      <trkpt lat="44.59545" lon="2.3884">
        <ele>454.73</ele>
        <time>2018-04-16T07:01:11.000Z</time>
      </trkpt>
      <trkpt lat="44.59544" lon="2.38847">
        <ele>455.65</ele>
        <time>2018-04-16T07:01:21.000Z</time>
      </trkpt>
      <trkpt lat="44.59541" lon="2.3885">
        <ele>457.13</ele>
        <time>2018-04-16T07:01:31.000Z</time>
      </trkpt>
      <trkpt lat="44.59543" lon="2.38857">
        <ele>458.81</ele>
        <time>2018-04-16T07:01:41.000Z</time>
      </trkpt>
      <trkpt lat="44.59541" lon="2.38863">
        <ele>460.24</ele>
        <time>2018-04-16T07:01:51.000Z</time>
      </trkpt>
      <trkpt lat="44.5954" lon="2.3887">
        <ele>461.44</ele>
        <time>2018-04-16T07:02:01.000Z</time>
      </trkpt>
      <trkpt lat="44.59536" lon="2.3888">
        <ele>462.95</ele>
        <time>2018-04-16T07:02:11.000Z</time>
      </trkpt>
      <trkpt lat="44.59534" lon="2.38886">
        <ele>464.32</ele>
        <time>2018-04-16T07:02:21.000Z</time>
      </trkpt>
      <trkpt lat="44.59532" lon="2.38896">
        <ele>465.96</ele>
        <time>2018-04-16T07:02:31.000Z</time>
      </trkpt>
      <trkpt lat="44.59531" lon="2.38901">
        <ele>466.55</ele>
        <time>2018-04-16T07:02:41.000Z</time>
      </trkpt>
      <trkpt lat="44.59525" lon="2.38904">
        <ele>467.86</ele>
        <time>2018-04-16T07:02:51.000Z</time>
      </trkpt>
      <trkpt lat="44.59521" lon="2.38906">
        <ele>469.03</ele>
        <time>2018-04-16T07:03:01.000Z</time>
      </trkpt>
      <trkpt lat="44.59515" lon="2.38906">
        <ele>470.31</ele>
        <time>2018-04-16T07:03:11.000Z</time>
      </trkpt>
      <trkpt lat="44.59511" lon="2.38907">
        <ele>471.29</ele>
        <time>2018-04-16T07:03:21.000Z</time>
      </trkpt>
      <trkpt lat="44.59504" lon="2.38908">
        <ele>472.53</ele>
        <time>2018-04-16T07:03:31.000Z</time>
      </trkpt>
      <trkpt lat="44.59497" lon="2.38908">
        <ele>473.75</ele>
        <time>2018-04-16T07:03:41.000Z</time>
      </trkpt>
      <trkpt lat="44.5949" lon="2.38906">
        <ele>474.63</ele>
        <time>2018-04-16T07:03:51.000Z</time>
      </trkpt>
      <trkpt lat="44.59485" lon="2.38907">
        <ele>476.01</ele>
        <time>2018-04-16T07:04:01.000Z</time>
      </trkpt>
      <trkpt lat="44.59478" lon="2.38905">
        <ele>476.93</ele>
        <time>2018-04-16T07:04:11.000Z</time>
      </trkpt>
      <trkpt lat="44.59472" lon="2.38903">
        <ele>478.42</ele>
        <time>2018-04-16T07:04:21.000Z</time>
      </trkpt>
      <trkpt lat="44.59464" lon="2.38901">
        <ele>479.62</ele>
        <time>2018-04-16T07:04:31.000Z</time>
      </trkpt>
      <trkpt lat="44.59463" lon="2.38892">
        <ele>481.04</ele>
        <time>2018-04-16T07:04:41.000Z</time>
      </trkpt>
      <trkpt lat="44.59462" lon="2.38887">
        <ele>482.46</ele>
        <time>2018-04-16T07:04:51.000Z</time>
      </trkpt>
      <trkpt lat="44.59458" lon="2.38882">
        <ele>483.53</ele>
        <time>2018-04-16T07:05:01.000Z</time>
      </trkpt>
      <trkpt lat="44.59451" lon="2.38879">
        <ele>484.75</ele>
        <time>2018-04-16T07:05:11.000Z</time>
      </trkpt>
      <trkpt lat="44.59446" lon="2.38876">
        <ele>486.21</ele>
        <time>2018-04-16T07:05:21.000Z</time>
      </trkpt>
      <trkpt lat="44.59439" lon="2.38871">
        <ele>487.45</ele>
        <time>2018-04-16T07:05:31.000Z</time>
      </trkpt>
      <trkpt lat="44.59435" lon="2.38867">
        <ele>488.83</ele>
        <time>2018-04-16T07:05:41.000Z</time>
      </trkpt>
      <trkpt lat="44.59432" lon="2.38863">
        <ele>490.03</ele>
        <time>2018-04-16T07:05:51.000Z</time>
      </trkpt>
      <trkpt lat="44.59431" lon="2.38862">
        <ele>492.09</ele>
        <time>2018-04-16T07:06:02.000Z</time>
      </trkpt>
      <trkpt lat="44.59426" lon="2.38858">
        <ele>493.5</ele>
        <time>2018-04-16T07:06:12.000Z</time>
      </trkpt>
      <trkpt lat="44.5942" lon="2.38856">
        <ele>494.5</ele>
        <time>2018-04-16T07:06:22.000Z</time>
      </trkpt>
      <trkpt lat="44.59419" lon="2.38855">
        <ele>496.17</ele>
        <time>2018-04-16T07:06:32.000Z</time>
      </trkpt>
      <trkpt lat="44.59413" lon="2.38853">
        <ele>497.43</ele>
        <time>2018-04-16T07:06:42.000Z</time>
      </trkpt>
      <trkpt lat="44.59404" lon="2.38852">
        <ele>498.42</ele>
        <time>2018-04-16T07:06:52.000Z</time>
      </trkpt>
      <trkpt lat="44.59401" lon="2.38848">
        <ele>499.55</ele>
        <time>2018-04-16T07:07:02.000Z</time>
      </trkpt>
      <trkpt lat="44.59397" lon="2.38846">
        <ele>501.1</ele>
        <time>2018-04-16T07:07:12.000Z</time>
      </trkpt>
      <trkpt lat="44.5939" lon="2.38841">
        <ele>502.31</ele>
        <time>2018-04-16T07:07:22.000Z</time>
      </trkpt>
      <trkpt lat="44.59383" lon="2.38837">
        <ele>503.34</ele>
        <time>2018-04-16T07:07:32.000Z</time>
      </trkpt>
      <trkpt lat="44.5938" lon="2.38832">
        <ele>504.85</ele>
        <time>2018-04-16T07:07:42.000Z</time>
      </trkpt>
      <trkpt lat="44.59376" lon="2.38828">
        <ele>505.97</ele>
        <time>2018-04-16T07:07:52.000Z</time>
      </trkpt>
      <trkpt lat="44.5937" lon="2.38822">
        <ele>507.94</ele>
        <time>2018-04-16T07:08:02.000Z</time>
      </trkpt>
      <trkpt lat="44.59367" lon="2.38816">
        <ele>509.31</ele>
        <time>2018-04-16T07:08:12.000Z</time>
      </trkpt>
      <trkpt lat="44.59362" lon="2.38811">
        <ele>509.78</ele>
        <time>2018-04-16T07:08:22.000Z</time>
      </trkpt>
      <trkpt lat="44.59355" lon="2.38804">
        <ele>510.97</ele>
        <time>2018-04-16T07:08:32.000Z</time>
      </trkpt>
      <trkpt lat="44.59348" lon="2.388">
        <ele>512.65</ele>
        <time>2018-04-16T07:08:42.000Z</time>
      </trkpt>
      <trkpt lat="44.59341" lon="2.38794">
        <ele>513.78</ele>
        <time>2018-04-16T07:08:52.000Z</time>
      </trkpt>
      <trkpt lat="44.59335" lon="2.38789">
        <ele>514.74</ele>
        <time>2018-04-16T07:09:02.000Z</time>
      </trkpt>
      <trkpt lat="44.59331" lon="2.38785">
        <ele>515.49</ele>
        <time>2018-04-16T07:09:12.000Z</time>
      </trkpt>
      <trkpt lat="44.59327" lon="2.38777">
        <ele>515.86</ele>
        <time>2018-04-16T07:09:22.000Z</time>
      </trkpt>
      <trkpt lat="44.59327" lon="2.38772">
        <ele>517.31</ele>
        <time>2018-04-16T07:09:32.000Z</time>
      </trkpt>
      <trkpt lat="44.5933" lon="2.38766">
        <ele>518.3</ele>
        <time>2018-04-16T07:09:42.000Z</time>
      </trkpt>
      <trkpt lat="44.59331" lon="2.38768">
        <ele>519.97</ele>
        <time>2018-04-16T07:09:52.000Z</time>
      </trkpt>
      <trkpt lat="44.59335" lon="2.38773">
        <ele>521.37</ele>
        <time>2018-04-16T07:10:02.000Z</time>
      </trkpt>
      <trkpt lat="44.5934" lon="2.38774">
        <ele>522.26</ele>
        <time>2018-04-16T07:10:12.000Z</time>
      </trkpt>
      <trkpt lat="44.59346" lon="2.38772">
        <ele>523.38</ele>
        <time>2018-04-16T07:10:22.000Z</time>
      </trkpt>
      <trkpt lat="44.59351" lon="2.38765">
        <ele>524.74</ele>
        <time>2018-04-16T07:10:32.000Z</time>
      </trkpt>
      <trkpt lat="44.59351" lon="2.38756">
        <ele>526.43</ele>
        <time>2018-04-16T07:10:42.000Z</time>
      </trkpt>
      <trkpt lat="44.5935" lon="2.38749">
        <ele>527.45</ele>
        <time>2018-04-16T07:10:52.000Z</time>
      </trkpt>
      <trkpt lat="44.5935" lon="2.38742">
        <ele>528.93</ele>
        <time>2018-04-16T07:11:02.000Z</time>
      </trkpt>
      <trkpt lat="44.59353" lon="2.38736">
        <ele>529.94</ele>
        <time>2018-04-16T07:11:12.000Z</time>
      </trkpt>
      <trkpt lat="44.59353" lon="2.3873">
        <ele>531.19</ele>
        <time>2018-04-16T07:11:22.000Z</time>
      </trkpt>
      <trkpt lat="44.59356" lon="2.38723">
        <ele>532.85</ele>
        <time>2018-04-16T07:11:32.000Z</time>
      </trkpt>
      <trkpt lat="44.59357" lon="2.38715">
        <ele>534.16</ele>
        <time>2018-04-16T07:11:42.000Z</time>
      </trkpt>
      <trkpt lat="44.5936" lon="2.3871">
        <ele>534.99</ele>
        <time>2018-04-16T07:11:52.000Z</time>
      </trkpt>
      <trkpt lat="44.59362" lon="2.38705">
        <ele>536.22</ele>
        <time>2018-04-16T07:12:02.000Z</time>
      </trkpt>
      <trkpt lat="44.59365" lon="2.38702">
        <ele>537.49</ele>
        <time>2018-04-16T07:12:12.000Z</time>
      </trkpt>
      <trkpt lat="44.59367" lon="2.38699">
        <ele>538.75</ele>
        <time>2018-04-16T07:12:22.000Z</time>
      </trkpt>
      <trkpt lat="44.59369" lon="2.38691">
        <ele>539.85</ele>
        <time>2018-04-16T07:12:32.000Z</time>
      </trkpt>
      <trkpt lat="44.59371" lon="2.38685">
        <ele>541.32</ele>
        <time>2018-04-16T07:12:42.000Z</time>
      </trkpt>
      <trkpt lat="44.59375" lon="2.38679">
        <ele>542.56</ele>
        <time>2018-04-16T07:12:52.000Z</time>
      </trkpt>
      <trkpt lat="44.59379" lon="2.3867">
        <ele>543.93</ele>
        <time>2018-04-16T07:13:02.000Z</time>
      </trkpt>
      <trkpt lat="44.59381" lon="2.38661">
        <ele>544.98</ele>
        <time>2018-04-16T07:13:12.000Z</time>
      </trkpt>
      <trkpt lat="44.59384" lon="2.38652">
        <ele>545.98</ele>
        <time>2018-04-16T07:13:22.000Z</time>
      </trkpt>
      <trkpt lat="44.59387" lon="2.38645">
        <ele>547.18</ele>
        <time>2018-04-16T07:13:32.000Z</time>
      </trkpt>
      <trkpt lat="44.5939" lon="2.38638">
        <ele>547.95</ele>
        <time>2018-04-16T07:13:42.000Z</time>
      </trkpt>
      <trkpt lat="44.59392" lon="2.38629">
        <ele>548.77</ele>
        <time>2018-04-16T07:13:52.000Z</time>
      </trkpt>
      <trkpt lat="44.59392" lon="2.38619">
        <ele>549.52</ele>
        <time>2018-04-16T07:14:02.000Z</time>
      </trkpt>
      <trkpt lat="44.59396" lon="2.3861">
        <ele>550.52</ele>
        <time>2018-04-16T07:14:12.000Z</time>
      </trkpt>
      <trkpt lat="44.59397" lon="2.386">
        <ele>551.37</ele>
        <time>2018-04-16T07:14:22.000Z</time>
      </trkpt>
      <trkpt lat="44.59399" lon="2.38593">
        <ele>551.96</ele>
        <time>2018-04-16T07:14:32.000Z</time>
      </trkpt>
      <trkpt lat="44.59402" lon="2.38585">
        <ele>552.91</ele>
        <time>2018-04-16T07:14:42.000Z</time>
      </trkpt>
      <trkpt lat="44.59404" lon="2.38575">
        <ele>553.77</ele>
        <time>2018-04-16T07:14:52.000Z</time>
      </trkpt>
      <trkpt lat="44.59408" lon="2.38566">
        <ele>554.48</ele>
        <time>2018-04-16T07:15:02.000Z</time>
      </trkpt>
      <trkpt lat="44.5941" lon="2.38556">
        <ele>555.48</ele>
        <time>2018-04-16T07:15:12.000Z</time>
      </trkpt>
      <trkpt lat="44.59409" lon="2.38546">
        <ele>555.87</ele>
        <time>2018-04-16T07:15:22.000Z</time>
      </trkpt>
      <trkpt lat="44.59409" lon="2.38535">
        <ele>556.19</ele>
        <time>2018-04-16T07:15:32.000Z</time>
      </trkpt>
      <trkpt lat="44.59404" lon="2.3853">
        <ele>556.38</ele>
        <time>2018-04-16T07:15:42.000Z</time>
      </trkpt>
      <trkpt lat="44.59394" lon="2.38522">
        <ele>557</ele>
        <time>2018-04-16T07:15:52.000Z</time>
      </trkpt>
      <trkpt lat="44.59389" lon="2.38515">
        <ele>557.17</ele>
        <time>2018-04-16T07:16:02.000Z</time>
      </trkpt>
      <trkpt lat="44.59386" lon="2.38508">
        <ele>558.15</ele>
        <time>2018-04-16T07:16:12.000Z</time>
      </trkpt>
      <trkpt lat="44.5938" lon="2.38501">
        <ele>559.21</ele>
        <time>2018-04-16T07:16:22.000Z</time>
      </trkpt>
      <trkpt lat="44.59375" lon="2.38494">
        <ele>560.42</ele>
        <time>2018-04-16T07:16:32.000Z</time>
      </trkpt>
      <trkpt lat="44.59369" lon="2.38487">
        <ele>561.13</ele>
        <time>2018-04-16T07:16:42.000Z</time>
      </trkpt>
      <trkpt lat="44.59366" lon="2.3848">
        <ele>561.78</ele>
        <time>2018-04-16T07:16:52.000Z</time>
      </trkpt>
      <trkpt lat="44.59361" lon="2.38473">
        <ele>562.51</ele>
        <time>2018-04-16T07:17:02.000Z</time>
      </trkpt>
      <trkpt lat="44.59355" lon="2.38466">
        <ele>563.37</ele>
        <time>2018-04-16T07:17:12.000Z</time>
      </trkpt>
      <trkpt lat="44.59349" lon="2.3846">
        <ele>564.2</ele>
        <time>2018-04-16T07:17:22.000Z</time>
      </trkpt>
      <trkpt lat="44.59345" lon="2.38456">
        <ele>565.36</ele>
        <time>2018-04-16T07:17:32.000Z</time>
      </trkpt>
      <trkpt lat="44.59339" lon="2.38449">
        <ele>566.41</ele>
        <time>2018-04-16T07:17:42.000Z</time>
      </trkpt>
      <trkpt lat="44.59337" lon="2.38441">
        <ele>567.62</ele>
        <time>2018-04-16T07:17:52.000Z</time>
      </trkpt>
      <trkpt lat="44.59338" lon="2.38432">
        <ele>568.79</ele>
        <time>2018-04-16T07:18:02.000Z</time>
      </trkpt>
      <trkpt lat="44.59333" lon="2.38425">
        <ele>569.93</ele>
        <time>2018-04-16T07:18:12.000Z</time>
      </trkpt>
      <trkpt lat="44.59328" lon="2.38423">
        <ele>570.57</ele>
        <time>2018-04-16T07:18:22.000Z</time>
      </trkpt>
      <trkpt lat="44.59327" lon="2.38424">
        <ele>570.98</ele>
        <time>2018-04-16T07:18:32.000Z</time>
      </trkpt>
      <trkpt lat="44.59327" lon="2.38422">
        <ele>571.01</ele>
        <time>2018-04-16T07:18:42.000Z</time>
      </trkpt>
      <trkpt lat="44.59324" lon="2.38414">
        <ele>572.08</ele>
        <time>2018-04-16T07:18:52.000Z</time>
      </trkpt>
      <trkpt lat="44.59321" lon="2.38404">
        <ele>572.67</ele>
        <time>2018-04-16T07:19:02.000Z</time>
      </trkpt>
      <trkpt lat="44.59316" lon="2.38396">
        <ele>574.08</ele>
        <time>2018-04-16T07:19:12.000Z</time>
      </trkpt>
      <trkpt lat="44.59313" lon="2.38385">
        <ele>574.74</ele>
        <time>2018-04-16T07:19:22.000Z</time>
      </trkpt>
      <trkpt lat="44.59311" lon="2.38374">
        <ele>575.45</ele>
        <time>2018-04-16T07:19:32.000Z</time>
      </trkpt>
      <trkpt lat="44.59309" lon="2.38364">
        <ele>576.59</ele>
        <time>2018-04-16T07:19:42.000Z</time>
      </trkpt>
      <trkpt lat="44.59307" lon="2.38353">
        <ele>577.22</ele>
        <time>2018-04-16T07:19:52.000Z</time>
      </trkpt>
      <trkpt lat="44.59306" lon="2.38341">
        <ele>577.65</ele>
        <time>2018-04-16T07:20:02.000Z</time>
      </trkpt>
      <trkpt lat="44.59305" lon="2.38326">
        <ele>577.38</ele>
        <time>2018-04-16T07:20:12.000Z</time>
      </trkpt>
      <trkpt lat="44.59305" lon="2.38312">
        <ele>577.02</ele>
        <time>2018-04-16T07:20:22.000Z</time>
      </trkpt>
      <trkpt lat="44.593" lon="2.38301">
        <ele>576.76</ele>
        <time>2018-04-16T07:20:32.000Z</time>
      </trkpt>
      <trkpt lat="44.59298" lon="2.38288">
        <ele>577.15</ele>
        <time>2018-04-16T07:20:42.000Z</time>
      </trkpt>
      <trkpt lat="44.59295" lon="2.38275">
        <ele>577.02</ele>
        <time>2018-04-16T07:20:52.000Z</time>
      </trkpt>
      <trkpt lat="44.59292" lon="2.38262">
        <ele>577.22</ele>
        <time>2018-04-16T07:21:02.000Z</time>
      </trkpt>
      <trkpt lat="44.59288" lon="2.38249">
        <ele>577.25</ele>
        <time>2018-04-16T07:21:12.000Z</time>
      </trkpt>
      <trkpt lat="44.59283" lon="2.38237">
        <ele>577.6</ele>
        <time>2018-04-16T07:21:22.000Z</time>
      </trkpt>
      <trkpt lat="44.59279" lon="2.38225">
        <ele>577.94</ele>
        <time>2018-04-16T07:21:32.000Z</time>
      </trkpt>
      <trkpt lat="44.59273" lon="2.38212">
        <ele>578.55</ele>
        <time>2018-04-16T07:21:42.000Z</time>
      </trkpt>
      <trkpt lat="44.5927" lon="2.382">
        <ele>579.19</ele>
        <time>2018-04-16T07:21:52.000Z</time>
      </trkpt>
      <trkpt lat="44.59267" lon="2.38188">
        <ele>578.69</ele>
        <time>2018-04-16T07:22:02.000Z</time>
      </trkpt>
      <trkpt lat="44.59264" lon="2.38175">
        <ele>578.66</ele>
        <time>2018-04-16T07:22:12.000Z</time>
      </trkpt>
      <trkpt lat="44.59264" lon="2.38166">
        <ele>578.88</ele>
        <time>2018-04-16T07:22:22.000Z</time>
      </trkpt>
      <trkpt lat="44.59263" lon="2.38154">
        <ele>579.11</ele>
        <time>2018-04-16T07:22:32.000Z</time>
      </trkpt>
      <trkpt lat="44.59262" lon="2.38142">
        <ele>579.38</ele>
        <time>2018-04-16T07:22:42.000Z</time>
      </trkpt>
      <trkpt lat="44.5926" lon="2.38128">
        <ele>580.06</ele>
        <time>2018-04-16T07:22:52.000Z</time>
      </trkpt>
      <trkpt lat="44.59259" lon="2.38114">
        <ele>580.7</ele>
        <time>2018-04-16T07:23:02.000Z</time>
      </trkpt>
      <trkpt lat="44.59259" lon="2.38101">
        <ele>581.23</ele>
        <time>2018-04-16T07:23:12.000Z</time>
      </trkpt>
      <trkpt lat="44.59256" lon="2.38088">
        <ele>582.56</ele>
        <time>2018-04-16T07:23:22.000Z</time>
      </trkpt>
      <trkpt lat="44.59253" lon="2.38076">
        <ele>583.8</ele>
        <time>2018-04-16T07:23:32.000Z</time>
      </trkpt>
      <trkpt lat="44.59252" lon="2.38065">
        <ele>584.63</ele>
        <time>2018-04-16T07:23:42.000Z</time>
      </trkpt>
      <trkpt lat="44.59248" lon="2.38054">
        <ele>586.15</ele>
        <time>2018-04-16T07:23:52.000Z</time>
      </trkpt>
      <trkpt lat="44.59248" lon="2.38043">
        <ele>587.17</ele>
        <time>2018-04-16T07:24:02.000Z</time>
      </trkpt>
      <trkpt lat="44.59245" lon="2.38031">
        <ele>588.15</ele>
        <time>2018-04-16T07:24:12.000Z</time>
      </trkpt>
      <trkpt lat="44.59243" lon="2.38019">
        <ele>588.98</ele>
        <time>2018-04-16T07:24:22.000Z</time>
      </trkpt>
      <trkpt lat="44.5924" lon="2.38006">
        <ele>589.6</ele>
        <time>2018-04-16T07:24:32.000Z</time>
      </trkpt>
      <trkpt lat="44.59237" lon="2.37995">
        <ele>589.93</ele>
        <time>2018-04-16T07:24:42.000Z</time>
      </trkpt>
      <trkpt lat="44.59234" lon="2.37982">
        <ele>589.84</ele>
        <time>2018-04-16T07:24:52.000Z</time>
      </trkpt>
      <trkpt lat="44.5923" lon="2.37971">
        <ele>589.51</ele>
        <time>2018-04-16T07:25:02.000Z</time>
      </trkpt>
      <trkpt lat="44.59226" lon="2.37958">
        <ele>589.57</ele>
        <time>2018-04-16T07:25:12.000Z</time>
      </trkpt>
      <trkpt lat="44.59223" lon="2.37946">
        <ele>589.52</ele>
        <time>2018-04-16T07:25:22.000Z</time>
      </trkpt>
      <trkpt lat="44.59221" lon="2.37932">
        <ele>589.46</ele>
        <time>2018-04-16T07:25:32.000Z</time>
      </trkpt>
      <trkpt lat="44.59218" lon="2.37921">
        <ele>589.75</ele>
        <time>2018-04-16T07:25:42.000Z</time>
      </trkpt>
      <trkpt lat="44.59217" lon="2.37913">
        <ele>590.21</ele>
        <time>2018-04-16T07:25:52.000Z</time>
      </trkpt>
      <trkpt lat="44.59211" lon="2.3791">
        <ele>590.27</ele>
        <time>2018-04-16T07:26:02.000Z</time>
      </trkpt>
      <trkpt lat="44.59204" lon="2.37899">
        <ele>590.13</ele>
        <time>2018-04-16T07:26:12.000Z</time>
      </trkpt>
      <trkpt lat="44.59199" lon="2.37884">
        <ele>589.95</ele>
        <time>2018-04-16T07:26:22.000Z</time>
      </trkpt>
      <trkpt lat="44.592" lon="2.37869">
        <ele>590.06</ele>
        <time>2018-04-16T07:26:32.000Z</time>
      </trkpt>
      <trkpt lat="44.59201" lon="2.37853">
        <ele>590.15</ele>
        <time>2018-04-16T07:26:42.000Z</time>
      </trkpt>
      <trkpt lat="44.59203" lon="2.37838">
        <ele>589.88</ele>
        <time>2018-04-16T07:26:52.000Z</time>
      </trkpt>
      <trkpt lat="44.59202" lon="2.37821">
        <ele>589.95</ele>
        <time>2018-04-16T07:27:02.000Z</time>
      </trkpt>
      <trkpt lat="44.59201" lon="2.37804">
        <ele>590.26</ele>
        <time>2018-04-16T07:27:12.000Z</time>
      </trkpt>
      <trkpt lat="44.59195" lon="2.3779">
        <ele>590.54</ele>
        <time>2018-04-16T07:27:22.000Z</time>
      </trkpt>
      <trkpt lat="44.59188" lon="2.37776">
        <ele>590.67</ele>
        <time>2018-04-16T07:27:32.000Z</time>
      </trkpt>
      <trkpt lat="44.59181" lon="2.37765">
        <ele>591.14</ele>
        <time>2018-04-16T07:27:42.000Z</time>
      </trkpt>
      <trkpt lat="44.59173" lon="2.37754">
        <ele>591.51</ele>
        <time>2018-04-16T07:27:52.000Z</time>
      </trkpt>
      <trkpt lat="44.59166" lon="2.3774">
        <ele>591.18</ele>
        <time>2018-04-16T07:28:02.000Z</time>
      </trkpt>
      <trkpt lat="44.59158" lon="2.37725">
        <ele>590.99</ele>
        <time>2018-04-16T07:28:12.000Z</time>
      </trkpt>
      <trkpt lat="44.59152" lon="2.37712">
        <ele>590.74</ele>
        <time>2018-04-16T07:28:22.000Z</time>
      </trkpt>
      <trkpt lat="44.59146" lon="2.37697">
        <ele>590.56</ele>
        <time>2018-04-16T07:28:32.000Z</time>
      </trkpt>
      <trkpt lat="44.5914" lon="2.37684">
        <ele>590.51</ele>
        <time>2018-04-16T07:28:42.000Z</time>
      </trkpt>
      <trkpt lat="44.59132" lon="2.37672">
        <ele>591.11</ele>
        <time>2018-04-16T07:28:52.000Z</time>
      </trkpt>
      <trkpt lat="44.59124" lon="2.37658">
        <ele>591.77</ele>
        <time>2018-04-16T07:29:02.000Z</time>
      </trkpt>
      <trkpt lat="44.59119" lon="2.37643">
        <ele>591.5</ele>
        <time>2018-04-16T07:29:12.000Z</time>
      </trkpt>
      <trkpt lat="44.59112" lon="2.3763">
        <ele>591.67</ele>
        <time>2018-04-16T07:29:22.000Z</time>
      </trkpt>
      <trkpt lat="44.59106" lon="2.37615">
        <ele>591.79</ele>
        <time>2018-04-16T07:29:32.000Z</time>
      </trkpt>
      <trkpt lat="44.59098" lon="2.37605">
        <ele>591.27</ele>
        <time>2018-04-16T07:29:42.000Z</time>
      </trkpt>
      <trkpt lat="44.59086" lon="2.37603">
        <ele>590.93</ele>
        <time>2018-04-16T07:29:52.000Z</time>
      </trkpt>
      <trkpt lat="44.59073" lon="2.37603">
        <ele>590.45</ele>
        <time>2018-04-16T07:30:02.000Z</time>
      </trkpt>
      <trkpt lat="44.59061" lon="2.37604">
        <ele>590.39</ele>
        <time>2018-04-16T07:30:12.000Z</time>
      </trkpt>
      <trkpt lat="44.59049" lon="2.37606">
        <ele>590.26</ele>
        <time>2018-04-16T07:30:22.000Z</time>
      </trkpt>
      <trkpt lat="44.59038" lon="2.37607">
        <ele>590.44</ele>
        <time>2018-04-16T07:30:32.000Z</time>
      </trkpt>
      <trkpt lat="44.59024" lon="2.37608">
        <ele>590.72</ele>
        <time>2018-04-16T07:30:42.000Z</time>
      </trkpt>
      <trkpt lat="44.59013" lon="2.3761">
        <ele>590.87</ele>
        <time>2018-04-16T07:30:52.000Z</time>
      </trkpt>
      <trkpt lat="44.59" lon="2.3761">
        <ele>591.06</ele>
        <time>2018-04-16T07:31:02.000Z</time>
      </trkpt>
      <trkpt lat="44.58987" lon="2.37611">
        <ele>591.39</ele>
        <time>2018-04-16T07:31:12.000Z</time>
      </trkpt>
      <trkpt lat="44.58975" lon="2.37611">
        <ele>592.07</ele>
        <time>2018-04-16T07:31:22.000Z</time>
      </trkpt>
      <trkpt lat="44.58964" lon="2.37612">
        <ele>592.65</ele>
        <time>2018-04-16T07:31:32.000Z</time>
      </trkpt>
      <trkpt lat="44.58952" lon="2.37612">
        <ele>593.36</ele>
        <time>2018-04-16T07:31:42.000Z</time>
      </trkpt>
      <trkpt lat="44.58939" lon="2.37613">
        <ele>594.08</ele>
        <time>2018-04-16T07:31:52.000Z</time>
      </trkpt>
      <trkpt lat="44.58927" lon="2.37614">
        <ele>595.13</ele>
        <time>2018-04-16T07:32:02.000Z</time>
      </trkpt>
      <trkpt lat="44.58916" lon="2.37617">
        <ele>595.88</ele>
        <time>2018-04-16T07:32:12.000Z</time>
      </trkpt>
      <trkpt lat="44.58906" lon="2.3762">
        <ele>596.77</ele>
        <time>2018-04-16T07:32:22.000Z</time>
      </trkpt>
      <trkpt lat="44.58895" lon="2.37624">
        <ele>597.87</ele>
        <time>2018-04-16T07:32:32.000Z</time>
      </trkpt>
      <trkpt lat="44.58889" lon="2.37627">
        <ele>598.57</ele>
        <time>2018-04-16T07:32:42.000Z</time>
      </trkpt>
      <trkpt lat="44.5888" lon="2.37632">
        <ele>599.92</ele>
        <time>2018-04-16T07:32:52.000Z</time>
      </trkpt>
      <trkpt lat="44.58869" lon="2.37637">
        <ele>600.9</ele>
        <time>2018-04-16T07:33:02.000Z</time>
      </trkpt>
      <trkpt lat="44.58859" lon="2.37643">
        <ele>601.7</ele>
        <time>2018-04-16T07:33:12.000Z</time>
      </trkpt>
      <trkpt lat="44.58848" lon="2.37649">
        <ele>602.54</ele>
        <time>2018-04-16T07:33:22.000Z</time>
      </trkpt>
      <trkpt lat="44.58837" lon="2.37655">
        <ele>603.27</ele>
        <time>2018-04-16T07:33:32.000Z</time>
      </trkpt>
      <trkpt lat="44.58826" lon="2.37659">
        <ele>603.79</ele>
        <time>2018-04-16T07:33:42.000Z</time>
      </trkpt>
      <trkpt lat="44.58816" lon="2.37663">
        <ele>604.93</ele>
        <time>2018-04-16T07:33:52.000Z</time>
      </trkpt>
      <trkpt lat="44.58806" lon="2.37669">
        <ele>604.89</ele>
        <time>2018-04-16T07:34:02.000Z</time>
      </trkpt>
      <trkpt lat="44.58795" lon="2.37675">
        <ele>606.08</ele>
        <time>2018-04-16T07:34:12.000Z</time>
      </trkpt>
      <trkpt lat="44.58786" lon="2.37683">
        <ele>607.21</ele>
        <time>2018-04-16T07:34:22.000Z</time>
      </trkpt>
      <trkpt lat="44.58776" lon="2.37692">
        <ele>608.01</ele>
        <time>2018-04-16T07:34:32.000Z</time>
      </trkpt>
      <trkpt lat="44.58764" lon="2.37697">
        <ele>608.15</ele>
        <time>2018-04-16T07:34:42.000Z</time>
      </trkpt>
      <trkpt lat="44.58753" lon="2.37698">
        <ele>608.77</ele>
        <time>2018-04-16T07:34:52.000Z</time>
      </trkpt>
      <trkpt lat="44.58742" lon="2.37697">
        <ele>609.51</ele>
        <time>2018-04-16T07:35:02.000Z</time>
      </trkpt>
      <trkpt lat="44.58731" lon="2.37693">
        <ele>610.25</ele>
        <time>2018-04-16T07:35:12.000Z</time>
      </trkpt>
      <trkpt lat="44.58722" lon="2.37683">
        <ele>610.57</ele>
        <time>2018-04-16T07:35:22.000Z</time>
      </trkpt>
      <trkpt lat="44.58715" lon="2.3767">
        <ele>610.49</ele>
        <time>2018-04-16T07:35:32.000Z</time>
      </trkpt>
      <trkpt lat="44.58707" lon="2.37658">
        <ele>610.04</ele>
        <time>2018-04-16T07:35:42.000Z</time>
      </trkpt>
      <trkpt lat="44.58701" lon="2.37645">
        <ele>609.04</ele>
        <time>2018-04-16T07:35:52.000Z</time>
      </trkpt>
      <trkpt lat="44.58693" lon="2.37633">
        <ele>608.49</ele>
        <time>2018-04-16T07:36:02.000Z</time>
      </trkpt>
      <trkpt lat="44.58685" lon="2.37622">
        <ele>607.97</ele>
        <time>2018-04-16T07:36:12.000Z</time>
      </trkpt>
      <trkpt lat="44.58676" lon="2.37611">
        <ele>607.6</ele>
        <time>2018-04-16T07:36:22.000Z</time>
      </trkpt>
      <trkpt lat="44.58666" lon="2.37602">
        <ele>607.44</ele>
        <time>2018-04-16T07:36:32.000Z</time>
      </trkpt>
      <trkpt lat="44.58656" lon="2.37596">
        <ele>607.4</ele>
        <time>2018-04-16T07:36:42.000Z</time>
      </trkpt>
      <trkpt lat="44.58643" lon="2.3759">
        <ele>607.65</ele>
        <time>2018-04-16T07:36:52.000Z</time>
      </trkpt>
      <trkpt lat="44.5863" lon="2.37586">
        <ele>607.42</ele>
        <time>2018-04-16T07:37:02.000Z</time>
      </trkpt>
      <trkpt lat="44.58618" lon="2.37585">
        <ele>607.87</ele>
        <time>2018-04-16T07:37:12.000Z</time>
      </trkpt>
      <trkpt lat="44.58606" lon="2.37586">
        <ele>608.11</ele>
        <time>2018-04-16T07:37:22.000Z</time>
      </trkpt>
      <trkpt lat="44.58595" lon="2.37587">
        <ele>607.89</ele>
        <time>2018-04-16T07:37:32.000Z</time>
      </trkpt>
      <trkpt lat="44.58584" lon="2.37589">
        <ele>608.09</ele>
        <time>2018-04-16T07:37:42.000Z</time>
      </trkpt>
      <trkpt lat="44.58571" lon="2.3759">
        <ele>608.7</ele>
        <time>2018-04-16T07:37:52.000Z</time>
      </trkpt>
      <trkpt lat="44.5856" lon="2.37592">
        <ele>608.94</ele>
        <time>2018-04-16T07:38:02.000Z</time>
      </trkpt>
      <trkpt lat="44.58549" lon="2.37595">
        <ele>609.8</ele>
        <time>2018-04-16T07:38:12.000Z</time>
      </trkpt>
      <trkpt lat="44.58538" lon="2.37599">
        <ele>610.58</ele>
        <time>2018-04-16T07:38:22.000Z</time>
      </trkpt>
      <trkpt lat="44.58528" lon="2.37602">
        <ele>611.17</ele>
        <time>2018-04-16T07:38:32.000Z</time>
      </trkpt>
      <trkpt lat="44.58518" lon="2.37604">
        <ele>612.07</ele>
        <time>2018-04-16T07:38:42.000Z</time>
      </trkpt>
      <trkpt lat="44.58508" lon="2.37608">
        <ele>613.31</ele>
        <time>2018-04-16T07:38:52.000Z</time>
      </trkpt>
      <trkpt lat="44.58499" lon="2.37611">
        <ele>613.79</ele>
        <time>2018-04-16T07:39:02.000Z</time>
      </trkpt>
      <trkpt lat="44.58487" lon="2.37616">
        <ele>614.43</ele>
        <time>2018-04-16T07:39:12.000Z</time>
      </trkpt>
      <trkpt lat="44.58477" lon="2.3762">
        <ele>614.86</ele>
        <time>2018-04-16T07:39:22.000Z</time>
      </trkpt>
      <trkpt lat="44.58467" lon="2.37624">
        <ele>615.25</ele>
        <time>2018-04-16T07:39:32.000Z</time>
      </trkpt>
      <trkpt lat="44.58456" lon="2.37631">
        <ele>615.73</ele>
        <time>2018-04-16T07:39:42.000Z</time>
      </trkpt>
      <trkpt lat="44.58446" lon="2.37637">
        <ele>615.67</ele>
        <time>2018-04-16T07:39:52.000Z</time>
      </trkpt>
      <trkpt lat="44.58435" lon="2.37643">
        <ele>616.28</ele>
        <time>2018-04-16T07:40:02.000Z</time>
      </trkpt>
      <trkpt lat="44.58425" lon="2.3765">
        <ele>616.55</ele>
        <time>2018-04-16T07:40:12.000Z</time>
      </trkpt>
      <trkpt lat="44.58416" lon="2.37657">
        <ele>617.08</ele>
        <time>2018-04-16T07:40:22.000Z</time>
      </trkpt>
      <trkpt lat="44.58405" lon="2.37664">
        <ele>617</ele>
        <time>2018-04-16T07:40:32.000Z</time>
      </trkpt>
      <trkpt lat="44.58394" lon="2.3767">
        <ele>617.11</ele>
        <time>2018-04-16T07:40:42.000Z</time>
      </trkpt>
      <trkpt lat="44.58384" lon="2.37676">
        <ele>616.58</ele>
        <time>2018-04-16T07:40:52.000Z</time>
      </trkpt>
      <trkpt lat="44.58372" lon="2.37679">
        <ele>616.47</ele>
        <time>2018-04-16T07:41:02.000Z</time>
      </trkpt>
      <trkpt lat="44.58362" lon="2.37683">
        <ele>616.72</ele>
        <time>2018-04-16T07:41:12.000Z</time>
      </trkpt>
      <trkpt lat="44.58351" lon="2.37683">
        <ele>616.29</ele>
        <time>2018-04-16T07:41:22.000Z</time>
      </trkpt>
      <trkpt lat="44.58341" lon="2.37684">
        <ele>616.51</ele>
        <time>2018-04-16T07:41:32.000Z</time>
      </trkpt>
      <trkpt lat="44.5833" lon="2.37685">
        <ele>616</ele>
        <time>2018-04-16T07:41:42.000Z</time>
      </trkpt>
      <trkpt lat="44.58317" lon="2.37685">
        <ele>616.07</ele>
        <time>2018-04-16T07:41:52.000Z</time>
      </trkpt>
      <trkpt lat="44.58306" lon="2.37685">
        <ele>616.06</ele>
        <time>2018-04-16T07:42:02.000Z</time>
      </trkpt>
      <trkpt lat="44.58295" lon="2.37683">
        <ele>616.26</ele>
        <time>2018-04-16T07:42:12.000Z</time>
      </trkpt>
      <trkpt lat="44.58285" lon="2.37679">
        <ele>616.38</ele>
        <time>2018-04-16T07:42:22.000Z</time>
      </trkpt>
      <trkpt lat="44.58274" lon="2.37676">
        <ele>616.53</ele>
        <time>2018-04-16T07:42:32.000Z</time>
      </trkpt>
      <trkpt lat="44.58265" lon="2.3767">
        <ele>616.78</ele>
        <time>2018-04-16T07:42:42.000Z</time>
      </trkpt>
      <trkpt lat="44.58256" lon="2.37664">
        <ele>616.97</ele>
        <time>2018-04-16T07:42:52.000Z</time>
      </trkpt>
      <trkpt lat="44.58245" lon="2.37659">
        <ele>617.64</ele>
        <time>2018-04-16T07:43:02.000Z</time>
      </trkpt>
      <trkpt lat="44.58235" lon="2.37654">
        <ele>618.78</ele>
        <time>2018-04-16T07:43:12.000Z</time>
      </trkpt>
      <trkpt lat="44.58225" lon="2.37648">
        <ele>619.54</ele>
        <time>2018-04-16T07:43:22.000Z</time>
      </trkpt>
      <trkpt lat="44.58214" lon="2.37642">
        <ele>620.41</ele>
        <time>2018-04-16T07:43:32.000Z</time>
      </trkpt>
      <trkpt lat="44.58205" lon="2.37636">
        <ele>621.88</ele>
        <time>2018-04-16T07:43:42.000Z</time>
      </trkpt>
      <trkpt lat="44.58195" lon="2.37632">
        <ele>622.62</ele>
        <time>2018-04-16T07:43:52.000Z</time>
      </trkpt>
      <trkpt lat="44.58185" lon="2.37626">
        <ele>623.27</ele>
        <time>2018-04-16T07:44:02.000Z</time>
      </trkpt>
      <trkpt lat="44.58176" lon="2.37621">
        <ele>624</ele>
        <time>2018-04-16T07:44:12.000Z</time>
      </trkpt>
      <trkpt lat="44.58166" lon="2.37616">
        <ele>624.69</ele>
        <time>2018-04-16T07:44:22.000Z</time>
      </trkpt>
      <trkpt lat="44.58155" lon="2.37611">
        <ele>625.42</ele>
        <time>2018-04-16T07:44:32.000Z</time>
      </trkpt>
      <trkpt lat="44.58145" lon="2.37606">
        <ele>626.26</ele>
        <time>2018-04-16T07:44:42.000Z</time>
      </trkpt>
      <trkpt lat="44.58135" lon="2.37601">
        <ele>627.14</ele>
        <time>2018-04-16T07:44:52.000Z</time>
      </trkpt>
      <trkpt lat="44.58126" lon="2.37597">
        <ele>627.46</ele>
        <time>2018-04-16T07:45:02.000Z</time>
      </trkpt>
      <trkpt lat="44.58117" lon="2.37591">
        <ele>628.08</ele>
        <time>2018-04-16T07:45:12.000Z</time>
      </trkpt>
      <trkpt lat="44.58106" lon="2.37587">
        <ele>627.98</ele>
        <time>2018-04-16T07:45:22.000Z</time>
      </trkpt>
      <trkpt lat="44.58094" lon="2.37582">
        <ele>628.06</ele>
        <time>2018-04-16T07:45:32.000Z</time>
      </trkpt>
      <trkpt lat="44.58084" lon="2.37578">
        <ele>628.71</ele>
        <time>2018-04-16T07:45:42.000Z</time>
      </trkpt>
      <trkpt lat="44.58074" lon="2.37573">
        <ele>629.15</ele>
        <time>2018-04-16T07:45:52.000Z</time>
      </trkpt>
      <trkpt lat="44.58064" lon="2.37568">
        <ele>629.35</ele>
        <time>2018-04-16T07:46:02.000Z</time>
      </trkpt>
      <trkpt lat="44.58053" lon="2.37565">
        <ele>630.12</ele>
        <time>2018-04-16T07:46:12.000Z</time>
      </trkpt>
      <trkpt lat="44.58039" lon="2.37561">
        <ele>630.75</ele>
        <time>2018-04-16T07:46:22.000Z</time>
      </trkpt>
      <trkpt lat="44.58028" lon="2.37563">
        <ele>631.65</ele>
        <time>2018-04-16T07:46:32.000Z</time>
      </trkpt>
      <trkpt lat="44.58017" lon="2.37566">
        <ele>632.74</ele>
        <time>2018-04-16T07:46:42.000Z</time>
      </trkpt>
      <trkpt lat="44.58007" lon="2.3757">
        <ele>634.01</ele>
        <time>2018-04-16T07:46:52.000Z</time>
      </trkpt>
      <trkpt lat="44.57997" lon="2.37575">
        <ele>634.3</ele>
        <time>2018-04-16T07:47:02.000Z</time>
      </trkpt>
      <trkpt lat="44.57987" lon="2.3758">
        <ele>634.69</ele>
        <time>2018-04-16T07:47:12.000Z</time>
      </trkpt>
      <trkpt lat="44.57975" lon="2.37583">
        <ele>635.5</ele>
        <time>2018-04-16T07:47:22.000Z</time>
      </trkpt>
      <trkpt lat="44.57963" lon="2.37586">
        <ele>635.8</ele>
        <time>2018-04-16T07:47:32.000Z</time>
      </trkpt>
      <trkpt lat="44.57955" lon="2.3759">
        <ele>636.35</ele>
        <time>2018-04-16T07:47:42.000Z</time>
      </trkpt>
      <trkpt lat="44.57947" lon="2.37596">
        <ele>637.02</ele>
        <time>2018-04-16T07:47:52.000Z</time>
      </trkpt>
      <trkpt lat="44.57942" lon="2.37608">
        <ele>637.56</ele>
        <time>2018-04-16T07:48:02.000Z</time>
      </trkpt>
      <trkpt lat="44.57938" lon="2.37623">
        <ele>638.1</ele>
        <time>2018-04-16T07:48:12.000Z</time>
      </trkpt>
      <trkpt lat="44.57936" lon="2.37639">
        <ele>637.89</ele>
        <time>2018-04-16T07:48:22.000Z</time>
      </trkpt>
      <trkpt lat="44.57935" lon="2.37655">
        <ele>638.12</ele>
        <time>2018-04-16T07:48:32.000Z</time>
      </trkpt>
      <trkpt lat="44.57936" lon="2.37672">
        <ele>638.47</ele>
        <time>2018-04-16T07:48:42.000Z</time>
      </trkpt>
      <trkpt lat="44.57937" lon="2.37686">
        <ele>638.89</ele>
        <time>2018-04-16T07:48:52.000Z</time>
      </trkpt>
      <trkpt lat="44.57936" lon="2.37704">
        <ele>638.9</ele>
        <time>2018-04-16T07:49:02.000Z</time>
      </trkpt>
      <trkpt lat="44.57934" lon="2.3772">
        <ele>639.39</ele>
        <time>2018-04-16T07:49:12.000Z</time>
      </trkpt>
      <trkpt lat="44.57932" lon="2.37732">
        <ele>639.72</ele>
        <time>2018-04-16T07:49:22.000Z</time>
      </trkpt>
      <trkpt lat="44.57929" lon="2.37748">
        <ele>639.57</ele>
        <time>2018-04-16T07:49:32.000Z</time>
      </trkpt>
      <trkpt lat="44.57927" lon="2.37764">
        <ele>639.54</ele>
        <time>2018-04-16T07:49:42.000Z</time>
      </trkpt>
      <trkpt lat="44.57924" lon="2.37782">
        <ele>639.81</ele>
        <time>2018-04-16T07:49:52.000Z</time>
      </trkpt>
      <trkpt lat="44.57924" lon="2.37799">
        <ele>640.3</ele>
        <time>2018-04-16T07:50:02.000Z</time>
      </trkpt>
      <trkpt lat="44.57923" lon="2.37813">
        <ele>639.91</ele>
        <time>2018-04-16T07:50:12.000Z</time>
      </trkpt>
      <trkpt lat="44.57923" lon="2.37817">
        <ele>640.14</ele>
        <time>2018-04-16T07:50:22.000Z</time>
      </trkpt>
      <trkpt lat="44.57922" lon="2.37828">
        <ele>640.09</ele>
        <time>2018-04-16T07:50:32.000Z</time>
      </trkpt>
      <trkpt lat="44.5792" lon="2.37841">
        <ele>640.04</ele>
        <time>2018-04-16T07:50:42.000Z</time>
      </trkpt>
      <trkpt lat="44.57917" lon="2.37854">
        <ele>639.68</ele>
        <time>2018-04-16T07:50:52.000Z</time>
      </trkpt>
      <trkpt lat="44.57915" lon="2.3787">
        <ele>640.1</ele>
        <time>2018-04-16T07:51:02.000Z</time>
      </trkpt>
      <trkpt lat="44.57911" lon="2.37885">
        <ele>639.94</ele>
        <time>2018-04-16T07:51:12.000Z</time>
      </trkpt>
      <trkpt lat="44.57908" lon="2.37901">
        <ele>639.62</ele>
        <time>2018-04-16T07:51:22.000Z</time>
      </trkpt>
      <trkpt lat="44.57906" lon="2.37917">
        <ele>639.28</ele>
        <time>2018-04-16T07:51:32.000Z</time>
      </trkpt>
      <trkpt lat="44.57902" lon="2.37933">
        <ele>639.39</ele>
        <time>2018-04-16T07:51:42.000Z</time>
      </trkpt>
      <trkpt lat="44.57899" lon="2.3795">
        <ele>639.37</ele>
        <time>2018-04-16T07:51:52.000Z</time>
      </trkpt>
      <trkpt lat="44.57894" lon="2.37966">
        <ele>639.27</ele>
        <time>2018-04-16T07:52:02.000Z</time>
      </trkpt>
      <trkpt lat="44.57889" lon="2.37981">
        <ele>639.66</ele>
        <time>2018-04-16T07:52:12.000Z</time>
      </trkpt>
      <trkpt lat="44.57882" lon="2.37998">
        <ele>639.98</ele>
        <time>2018-04-16T07:52:22.000Z</time>
      </trkpt>
      <trkpt lat="44.57875" lon="2.38012">
        <ele>639.84</ele>
        <time>2018-04-16T07:52:32.000Z</time>
      </trkpt>
      <trkpt lat="44.5787" lon="2.38026">
        <ele>639.91</ele>
        <time>2018-04-16T07:52:42.000Z</time>
      </trkpt>
      <trkpt lat="44.57864" lon="2.3804">
        <ele>640.08</ele>
        <time>2018-04-16T07:52:52.000Z</time>
      </trkpt>
      <trkpt lat="44.57858" lon="2.38054">
        <ele>640.55</ele>
        <time>2018-04-16T07:53:02.000Z</time>
      </trkpt>
      <trkpt lat="44.57851" lon="2.38069">
        <ele>641</ele>
        <time>2018-04-16T07:53:12.000Z</time>
      </trkpt>
      <trkpt lat="44.57845" lon="2.38084">
        <ele>641.03</ele>
        <time>2018-04-16T07:53:22.000Z</time>
      </trkpt>
      <trkpt lat="44.57841" lon="2.38099">
        <ele>641.5</ele>
        <time>2018-04-16T07:53:32.000Z</time>
      </trkpt>
      <trkpt lat="44.57836" lon="2.38111">
        <ele>641.76</ele>
        <time>2018-04-16T07:53:42.000Z</time>
      </trkpt>
      <trkpt lat="44.5783" lon="2.38126">
        <ele>642.32</ele>
        <time>2018-04-16T07:53:52.000Z</time>
      </trkpt>
      <trkpt lat="44.57824" lon="2.38141">
        <ele>642.67</ele>
        <time>2018-04-16T07:54:02.000Z</time>
      </trkpt>
      <trkpt lat="44.57817" lon="2.38155">
        <ele>643.28</ele>
        <time>2018-04-16T07:54:12.000Z</time>
      </trkpt>
      <trkpt lat="44.57811" lon="2.3817">
        <ele>643.66</ele>
        <time>2018-04-16T07:54:22.000Z</time>
      </trkpt>
      <trkpt lat="44.57806" lon="2.38184">
        <ele>643.94</ele>
        <time>2018-04-16T07:54:32.000Z</time>
      </trkpt>
      <trkpt lat="44.578" lon="2.38197">
        <ele>643.91</ele>
        <time>2018-04-16T07:54:42.000Z</time>
      </trkpt>
      <trkpt lat="44.57793" lon="2.38211">
        <ele>643.42</ele>
        <time>2018-04-16T07:54:52.000Z</time>
      </trkpt>
      <trkpt lat="44.57788" lon="2.38226">
        <ele>643.45</ele>
        <time>2018-04-16T07:55:02.000Z</time>
      </trkpt>
      <trkpt lat="44.57781" lon="2.38243">
        <ele>643.69</ele>
        <time>2018-04-16T07:55:12.000Z</time>
      </trkpt>
      <trkpt lat="44.57773" lon="2.38261">
        <ele>643.59</ele>
        <time>2018-04-16T07:55:22.000Z</time>
      </trkpt>
      <trkpt lat="44.57767" lon="2.38275">
        <ele>643.56</ele>
        <time>2018-04-16T07:55:32.000Z</time>
      </trkpt>
      <trkpt lat="44.57762" lon="2.38289">
        <ele>644</ele>
        <time>2018-04-16T07:55:42.000Z</time>
      </trkpt>
      <trkpt lat="44.57756" lon="2.38301">
        <ele>644.2</ele>
        <time>2018-04-16T07:55:52.000Z</time>
      </trkpt>
      <trkpt lat="44.5775" lon="2.38315">
        <ele>644.29</ele>
        <time>2018-04-16T07:56:02.000Z</time>
      </trkpt>
      <trkpt lat="44.57744" lon="2.3833">
        <ele>644.77</ele>
        <time>2018-04-16T07:56:12.000Z</time>
      </trkpt>
      <trkpt lat="44.57739" lon="2.38343">
        <ele>645.16</ele>
        <time>2018-04-16T07:56:22.000Z</time>
      </trkpt>
      <trkpt lat="44.57732" lon="2.38357">
        <ele>645.03</ele>
        <time>2018-04-16T07:56:32.000Z</time>
      </trkpt>
      <trkpt lat="44.57725" lon="2.3837">
        <ele>645.33</ele>
        <time>2018-04-16T07:56:42.000Z</time>
      </trkpt>
      <trkpt lat="44.57718" lon="2.38384">
        <ele>644.9</ele>
        <time>2018-04-16T07:56:52.000Z</time>
      </trkpt>
      <trkpt lat="44.57713" lon="2.38397">
        <ele>645.14</ele>
        <time>2018-04-16T07:57:02.000Z</time>
      </trkpt>
      <trkpt lat="44.57706" lon="2.38407">
        <ele>645.69</ele>
        <time>2018-04-16T07:57:12.000Z</time>
      </trkpt>
      <trkpt lat="44.57696" lon="2.38418">
        <ele>646.91</ele>
        <time>2018-04-16T07:57:22.000Z</time>
      </trkpt>
      <trkpt lat="44.57687" lon="2.38426">
        <ele>647.83</ele>
        <time>2018-04-16T07:57:32.000Z</time>
      </trkpt>
      <trkpt lat="44.57677" lon="2.38435">
        <ele>648.63</ele>
        <time>2018-04-16T07:57:42.000Z</time>
      </trkpt>
      <trkpt lat="44.57667" lon="2.38442">
        <ele>649.73</ele>
        <time>2018-04-16T07:57:52.000Z</time>
      </trkpt>
      <trkpt lat="44.57656" lon="2.38447">
        <ele>650.89</ele>
        <time>2018-04-16T07:58:02.000Z</time>
      </trkpt>
      <trkpt lat="44.57646" lon="2.38453">
        <ele>651.57</ele>
        <time>2018-04-16T07:58:12.000Z</time>
      </trkpt>
      <trkpt lat="44.57636" lon="2.38459">
        <ele>651.97</ele>
        <time>2018-04-16T07:58:22.000Z</time>
      </trkpt>
      <trkpt lat="44.57626" lon="2.38467">
        <ele>652.42</ele>
        <time>2018-04-16T07:58:32.000Z</time>
      </trkpt>
      <trkpt lat="44.57617" lon="2.38474">
        <ele>652.82</ele>
        <time>2018-04-16T07:58:42.000Z</time>
      </trkpt>
      <trkpt lat="44.57606" lon="2.38484">
        <ele>652.92</ele>
        <time>2018-04-16T07:58:52.000Z</time>
      </trkpt>
      <trkpt lat="44.57597" lon="2.38493">
        <ele>653.72</ele>
        <time>2018-04-16T07:59:02.000Z</time>
      </trkpt>
      <trkpt lat="44.57586" lon="2.38502">
        <ele>653.5</ele>
        <time>2018-04-16T07:59:12.000Z</time>
      </trkpt>
      <trkpt lat="44.57576" lon="2.38512">
        <ele>653.43</ele>
        <time>2018-04-16T07:59:22.000Z</time>
      </trkpt>
      <trkpt lat="44.57565" lon="2.38521">
        <ele>653.42</ele>
        <time>2018-04-16T07:59:32.000Z</time>
      </trkpt>
      <trkpt lat="44.57556" lon="2.3853">
        <ele>653.34</ele>
        <time>2018-04-16T07:59:42.000Z</time>
      </trkpt>
      <trkpt lat="44.57546" lon="2.38541">
        <ele>653.48</ele>
        <time>2018-04-16T07:59:52.000Z</time>
      </trkpt>
      <trkpt lat="44.57537" lon="2.38552">
        <ele>653.39</ele>
        <time>2018-04-16T08:00:02.000Z</time>
      </trkpt>
      <trkpt lat="44.57528" lon="2.38563">
        <ele>653.03</ele>
        <time>2018-04-16T08:00:12.000Z</time>
      </trkpt>
      <trkpt lat="44.57521" lon="2.38577">
        <ele>653.03</ele>
        <time>2018-04-16T08:00:22.000Z</time>
      </trkpt>
      <trkpt lat="44.57515" lon="2.38589">
        <ele>653.02</ele>
        <time>2018-04-16T08:00:32.000Z</time>
      </trkpt>
      <trkpt lat="44.57509" lon="2.38603">
        <ele>651.59</ele>
        <time>2018-04-16T08:00:42.000Z</time>
      </trkpt>
      <trkpt lat="44.57501" lon="2.38615">
        <ele>650.97</ele>
        <time>2018-04-16T08:00:52.000Z</time>
      </trkpt>
      <trkpt lat="44.57492" lon="2.38623">
        <ele>651.98</ele>
        <time>2018-04-16T08:01:02.000Z</time>
      </trkpt>
      <trkpt lat="44.57481" lon="2.38628">
        <ele>651.4</ele>
        <time>2018-04-16T08:01:12.000Z</time>
      </trkpt>
      <trkpt lat="44.57469" lon="2.38634">
        <ele>650.91</ele>
        <time>2018-04-16T08:01:22.000Z</time>
      </trkpt>
      <trkpt lat="44.57459" lon="2.38641">
        <ele>649.69</ele>
        <time>2018-04-16T08:01:32.000Z</time>
      </trkpt>
      <trkpt lat="44.57448" lon="2.38648">
        <ele>649.21</ele>
        <time>2018-04-16T08:01:42.000Z</time>
      </trkpt>
      <trkpt lat="44.57437" lon="2.38653">
        <ele>648.75</ele>
        <time>2018-04-16T08:01:52.000Z</time>
      </trkpt>
      <trkpt lat="44.57425" lon="2.38657">
        <ele>648.35</ele>
        <time>2018-04-16T08:02:02.000Z</time>
      </trkpt>
      <trkpt lat="44.57415" lon="2.38658">
        <ele>648.08</ele>
        <time>2018-04-16T08:02:12.000Z</time>
      </trkpt>
      <trkpt lat="44.57404" lon="2.38653">
        <ele>648.18</ele>
        <time>2018-04-16T08:02:22.000Z</time>
      </trkpt>
      <trkpt lat="44.57394" lon="2.38644">
        <ele>648.12</ele>
        <time>2018-04-16T08:02:32.000Z</time>
      </trkpt>
      <trkpt lat="44.57384" lon="2.38636">
        <ele>647.89</ele>
        <time>2018-04-16T08:02:42.000Z</time>
      </trkpt>
      <trkpt lat="44.57374" lon="2.38628">
        <ele>647.95</ele>
        <time>2018-04-16T08:02:52.000Z</time>
      </trkpt>
      <trkpt lat="44.57364" lon="2.3862">
        <ele>647.87</ele>
        <time>2018-04-16T08:03:02.000Z</time>
      </trkpt>
      <trkpt lat="44.57353" lon="2.38612">
        <ele>647.98</ele>
        <time>2018-04-16T08:03:12.000Z</time>
      </trkpt>
      <trkpt lat="44.57342" lon="2.38602">
        <ele>647.25</ele>
        <time>2018-04-16T08:03:22.000Z</time>
      </trkpt>
      <trkpt lat="44.57333" lon="2.38592">
        <ele>645.29</ele>
        <time>2018-04-16T08:03:32.000Z</time>
      </trkpt>
      <trkpt lat="44.57324" lon="2.38585">
        <ele>645.29</ele>
        <time>2018-04-16T08:03:42.000Z</time>
      </trkpt>
      <trkpt lat="44.57316" lon="2.38578">
        <ele>644.89</ele>
        <time>2018-04-16T08:03:52.000Z</time>
      </trkpt>
      <trkpt lat="44.57307" lon="2.38568">
        <ele>643.42</ele>
        <time>2018-04-16T08:04:02.000Z</time>
      </trkpt>
      <trkpt lat="44.57298" lon="2.38556">
        <ele>642.88</ele>
        <time>2018-04-16T08:04:12.000Z</time>
      </trkpt>
      <trkpt lat="44.57287" lon="2.38544">
        <ele>642.28</ele>
        <time>2018-04-16T08:04:22.000Z</time>
      </trkpt>
      <trkpt lat="44.57279" lon="2.38532">
        <ele>642.04</ele>
        <time>2018-04-16T08:04:32.000Z</time>
      </trkpt>
      <trkpt lat="44.57271" lon="2.38519">
        <ele>641.63</ele>
        <time>2018-04-16T08:04:42.000Z</time>
      </trkpt>
      <trkpt lat="44.57263" lon="2.38505">
        <ele>641.46</ele>
        <time>2018-04-16T08:04:52.000Z</time>
      </trkpt>
      <trkpt lat="44.57256" lon="2.38492">
        <ele>641.95</ele>
        <time>2018-04-16T08:05:02.000Z</time>
      </trkpt>
      <trkpt lat="44.5725" lon="2.3848">
        <ele>642.01</ele>
        <time>2018-04-16T08:05:12.000Z</time>
      </trkpt>
      <trkpt lat="44.57242" lon="2.38466">
        <ele>641.37</ele>
        <time>2018-04-16T08:05:22.000Z</time>
      </trkpt>
      <trkpt lat="44.57235" lon="2.38451">
        <ele>640.87</ele>
        <time>2018-04-16T08:05:32.000Z</time>
      </trkpt>
      <trkpt lat="44.57229" lon="2.38437">
        <ele>640.39</ele>
        <time>2018-04-16T08:05:42.000Z</time>
      </trkpt>
      <trkpt lat="44.57225" lon="2.3842">
        <ele>640.03</ele>
        <time>2018-04-16T08:05:52.000Z</time>
      </trkpt>
      <trkpt lat="44.57222" lon="2.38405">
        <ele>639.54</ele>
        <time>2018-04-16T08:06:02.000Z</time>
      </trkpt>
      <trkpt lat="44.57221" lon="2.38388">
        <ele>639.17</ele>
        <time>2018-04-16T08:06:12.000Z</time>
      </trkpt>
      <trkpt lat="44.57219" lon="2.38372">
        <ele>638.92</ele>
        <time>2018-04-16T08:06:22.000Z</time>
      </trkpt>
      <trkpt lat="44.57219" lon="2.38356">
        <ele>638.17</ele>
        <time>2018-04-16T08:06:32.000Z</time>
      </trkpt>
      <trkpt lat="44.57222" lon="2.38338">
        <ele>638.14</ele>
        <time>2018-04-16T08:06:42.000Z</time>
      </trkpt>
      <trkpt lat="44.57223" lon="2.38321">
        <ele>637.81</ele>
        <time>2018-04-16T08:06:52.000Z</time>
      </trkpt>
      <trkpt lat="44.57225" lon="2.38305">
        <ele>637.63</ele>
        <time>2018-04-16T08:07:02.000Z</time>
      </trkpt>
      <trkpt lat="44.57228" lon="2.38287">
        <ele>637.61</ele>
        <time>2018-04-16T08:07:12.000Z</time>
      </trkpt>
      <trkpt lat="44.5723" lon="2.38269">
        <ele>637.53</ele>
        <time>2018-04-16T08:07:22.000Z</time>
      </trkpt>
      <trkpt lat="44.57232" lon="2.38253">
        <ele>637.52</ele>
        <time>2018-04-16T08:07:32.000Z</time>
      </trkpt>
      <trkpt lat="44.57236" lon="2.38236">
        <ele>637.69</ele>
        <time>2018-04-16T08:07:42.000Z</time>
      </trkpt>
      <trkpt lat="44.57238" lon="2.3822">
        <ele>637.97</ele>
        <time>2018-04-16T08:07:52.000Z</time>
      </trkpt>
      <trkpt lat="44.57239" lon="2.38203">
        <ele>638.23</ele>
        <time>2018-04-16T08:08:02.000Z</time>
      </trkpt>
      <trkpt lat="44.57239" lon="2.38188">
        <ele>638.08</ele>
        <time>2018-04-16T08:08:12.000Z</time>
      </trkpt>
      <trkpt lat="44.57237" lon="2.38173">
        <ele>638.24</ele>
        <time>2018-04-16T08:08:22.000Z</time>
      </trkpt>
      <trkpt lat="44.5723" lon="2.38158">
        <ele>638.69</ele>
        <time>2018-04-16T08:08:32.000Z</time>
      </trkpt>
      <trkpt lat="44.5722" lon="2.38146">
        <ele>638.53</ele>
        <time>2018-04-16T08:08:42.000Z</time>
      </trkpt>
      <trkpt lat="44.57211" lon="2.38138">
        <ele>638.98</ele>
        <time>2018-04-16T08:08:52.000Z</time>
      </trkpt>
      <trkpt lat="44.57199" lon="2.38132">
        <ele>638.22</ele>
        <time>2018-04-16T08:09:02.000Z</time>
      </trkpt>
      <trkpt lat="44.57188" lon="2.38128">
        <ele>639.24</ele>
        <time>2018-04-16T08:09:12.000Z</time>
      </trkpt>
      <trkpt lat="44.57178" lon="2.38123">
        <ele>639.38</ele>
        <time>2018-04-16T08:09:22.000Z</time>
      </trkpt>
      <trkpt lat="44.5717" lon="2.38119">
        <ele>640.52</ele>
        <time>2018-04-16T08:09:32.000Z</time>
      </trkpt>
      <trkpt lat="44.57161" lon="2.38111">
        <ele>640.57</ele>
        <time>2018-04-16T08:09:42.000Z</time>
      </trkpt>
      <trkpt lat="44.57153" lon="2.38103">
        <ele>641.06</ele>
        <time>2018-04-16T08:09:52.000Z</time>
      </trkpt>
      <trkpt lat="44.57151" lon="2.38101">
        <ele>640.97</ele>
        <time>2018-04-16T08:10:02.000Z</time>
      </trkpt>
      <trkpt lat="44.5715" lon="2.38101">
        <ele>640.65</ele>
        <time>2018-04-16T08:10:17.000Z</time>
      </trkpt>
      <trkpt lat="44.57149" lon="2.38102">
        <ele>640.75</ele>
        <time>2018-04-16T08:10:30.000Z</time>
      </trkpt>
      <trkpt lat="44.57148" lon="2.38101">
        <ele>641.05</ele>
        <time>2018-04-16T08:10:40.000Z</time>
      </trkpt>
      <trkpt lat="44.57142" lon="2.3809">
        <ele>641.35</ele>
        <time>2018-04-16T08:10:50.000Z</time>
      </trkpt>
      <trkpt lat="44.57133" lon="2.38079">
        <ele>641.16</ele>
        <time>2018-04-16T08:11:00.000Z</time>
      </trkpt>
      <trkpt lat="44.57126" lon="2.38073">
        <ele>640.99</ele>
        <time>2018-04-16T08:11:10.000Z</time>
      </trkpt>
      <trkpt lat="44.57114" lon="2.38064">
        <ele>640.64</ele>
        <time>2018-04-16T08:11:20.000Z</time>
      </trkpt>
      <trkpt lat="44.57103" lon="2.38056">
        <ele>640.37</ele>
        <time>2018-04-16T08:11:30.000Z</time>
      </trkpt>
      <trkpt lat="44.57092" lon="2.38051">
        <ele>640.07</ele>
        <time>2018-04-16T08:11:40.000Z</time>
      </trkpt>
      <trkpt lat="44.57083" lon="2.38046">
        <ele>639.97</ele>
        <time>2018-04-16T08:11:50.000Z</time>
      </trkpt>
      <trkpt lat="44.57072" lon="2.38043">
        <ele>639.62</ele>
        <time>2018-04-16T08:12:00.000Z</time>
      </trkpt>
      <trkpt lat="44.57065" lon="2.38039">
        <ele>639.06</ele>
        <time>2018-04-16T08:12:10.000Z</time>
      </trkpt>
      <trkpt lat="44.57057" lon="2.38036">
        <ele>638.15</ele>
        <time>2018-04-16T08:12:20.000Z</time>
      </trkpt>
      <trkpt lat="44.57046" lon="2.38032">
        <ele>637.66</ele>
        <time>2018-04-16T08:12:30.000Z</time>
      </trkpt>
      <trkpt lat="44.57038" lon="2.38028">
        <ele>636.45</ele>
        <time>2018-04-16T08:12:40.000Z</time>
      </trkpt>
      <trkpt lat="44.57029" lon="2.38023">
        <ele>636.11</ele>
        <time>2018-04-16T08:12:50.000Z</time>
      </trkpt>
      <trkpt lat="44.57019" lon="2.3802">
        <ele>635.72</ele>
        <time>2018-04-16T08:13:00.000Z</time>
      </trkpt>
      <trkpt lat="44.57008" lon="2.38017">
        <ele>635.38</ele>
        <time>2018-04-16T08:13:10.000Z</time>
      </trkpt>
      <trkpt lat="44.56999" lon="2.38012">
        <ele>634.53</ele>
        <time>2018-04-16T08:13:20.000Z</time>
      </trkpt>
      <trkpt lat="44.56983" lon="2.37997">
        <ele>633.78</ele>
        <time>2018-04-16T08:13:30.000Z</time>
      </trkpt>
      <trkpt lat="44.56968" lon="2.37976">
        <ele>633.73</ele>
        <time>2018-04-16T08:13:40.000Z</time>
      </trkpt>
      <trkpt lat="44.56957" lon="2.37959">
        <ele>633.6</ele>
        <time>2018-04-16T08:13:50.000Z</time>
      </trkpt>
      <trkpt lat="44.56948" lon="2.37944">
        <ele>632.86</ele>
        <time>2018-04-16T08:14:00.000Z</time>
      </trkpt>
      <trkpt lat="44.56941" lon="2.37929">
        <ele>631.78</ele>
        <time>2018-04-16T08:14:10.000Z</time>
      </trkpt>
      <trkpt lat="44.56934" lon="2.37913">
        <ele>630.06</ele>
        <time>2018-04-16T08:14:20.000Z</time>
      </trkpt>
      <trkpt lat="44.56927" lon="2.37899">
        <ele>628.67</ele>
        <time>2018-04-16T08:14:30.000Z</time>
      </trkpt>
      <trkpt lat="44.56921" lon="2.37888">
        <ele>627.38</ele>
        <time>2018-04-16T08:14:40.000Z</time>
      </trkpt>
      <trkpt lat="44.56912" lon="2.37872">
        <ele>626.05</ele>
        <time>2018-04-16T08:14:50.000Z</time>
      </trkpt>
      <trkpt lat="44.56904" lon="2.37857">
        <ele>624.61</ele>
        <time>2018-04-16T08:15:00.000Z</time>
      </trkpt>
      <trkpt lat="44.56896" lon="2.37849">
        <ele>623.58</ele>
        <time>2018-04-16T08:15:10.000Z</time>
      </trkpt>
      <trkpt lat="44.56891" lon="2.3786">
        <ele>622.09</ele>
        <time>2018-04-16T08:15:20.000Z</time>
      </trkpt>
      <trkpt lat="44.56887" lon="2.37871">
        <ele>620.32</ele>
        <time>2018-04-16T08:15:30.000Z</time>
      </trkpt>
      <trkpt lat="44.5688" lon="2.37875">
        <ele>618.84</ele>
        <time>2018-04-16T08:15:40.000Z</time>
      </trkpt>
      <trkpt lat="44.56878" lon="2.37875">
        <ele>618.53</ele>
        <time>2018-04-16T08:15:50.000Z</time>
      </trkpt>
      <trkpt lat="44.56876" lon="2.37874">
        <ele>618.27</ele>
        <time>2018-04-16T08:16:16.000Z</time>
      </trkpt>
      <trkpt lat="44.56869" lon="2.37874">
        <ele>615.86</ele>
        <time>2018-04-16T08:16:26.000Z</time>
      </trkpt>
      <trkpt lat="44.56859" lon="2.37869">
        <ele>614.38</ele>
        <time>2018-04-16T08:16:36.000Z</time>
      </trkpt>
      <trkpt lat="44.5685" lon="2.37863">
        <ele>613.49</ele>
        <time>2018-04-16T08:16:46.000Z</time>
      </trkpt>
      <trkpt lat="44.56836" lon="2.37861">
        <ele>612.77</ele>
        <time>2018-04-16T08:16:56.000Z</time>
      </trkpt>
      <trkpt lat="44.56824" lon="2.37861">
        <ele>612.11</ele>
        <time>2018-04-16T08:17:06.000Z</time>
      </trkpt>
      <trkpt lat="44.56812" lon="2.3786">
        <ele>611.27</ele>
        <time>2018-04-16T08:17:16.000Z</time>
      </trkpt>
      <trkpt lat="44.56802" lon="2.37863">
        <ele>609.64</ele>
        <time>2018-04-16T08:17:26.000Z</time>
      </trkpt>
      <trkpt lat="44.56794" lon="2.37868">
        <ele>607.37</ele>
        <time>2018-04-16T08:17:36.000Z</time>
      </trkpt>
      <trkpt lat="44.56789" lon="2.37871">
        <ele>605.23</ele>
        <time>2018-04-16T08:17:46.000Z</time>
      </trkpt>
      <trkpt lat="44.56783" lon="2.37874">
        <ele>603.13</ele>
        <time>2018-04-16T08:17:56.000Z</time>
      </trkpt>
      <trkpt lat="44.56773" lon="2.37882">
        <ele>602.77</ele>
        <time>2018-04-16T08:18:06.000Z</time>
      </trkpt>
      <trkpt lat="44.56764" lon="2.37886">
        <ele>601.12</ele>
        <time>2018-04-16T08:18:16.000Z</time>
      </trkpt>
      <trkpt lat="44.56752" lon="2.37887">
        <ele>599.4</ele>
        <time>2018-04-16T08:18:26.000Z</time>
      </trkpt>
      <trkpt lat="44.56742" lon="2.37889">
        <ele>597.98</ele>
        <time>2018-04-16T08:18:36.000Z</time>
      </trkpt>
      <trkpt lat="44.56733" lon="2.3788">
        <ele>596.51</ele>
        <time>2018-04-16T08:18:46.000Z</time>
      </trkpt>
      <trkpt lat="44.56728" lon="2.37866">
        <ele>594.7</ele>
        <time>2018-04-16T08:18:56.000Z</time>
      </trkpt>
      <trkpt lat="44.56723" lon="2.3785">
        <ele>593.77</ele>
        <time>2018-04-16T08:19:06.000Z</time>
      </trkpt>
      <trkpt lat="44.56717" lon="2.37839">
        <ele>592.6</ele>
        <time>2018-04-16T08:19:16.000Z</time>
      </trkpt>
      <trkpt lat="44.56709" lon="2.37826">
        <ele>591.48</ele>
        <time>2018-04-16T08:19:26.000Z</time>
      </trkpt>
      <trkpt lat="44.56701" lon="2.37814">
        <ele>590.77</ele>
        <time>2018-04-16T08:19:36.000Z</time>
      </trkpt>
      <trkpt lat="44.56692" lon="2.37804">
        <ele>589.2</ele>
        <time>2018-04-16T08:19:46.000Z</time>
      </trkpt>
      <trkpt lat="44.56683" lon="2.37793">
        <ele>587.84</ele>
        <time>2018-04-16T08:19:56.000Z</time>
      </trkpt>
      <trkpt lat="44.56677" lon="2.37783">
        <ele>585.93</ele>
        <time>2018-04-16T08:20:06.000Z</time>
      </trkpt>
      <trkpt lat="44.5667" lon="2.37769">
        <ele>584.91</ele>
        <time>2018-04-16T08:20:16.000Z</time>
      </trkpt>
      <trkpt lat="44.56664" lon="2.37755">
        <ele>583.8</ele>
        <time>2018-04-16T08:20:26.000Z</time>
      </trkpt>
      <trkpt lat="44.56656" lon="2.37741">
        <ele>582.57</ele>
        <time>2018-04-16T08:20:36.000Z</time>
      </trkpt>
      <trkpt lat="44.56647" lon="2.37729">
        <ele>581.65</ele>
        <time>2018-04-16T08:20:46.000Z</time>
      </trkpt>
      <trkpt lat="44.56637" lon="2.37722">
        <ele>580.24</ele>
        <time>2018-04-16T08:20:56.000Z</time>
      </trkpt>
      <trkpt lat="44.56625" lon="2.3772">
        <ele>579.46</ele>
        <time>2018-04-16T08:21:06.000Z</time>
      </trkpt>
      <trkpt lat="44.56616" lon="2.37714">
        <ele>578.82</ele>
        <time>2018-04-16T08:21:16.000Z</time>
      </trkpt>
      <trkpt lat="44.56611" lon="2.37695">
        <ele>578.68</ele>
        <time>2018-04-16T08:21:26.000Z</time>
      </trkpt>
      <trkpt lat="44.56609" lon="2.37682">
        <ele>579.23</ele>
        <time>2018-04-16T08:21:36.000Z</time>
      </trkpt>
      <trkpt lat="44.56608" lon="2.37667">
        <ele>578.19</ele>
        <time>2018-04-16T08:21:46.000Z</time>
      </trkpt>
      <trkpt lat="44.56605" lon="2.37654">
        <ele>576.75</ele>
        <time>2018-04-16T08:21:56.000Z</time>
      </trkpt>
      <trkpt lat="44.56604" lon="2.37651">
        <ele>576.97</ele>
        <time>2018-04-16T08:22:06.000Z</time>
      </trkpt>
      <trkpt lat="44.56595" lon="2.3765">
        <ele>575.48</ele>
        <time>2018-04-16T08:22:16.000Z</time>
      </trkpt>
      <trkpt lat="44.56586" lon="2.37647">
        <ele>573.86</ele>
        <time>2018-04-16T08:22:26.000Z</time>
      </trkpt>
      <trkpt lat="44.56576" lon="2.37646">
        <ele>572.47</ele>
        <time>2018-04-16T08:22:36.000Z</time>
      </trkpt>
      <trkpt lat="44.56569" lon="2.37647">
        <ele>571.25</ele>
        <time>2018-04-16T08:22:46.000Z</time>
      </trkpt>
      <trkpt lat="44.56567" lon="2.37648">
        <ele>569.55</ele>
        <time>2018-04-16T08:22:56.000Z</time>
      </trkpt>
      <trkpt lat="44.56554" lon="2.37641">
        <ele>568.41</ele>
        <time>2018-04-16T08:23:07.000Z</time>
      </trkpt>
      <trkpt lat="44.56551" lon="2.3764">
        <ele>567.54</ele>
        <time>2018-04-16T08:23:17.000Z</time>
      </trkpt>
      <trkpt lat="44.56553" lon="2.37641">
        <ele>567.88</ele>
        <time>2018-04-16T08:23:27.000Z</time>
      </trkpt>
      <trkpt lat="44.56548" lon="2.3764">
        <ele>566.53</ele>
        <time>2018-04-16T08:23:37.000Z</time>
      </trkpt>
      <trkpt lat="44.5654" lon="2.37638">
        <ele>565.84</ele>
        <time>2018-04-16T08:23:47.000Z</time>
      </trkpt>
      <trkpt lat="44.56529" lon="2.37634">
        <ele>564.5</ele>
        <time>2018-04-16T08:23:57.000Z</time>
      </trkpt>
      <trkpt lat="44.5653" lon="2.37633">
        <ele>565.23</ele>
        <time>2018-04-16T08:24:08.000Z</time>
      </trkpt>
      <trkpt lat="44.56532" lon="2.37625">
        <ele>563.9</ele>
        <time>2018-04-16T08:24:18.000Z</time>
      </trkpt>
      <trkpt lat="44.56535" lon="2.37607">
        <ele>562.63</ele>
        <time>2018-04-16T08:24:28.000Z</time>
      </trkpt>
      <trkpt lat="44.56536" lon="2.37589">
        <ele>561.52</ele>
        <time>2018-04-16T08:24:38.000Z</time>
      </trkpt>
      <trkpt lat="44.56539" lon="2.37575">
        <ele>560.83</ele>
        <time>2018-04-16T08:24:48.000Z</time>
      </trkpt>
      <trkpt lat="44.56538" lon="2.37559">
        <ele>560.2</ele>
        <time>2018-04-16T08:24:58.000Z</time>
      </trkpt>
      <trkpt lat="44.56539" lon="2.37542">
        <ele>558.92</ele>
        <time>2018-04-16T08:25:08.000Z</time>
      </trkpt>
      <trkpt lat="44.56548" lon="2.3753">
        <ele>558.76</ele>
        <time>2018-04-16T08:25:18.000Z</time>
      </trkpt>
      <trkpt lat="44.56554" lon="2.3752">
        <ele>558.57</ele>
        <time>2018-04-16T08:25:28.000Z</time>
      </trkpt>
      <trkpt lat="44.56567" lon="2.37513">
        <ele>558.17</ele>
        <time>2018-04-16T08:25:38.000Z</time>
      </trkpt>
      <trkpt lat="44.56577" lon="2.37503">
        <ele>558.5</ele>
        <time>2018-04-16T08:25:48.000Z</time>
      </trkpt>
      <trkpt lat="44.56588" lon="2.3749">
        <ele>559.5</ele>
        <time>2018-04-16T08:25:58.000Z</time>
      </trkpt>
      <trkpt lat="44.56598" lon="2.37478">
        <ele>559.66</ele>
        <time>2018-04-16T08:26:08.000Z</time>
      </trkpt>
      <trkpt lat="44.56607" lon="2.37465">
        <ele>560.15</ele>
        <time>2018-04-16T08:26:18.000Z</time>
      </trkpt>
      <trkpt lat="44.56615" lon="2.37452">
        <ele>560.83</ele>
        <time>2018-04-16T08:26:28.000Z</time>
      </trkpt>
      <trkpt lat="44.56616" lon="2.37437">
        <ele>561.51</ele>
        <time>2018-04-16T08:26:38.000Z</time>
      </trkpt>
      <trkpt lat="44.56622" lon="2.37419">
        <ele>562.34</ele>
        <time>2018-04-16T08:26:48.000Z</time>
      </trkpt>
      <trkpt lat="44.56625" lon="2.37404">
        <ele>563.1</ele>
        <time>2018-04-16T08:26:58.000Z</time>
      </trkpt>
      <trkpt lat="44.56628" lon="2.37392">
        <ele>564.02</ele>
        <time>2018-04-16T08:27:08.000Z</time>
      </trkpt>
      <trkpt lat="44.56633" lon="2.37381">
        <ele>565.19</ele>
        <time>2018-04-16T08:27:18.000Z</time>
      </trkpt>
      <trkpt lat="44.56639" lon="2.37371">
        <ele>566.26</ele>
        <time>2018-04-16T08:27:28.000Z</time>
      </trkpt>
      <trkpt lat="44.56642" lon="2.37359">
        <ele>567.59</ele>
        <time>2018-04-16T08:27:38.000Z</time>
      </trkpt>
      <trkpt lat="44.56646" lon="2.37347">
        <ele>568.61</ele>
        <time>2018-04-16T08:27:48.000Z</time>
      </trkpt>
      <trkpt lat="44.56646" lon="2.37334">
        <ele>569.76</ele>
        <time>2018-04-16T08:27:58.000Z</time>
      </trkpt>
      <trkpt lat="44.56642" lon="2.37326">
        <ele>571.27</ele>
        <time>2018-04-16T08:28:08.000Z</time>
      </trkpt>
      <trkpt lat="44.56633" lon="2.37319">
        <ele>572.17</ele>
        <time>2018-04-16T08:28:18.000Z</time>
      </trkpt>
      <trkpt lat="44.56626" lon="2.37312">
        <ele>573.31</ele>
        <time>2018-04-16T08:28:28.000Z</time>
      </trkpt>
      <trkpt lat="44.5662" lon="2.37304">
        <ele>574.28</ele>
        <time>2018-04-16T08:28:38.000Z</time>
      </trkpt>
      <trkpt lat="44.56616" lon="2.37292">
        <ele>575.42</ele>
        <time>2018-04-16T08:28:48.000Z</time>
      </trkpt>
      <trkpt lat="44.56614" lon="2.37282">
        <ele>576.51</ele>
        <time>2018-04-16T08:28:58.000Z</time>
      </trkpt>
      <trkpt lat="44.56616" lon="2.37269">
        <ele>577.52</ele>
        <time>2018-04-16T08:29:08.000Z</time>
      </trkpt>
      <trkpt lat="44.56618" lon="2.37257">
        <ele>578.75</ele>
        <time>2018-04-16T08:29:18.000Z</time>
      </trkpt>
      <trkpt lat="44.56618" lon="2.37244">
        <ele>579.81</ele>
        <time>2018-04-16T08:29:28.000Z</time>
      </trkpt>
      <trkpt lat="44.56623" lon="2.37233">
        <ele>580.81</ele>
        <time>2018-04-16T08:29:38.000Z</time>
      </trkpt>
      <trkpt lat="44.56626" lon="2.37219">
        <ele>582.26</ele>
        <time>2018-04-16T08:29:48.000Z</time>
      </trkpt>
      <trkpt lat="44.56631" lon="2.37208">
        <ele>583.46</ele>
        <time>2018-04-16T08:29:58.000Z</time>
      </trkpt>
      <trkpt lat="44.56634" lon="2.37198">
        <ele>584.76</ele>
        <time>2018-04-16T08:30:08.000Z</time>
      </trkpt>
      <trkpt lat="44.56635" lon="2.37188">
        <ele>585.84</ele>
        <time>2018-04-16T08:30:18.000Z</time>
      </trkpt>
      <trkpt lat="44.56641" lon="2.3718">
        <ele>586.69</ele>
        <time>2018-04-16T08:30:28.000Z</time>
      </trkpt>
      <trkpt lat="44.56649" lon="2.37171">
        <ele>587.91</ele>
        <time>2018-04-16T08:30:38.000Z</time>
      </trkpt>
      <trkpt lat="44.56654" lon="2.37164">
        <ele>589.27</ele>
        <time>2018-04-16T08:30:48.000Z</time>
      </trkpt>
      <trkpt lat="44.56663" lon="2.37155">
        <ele>590.44</ele>
        <time>2018-04-16T08:30:58.000Z</time>
      </trkpt>
      <trkpt lat="44.5667" lon="2.37146">
        <ele>591.2</ele>
        <time>2018-04-16T08:31:08.000Z</time>
      </trkpt>
      <trkpt lat="44.56677" lon="2.37137">
        <ele>591.77</ele>
        <time>2018-04-16T08:31:18.000Z</time>
      </trkpt>
      <trkpt lat="44.56683" lon="2.37128">
        <ele>592.37</ele>
        <time>2018-04-16T08:31:28.000Z</time>
      </trkpt>
      <trkpt lat="44.5669" lon="2.37119">
        <ele>593.33</ele>
        <time>2018-04-16T08:31:38.000Z</time>
      </trkpt>
      <trkpt lat="44.56695" lon="2.37111">
        <ele>594.36</ele>
        <time>2018-04-16T08:31:48.000Z</time>
      </trkpt>
      <trkpt lat="44.56701" lon="2.37103">
        <ele>595.58</ele>
        <time>2018-04-16T08:31:58.000Z</time>
      </trkpt>
      <trkpt lat="44.56707" lon="2.37096">
        <ele>596.89</ele>
        <time>2018-04-16T08:32:08.000Z</time>
      </trkpt>
      <trkpt lat="44.56712" lon="2.37089">
        <ele>598.11</ele>
        <time>2018-04-16T08:32:18.000Z</time>
      </trkpt>
      <trkpt lat="44.56718" lon="2.3708">
        <ele>599.36</ele>
        <time>2018-04-16T08:32:28.000Z</time>
      </trkpt>
      <trkpt lat="44.56722" lon="2.37072">
        <ele>600.77</ele>
        <time>2018-04-16T08:32:38.000Z</time>
      </trkpt>
      <trkpt lat="44.56727" lon="2.37065">
        <ele>601.83</ele>
        <time>2018-04-16T08:32:48.000Z</time>
      </trkpt>
      <trkpt lat="44.56731" lon="2.37055">
        <ele>603.29</ele>
        <time>2018-04-16T08:32:58.000Z</time>
      </trkpt>
      <trkpt lat="44.56734" lon="2.37044">
        <ele>604.13</ele>
        <time>2018-04-16T08:33:08.000Z</time>
      </trkpt>
      <trkpt lat="44.56737" lon="2.37035">
        <ele>605.32</ele>
        <time>2018-04-16T08:33:18.000Z</time>
      </trkpt>
      <trkpt lat="44.56739" lon="2.37024">
        <ele>606.56</ele>
        <time>2018-04-16T08:33:28.000Z</time>
      </trkpt>
      <trkpt lat="44.56743" lon="2.37013">
        <ele>607.07</ele>
        <time>2018-04-16T08:33:38.000Z</time>
      </trkpt>
      <trkpt lat="44.56745" lon="2.37002">
        <ele>607.49</ele>
        <time>2018-04-16T08:33:48.000Z</time>
      </trkpt>
      <trkpt lat="44.56748" lon="2.3699">
        <ele>607.73</ele>
        <time>2018-04-16T08:33:58.000Z</time>
      </trkpt>
      <trkpt lat="44.56754" lon="2.3698">
        <ele>608.49</ele>
        <time>2018-04-16T08:34:08.000Z</time>
      </trkpt>
      <trkpt lat="44.56759" lon="2.36971">
        <ele>609.61</ele>
        <time>2018-04-16T08:34:18.000Z</time>
      </trkpt>
      <trkpt lat="44.56767" lon="2.36961">
        <ele>610.34</ele>
        <time>2018-04-16T08:34:28.000Z</time>
      </trkpt>
      <trkpt lat="44.56772" lon="2.36948">
        <ele>610.91</ele>
        <time>2018-04-16T08:34:38.000Z</time>
      </trkpt>
      <trkpt lat="44.56774" lon="2.36936">
        <ele>612.32</ele>
        <time>2018-04-16T08:34:48.000Z</time>
      </trkpt>
      <trkpt lat="44.56774" lon="2.36924">
        <ele>612.88</ele>
        <time>2018-04-16T08:34:58.000Z</time>
      </trkpt>
      <trkpt lat="44.56773" lon="2.36914">
        <ele>613.61</ele>
        <time>2018-04-16T08:35:08.000Z</time>
      </trkpt>
      <trkpt lat="44.56768" lon="2.36906">
        <ele>614.63</ele>
        <time>2018-04-16T08:35:18.000Z</time>
      </trkpt>
      <trkpt lat="44.56763" lon="2.36903">
        <ele>615.75</ele>
        <time>2018-04-16T08:35:28.000Z</time>
      </trkpt>
      <trkpt lat="44.56754" lon="2.36898">
        <ele>616.19</ele>
        <time>2018-04-16T08:35:38.000Z</time>
      </trkpt>
      <trkpt lat="44.56745" lon="2.36894">
        <ele>617.22</ele>
        <time>2018-04-16T08:35:48.000Z</time>
      </trkpt>
      <trkpt lat="44.56738" lon="2.3689">
        <ele>619.06</ele>
        <time>2018-04-16T08:35:58.000Z</time>
      </trkpt>
      <trkpt lat="44.56733" lon="2.36886">
        <ele>620.71</ele>
        <time>2018-04-16T08:36:08.000Z</time>
      </trkpt>
      <trkpt lat="44.56728" lon="2.36881">
        <ele>621.7</ele>
        <time>2018-04-16T08:36:18.000Z</time>
      </trkpt>
      <trkpt lat="44.56724" lon="2.36871">
        <ele>622.92</ele>
        <time>2018-04-16T08:36:28.000Z</time>
      </trkpt>
      <trkpt lat="44.56721" lon="2.36861">
        <ele>624.3</ele>
        <time>2018-04-16T08:36:38.000Z</time>
      </trkpt>
      <trkpt lat="44.56721" lon="2.36851">
        <ele>625.92</ele>
        <time>2018-04-16T08:36:48.000Z</time>
      </trkpt>
      <trkpt lat="44.56723" lon="2.36842">
        <ele>627.15</ele>
        <time>2018-04-16T08:36:58.000Z</time>
      </trkpt>
      <trkpt lat="44.56726" lon="2.36832">
        <ele>627.85</ele>
        <time>2018-04-16T08:37:08.000Z</time>
      </trkpt>
      <trkpt lat="44.56728" lon="2.36821">
        <ele>628.53</ele>
        <time>2018-04-16T08:37:18.000Z</time>
      </trkpt>
      <trkpt lat="44.56728" lon="2.36808">
        <ele>628.97</ele>
        <time>2018-04-16T08:37:28.000Z</time>
      </trkpt>
      <trkpt lat="44.56728" lon="2.36796">
        <ele>629.54</ele>
        <time>2018-04-16T08:37:38.000Z</time>
      </trkpt>
      <trkpt lat="44.56729" lon="2.36783">
        <ele>630.45</ele>
        <time>2018-04-16T08:37:48.000Z</time>
      </trkpt>
      <trkpt lat="44.5673" lon="2.36772">
        <ele>631.34</ele>
        <time>2018-04-16T08:37:58.000Z</time>
      </trkpt>
      <trkpt lat="44.56729" lon="2.36759">
        <ele>632.46</ele>
        <time>2018-04-16T08:38:08.000Z</time>
      </trkpt>
      <trkpt lat="44.56726" lon="2.36747">
        <ele>633.24</ele>
        <time>2018-04-16T08:38:18.000Z</time>
      </trkpt>
      <trkpt lat="44.56721" lon="2.36735">
        <ele>634.44</ele>
        <time>2018-04-16T08:38:28.000Z</time>
      </trkpt>
      <trkpt lat="44.56717" lon="2.36723">
        <ele>634.77</ele>
        <time>2018-04-16T08:38:38.000Z</time>
      </trkpt>
      <trkpt lat="44.56715" lon="2.36711">
        <ele>635.35</ele>
        <time>2018-04-16T08:38:48.000Z</time>
      </trkpt>
      <trkpt lat="44.56712" lon="2.36699">
        <ele>636.42</ele>
        <time>2018-04-16T08:38:58.000Z</time>
      </trkpt>
      <trkpt lat="44.56711" lon="2.36684">
        <ele>636.66</ele>
        <time>2018-04-16T08:39:08.000Z</time>
      </trkpt>
      <trkpt lat="44.56708" lon="2.36671">
        <ele>636.99</ele>
        <time>2018-04-16T08:39:18.000Z</time>
      </trkpt>
      <trkpt lat="44.56707" lon="2.36658">
        <ele>637.18</ele>
        <time>2018-04-16T08:39:28.000Z</time>
      </trkpt>
      <trkpt lat="44.56706" lon="2.36643">
        <ele>637.95</ele>
        <time>2018-04-16T08:39:38.000Z</time>
      </trkpt>
      <trkpt lat="44.56706" lon="2.36631">
        <ele>638.1</ele>
        <time>2018-04-16T08:39:48.000Z</time>
      </trkpt>
      <trkpt lat="44.56704" lon="2.36621">
        <ele>639.28</ele>
        <time>2018-04-16T08:39:58.000Z</time>
      </trkpt>
      <trkpt lat="44.56702" lon="2.36618">
        <ele>639.3</ele>
        <time>2018-04-16T08:40:08.000Z</time>
      </trkpt>
      <trkpt lat="44.56702" lon="2.3661">
        <ele>638.66</ele>
        <time>2018-04-16T08:40:18.000Z</time>
      </trkpt>
      <trkpt lat="44.56702" lon="2.36606">
        <ele>638.7</ele>
        <time>2018-04-16T08:40:28.000Z</time>
      </trkpt>
      <trkpt lat="44.56701" lon="2.36604">
        <ele>638.22</ele>
        <time>2018-04-16T08:40:38.000Z</time>
      </trkpt>
      <trkpt lat="44.56701" lon="2.36602">
        <ele>638.02</ele>
        <time>2018-04-16T08:40:48.000Z</time>
      </trkpt>
      <trkpt lat="44.56707" lon="2.36605">
        <ele>638.56</ele>
        <time>2018-04-16T08:40:58.000Z</time>
      </trkpt>
      <trkpt lat="44.5671" lon="2.36609">
        <ele>639.37</ele>
        <time>2018-04-16T08:41:08.000Z</time>
      </trkpt>
      <trkpt lat="44.56712" lon="2.36611">
        <ele>639.83</ele>
        <time>2018-04-16T08:41:18.000Z</time>
      </trkpt>
      <trkpt lat="44.56713" lon="2.36611">
        <ele>640.01</ele>
        <time>2018-04-16T08:41:28.000Z</time>
      </trkpt>
      <trkpt lat="44.56706" lon="2.36604">
        <ele>638.74</ele>
        <time>2018-04-16T08:41:38.000Z</time>
      </trkpt>
      <trkpt lat="44.56698" lon="2.36599">
        <ele>636.99</ele>
        <time>2018-04-16T08:41:48.000Z</time>
      </trkpt>
      <trkpt lat="44.56694" lon="2.36584">
        <ele>636.23</ele>
        <time>2018-04-16T08:41:58.000Z</time>
      </trkpt>
      <trkpt lat="44.56692" lon="2.36569">
        <ele>635.73</ele>
        <time>2018-04-16T08:42:08.000Z</time>
      </trkpt>
      <trkpt lat="44.56692" lon="2.36554">
        <ele>635.85</ele>
        <time>2018-04-16T08:42:18.000Z</time>
      </trkpt>
      <trkpt lat="44.56692" lon="2.36538">
        <ele>636.07</ele>
        <time>2018-04-16T08:42:28.000Z</time>
      </trkpt>
      <trkpt lat="44.56691" lon="2.36523">
        <ele>636.12</ele>
        <time>2018-04-16T08:42:38.000Z</time>
      </trkpt>
      <trkpt lat="44.5669" lon="2.36506">
        <ele>636.68</ele>
        <time>2018-04-16T08:42:48.000Z</time>
      </trkpt>
      <trkpt lat="44.5669" lon="2.36489">
        <ele>637.03</ele>
        <time>2018-04-16T08:42:58.000Z</time>
      </trkpt>
      <trkpt lat="44.56688" lon="2.36473">
        <ele>636.87</ele>
        <time>2018-04-16T08:43:08.000Z</time>
      </trkpt>
      <trkpt lat="44.56687" lon="2.36458">
        <ele>637.59</ele>
        <time>2018-04-16T08:43:18.000Z</time>
      </trkpt>
      <trkpt lat="44.56687" lon="2.36442">
        <ele>638.46</ele>
        <time>2018-04-16T08:43:28.000Z</time>
      </trkpt>
      <trkpt lat="44.56688" lon="2.36427">
        <ele>638.84</ele>
        <time>2018-04-16T08:43:38.000Z</time>
      </trkpt>
      <trkpt lat="44.56692" lon="2.36411">
        <ele>639.2</ele>
        <time>2018-04-16T08:43:48.000Z</time>
      </trkpt>
      <trkpt lat="44.56695" lon="2.36396">
        <ele>639.85</ele>
        <time>2018-04-16T08:43:58.000Z</time>
      </trkpt>
      <trkpt lat="44.56698" lon="2.3638">
        <ele>640.61</ele>
        <time>2018-04-16T08:44:08.000Z</time>
      </trkpt>
      <trkpt lat="44.567" lon="2.36367">
        <ele>641.6</ele>
        <time>2018-04-16T08:44:18.000Z</time>
      </trkpt>
      <trkpt lat="44.567" lon="2.36354">
        <ele>642.43</ele>
        <time>2018-04-16T08:44:28.000Z</time>
      </trkpt>
      <trkpt lat="44.567" lon="2.36341">
        <ele>643.83</ele>
        <time>2018-04-16T08:44:38.000Z</time>
      </trkpt>
      <trkpt lat="44.56699" lon="2.36328">
        <ele>643.9</ele>
        <time>2018-04-16T08:44:48.000Z</time>
      </trkpt>
      <trkpt lat="44.56701" lon="2.36315">
        <ele>643.39</ele>
        <time>2018-04-16T08:44:58.000Z</time>
      </trkpt>
      <trkpt lat="44.56708" lon="2.36304">
        <ele>643.54</ele>
        <time>2018-04-16T08:45:08.000Z</time>
      </trkpt>
      <trkpt lat="44.56712" lon="2.3629">
        <ele>644.18</ele>
        <time>2018-04-16T08:45:18.000Z</time>
      </trkpt>
      <trkpt lat="44.56716" lon="2.36273">
        <ele>644.71</ele>
        <time>2018-04-16T08:45:28.000Z</time>
      </trkpt>
      <trkpt lat="44.56718" lon="2.36257">
        <ele>644.56</ele>
        <time>2018-04-16T08:45:38.000Z</time>
      </trkpt>
      <trkpt lat="44.56719" lon="2.36242">
        <ele>644.77</ele>
        <time>2018-04-16T08:45:48.000Z</time>
      </trkpt>
      <trkpt lat="44.56722" lon="2.36226">
        <ele>644.27</ele>
        <time>2018-04-16T08:45:58.000Z</time>
      </trkpt>
      <trkpt lat="44.56726" lon="2.36209">
        <ele>643.95</ele>
        <time>2018-04-16T08:46:08.000Z</time>
      </trkpt>
      <trkpt lat="44.56729" lon="2.36194">
        <ele>643.83</ele>
        <time>2018-04-16T08:46:18.000Z</time>
      </trkpt>
      <trkpt lat="44.56731" lon="2.36179">
        <ele>644.01</ele>
        <time>2018-04-16T08:46:28.000Z</time>
      </trkpt>
      <trkpt lat="44.56734" lon="2.36162">
        <ele>644.3</ele>
        <time>2018-04-16T08:46:38.000Z</time>
      </trkpt>
      <trkpt lat="44.56736" lon="2.36147">
        <ele>644.43</ele>
        <time>2018-04-16T08:46:48.000Z</time>
      </trkpt>
      <trkpt lat="44.5674" lon="2.36131">
        <ele>644.99</ele>
        <time>2018-04-16T08:46:58.000Z</time>
      </trkpt>
      <trkpt lat="44.56742" lon="2.36117">
        <ele>645.62</ele>
        <time>2018-04-16T08:47:08.000Z</time>
      </trkpt>
      <trkpt lat="44.56745" lon="2.36104">
        <ele>645.98</ele>
        <time>2018-04-16T08:47:18.000Z</time>
      </trkpt>
      <trkpt lat="44.56752" lon="2.36089">
        <ele>646.9</ele>
        <time>2018-04-16T08:47:28.000Z</time>
      </trkpt>
      <trkpt lat="44.56758" lon="2.36077">
        <ele>647.47</ele>
        <time>2018-04-16T08:47:38.000Z</time>
      </trkpt>
      <trkpt lat="44.56762" lon="2.36066">
        <ele>647.24</ele>
        <time>2018-04-16T08:47:48.000Z</time>
      </trkpt>
      <trkpt lat="44.56768" lon="2.36056">
        <ele>647.5</ele>
        <time>2018-04-16T08:47:58.000Z</time>
      </trkpt>
      <trkpt lat="44.56777" lon="2.36044">
        <ele>648.69</ele>
        <time>2018-04-16T08:48:08.000Z</time>
      </trkpt>
      <trkpt lat="44.56785" lon="2.36034">
        <ele>648.77</ele>
        <time>2018-04-16T08:48:18.000Z</time>
      </trkpt>
      <trkpt lat="44.56794" lon="2.36024">
        <ele>648.85</ele>
        <time>2018-04-16T08:48:28.000Z</time>
      </trkpt>
      <trkpt lat="44.56803" lon="2.36016">
        <ele>649.29</ele>
        <time>2018-04-16T08:48:38.000Z</time>
      </trkpt>
      <trkpt lat="44.56808" lon="2.36006">
        <ele>649.91</ele>
        <time>2018-04-16T08:48:48.000Z</time>
      </trkpt>
      <trkpt lat="44.56814" lon="2.35995">
        <ele>650.61</ele>
        <time>2018-04-16T08:48:58.000Z</time>
      </trkpt>
      <trkpt lat="44.56822" lon="2.35985">
        <ele>651.3</ele>
        <time>2018-04-16T08:49:08.000Z</time>
      </trkpt>
      <trkpt lat="44.56829" lon="2.35976">
        <ele>652.09</ele>
        <time>2018-04-16T08:49:18.000Z</time>
      </trkpt>
      <trkpt lat="44.56836" lon="2.35966">
        <ele>652.35</ele>
        <time>2018-04-16T08:49:28.000Z</time>
      </trkpt>
      <trkpt lat="44.56844" lon="2.35958">
        <ele>652.03</ele>
        <time>2018-04-16T08:49:38.000Z</time>
      </trkpt>
      <trkpt lat="44.56853" lon="2.35948">
        <ele>653</ele>
        <time>2018-04-16T08:49:48.000Z</time>
      </trkpt>
      <trkpt lat="44.56859" lon="2.35937">
        <ele>653.8</ele>
        <time>2018-04-16T08:49:58.000Z</time>
      </trkpt>
      <trkpt lat="44.56863" lon="2.35924">
        <ele>655.03</ele>
        <time>2018-04-16T08:50:08.000Z</time>
      </trkpt>
      <trkpt lat="44.56864" lon="2.35912">
        <ele>655.98</ele>
        <time>2018-04-16T08:50:18.000Z</time>
      </trkpt>
      <trkpt lat="44.56864" lon="2.359">
        <ele>657.16</ele>
        <time>2018-04-16T08:50:28.000Z</time>
      </trkpt>
      <trkpt lat="44.56861" lon="2.35889">
        <ele>657.72</ele>
        <time>2018-04-16T08:50:38.000Z</time>
      </trkpt>
      <trkpt lat="44.56859" lon="2.35876">
        <ele>658.04</ele>
        <time>2018-04-16T08:50:48.000Z</time>
      </trkpt>
      <trkpt lat="44.56858" lon="2.35863">
        <ele>658.38</ele>
        <time>2018-04-16T08:50:58.000Z</time>
      </trkpt>
      <trkpt lat="44.56853" lon="2.35852">
        <ele>658.62</ele>
        <time>2018-04-16T08:51:08.000Z</time>
      </trkpt>
      <trkpt lat="44.56848" lon="2.3584">
        <ele>659.6</ele>
        <time>2018-04-16T08:51:18.000Z</time>
      </trkpt>
      <trkpt lat="44.56842" lon="2.35829">
        <ele>660.98</ele>
        <time>2018-04-16T08:51:28.000Z</time>
      </trkpt>
      <trkpt lat="44.56837" lon="2.35818">
        <ele>661.84</ele>
        <time>2018-04-16T08:51:38.000Z</time>
      </trkpt>
      <trkpt lat="44.56836" lon="2.35804">
        <ele>662.09</ele>
        <time>2018-04-16T08:51:48.000Z</time>
      </trkpt>
      <trkpt lat="44.56833" lon="2.35789">
        <ele>662.39</ele>
        <time>2018-04-16T08:51:58.000Z</time>
      </trkpt>
      <trkpt lat="44.56829" lon="2.35774">
        <ele>662.96</ele>
        <time>2018-04-16T08:52:08.000Z</time>
      </trkpt>
      <trkpt lat="44.56825" lon="2.35762">
        <ele>662.86</ele>
        <time>2018-04-16T08:52:18.000Z</time>
      </trkpt>
      <trkpt lat="44.56823" lon="2.35746">
        <ele>662.79</ele>
        <time>2018-04-16T08:52:28.000Z</time>
      </trkpt>
      <trkpt lat="44.56821" lon="2.35732">
        <ele>662.77</ele>
        <time>2018-04-16T08:52:38.000Z</time>
      </trkpt>
      <trkpt lat="44.56819" lon="2.35717">
        <ele>662.26</ele>
        <time>2018-04-16T08:52:48.000Z</time>
      </trkpt>
      <trkpt lat="44.56819" lon="2.35702">
        <ele>662.3</ele>
        <time>2018-04-16T08:52:58.000Z</time>
      </trkpt>
      <trkpt lat="44.5682" lon="2.35694">
        <ele>662.04</ele>
        <time>2018-04-16T08:53:08.000Z</time>
      </trkpt>
      <trkpt lat="44.5682" lon="2.35686">
        <ele>662.37</ele>
        <time>2018-04-16T08:53:18.000Z</time>
      </trkpt>
      <trkpt lat="44.56821" lon="2.35685">
        <ele>662.36</ele>
        <time>2018-04-16T08:53:31.000Z</time>
      </trkpt>
      <trkpt lat="44.5682" lon="2.35679">
        <ele>661.63</ele>
        <time>2018-04-16T08:53:41.000Z</time>
      </trkpt>
      <trkpt lat="44.56819" lon="2.35664">
        <ele>661.1</ele>
        <time>2018-04-16T08:53:51.000Z</time>
      </trkpt>
      <trkpt lat="44.56818" lon="2.3565">
        <ele>660.35</ele>
        <time>2018-04-16T08:54:01.000Z</time>
      </trkpt>
      <trkpt lat="44.56816" lon="2.35636">
        <ele>659.87</ele>
        <time>2018-04-16T08:54:11.000Z</time>
      </trkpt>
      <trkpt lat="44.56816" lon="2.35619">
        <ele>659.58</ele>
        <time>2018-04-16T08:54:21.000Z</time>
      </trkpt>
      <trkpt lat="44.56821" lon="2.35602">
        <ele>660.19</ele>
        <time>2018-04-16T08:54:31.000Z</time>
      </trkpt>
      <trkpt lat="44.56827" lon="2.35586">
        <ele>660.41</ele>
        <time>2018-04-16T08:54:41.000Z</time>
      </trkpt>
      <trkpt lat="44.56833" lon="2.3557">
        <ele>661.57</ele>
        <time>2018-04-16T08:54:51.000Z</time>
      </trkpt>
      <trkpt lat="44.56836" lon="2.35554">
        <ele>662.17</ele>
        <time>2018-04-16T08:55:01.000Z</time>
      </trkpt>
      <trkpt lat="44.56838" lon="2.35541">
        <ele>663.92</ele>
        <time>2018-04-16T08:55:11.000Z</time>
      </trkpt>
      <trkpt lat="44.5684" lon="2.35527">
        <ele>665.04</ele>
        <time>2018-04-16T08:55:21.000Z</time>
      </trkpt>
      <trkpt lat="44.56842" lon="2.35514">
        <ele>665.67</ele>
        <time>2018-04-16T08:55:31.000Z</time>
      </trkpt>
      <trkpt lat="44.56847" lon="2.355">
        <ele>665.9</ele>
        <time>2018-04-16T08:55:41.000Z</time>
      </trkpt>
      <trkpt lat="44.5685" lon="2.35486">
        <ele>666.48</ele>
        <time>2018-04-16T08:55:51.000Z</time>
      </trkpt>
      <trkpt lat="44.56855" lon="2.35472">
        <ele>667.2</ele>
        <time>2018-04-16T08:56:01.000Z</time>
      </trkpt>
      <trkpt lat="44.5686" lon="2.35456">
        <ele>667.55</ele>
        <time>2018-04-16T08:56:11.000Z</time>
      </trkpt>
      <trkpt lat="44.56861" lon="2.35443">
        <ele>667.58</ele>
        <time>2018-04-16T08:56:21.000Z</time>
      </trkpt>
      <trkpt lat="44.56864" lon="2.3543">
        <ele>667.57</ele>
        <time>2018-04-16T08:56:31.000Z</time>
      </trkpt>
      <trkpt lat="44.56866" lon="2.35416">
        <ele>668.08</ele>
        <time>2018-04-16T08:56:41.000Z</time>
      </trkpt>
      <trkpt lat="44.56868" lon="2.35402">
        <ele>669.06</ele>
        <time>2018-04-16T08:56:51.000Z</time>
      </trkpt>
      <trkpt lat="44.56871" lon="2.35389">
        <ele>669.54</ele>
        <time>2018-04-16T08:57:01.000Z</time>
      </trkpt>
      <trkpt lat="44.56872" lon="2.35378">
        <ele>670.11</ele>
        <time>2018-04-16T08:57:11.000Z</time>
      </trkpt>
      <trkpt lat="44.56876" lon="2.35367">
        <ele>669.85</ele>
        <time>2018-04-16T08:57:21.000Z</time>
      </trkpt>
      <trkpt lat="44.56876" lon="2.35355">
        <ele>670.65</ele>
        <time>2018-04-16T08:57:31.000Z</time>
      </trkpt>
      <trkpt lat="44.56877" lon="2.35341">
        <ele>670.66</ele>
        <time>2018-04-16T08:57:41.000Z</time>
      </trkpt>
      <trkpt lat="44.56878" lon="2.35329">
        <ele>670.41</ele>
        <time>2018-04-16T08:57:51.000Z</time>
      </trkpt>
      <trkpt lat="44.56882" lon="2.35319">
        <ele>670.42</ele>
        <time>2018-04-16T08:58:01.000Z</time>
      </trkpt>
      <trkpt lat="44.56887" lon="2.35308">
        <ele>670.2</ele>
        <time>2018-04-16T08:58:11.000Z</time>
      </trkpt>
      <trkpt lat="44.5689" lon="2.35305">
        <ele>668.97</ele>
        <time>2018-04-16T08:58:21.000Z</time>
      </trkpt>
      <trkpt lat="44.56895" lon="2.35292">
        <ele>668.82</ele>
        <time>2018-04-16T08:58:31.000Z</time>
      </trkpt>
      <trkpt lat="44.569" lon="2.35276">
        <ele>668.77</ele>
        <time>2018-04-16T08:58:41.000Z</time>
      </trkpt>
      <trkpt lat="44.56903" lon="2.3526">
        <ele>668.63</ele>
        <time>2018-04-16T08:58:51.000Z</time>
      </trkpt>
      <trkpt lat="44.56908" lon="2.35244">
        <ele>668.39</ele>
        <time>2018-04-16T08:59:01.000Z</time>
      </trkpt>
      <trkpt lat="44.5691" lon="2.3523">
        <ele>668.97</ele>
        <time>2018-04-16T08:59:11.000Z</time>
      </trkpt>
      <trkpt lat="44.56913" lon="2.35214">
        <ele>668.61</ele>
        <time>2018-04-16T08:59:21.000Z</time>
      </trkpt>
      <trkpt lat="44.56916" lon="2.35198">
        <ele>668.92</ele>
        <time>2018-04-16T08:59:31.000Z</time>
      </trkpt>
      <trkpt lat="44.5692" lon="2.35183">
        <ele>668.56</ele>
        <time>2018-04-16T08:59:41.000Z</time>
      </trkpt>
      <trkpt lat="44.56924" lon="2.35169">
        <ele>667.67</ele>
        <time>2018-04-16T08:59:51.000Z</time>
      </trkpt>
      <trkpt lat="44.56932" lon="2.35154">
        <ele>667.41</ele>
        <time>2018-04-16T09:00:01.000Z</time>
      </trkpt>
      <trkpt lat="44.56938" lon="2.35142">
        <ele>666.53</ele>
        <time>2018-04-16T09:00:11.000Z</time>
      </trkpt>
      <trkpt lat="44.56945" lon="2.3513">
        <ele>665.5</ele>
        <time>2018-04-16T09:00:21.000Z</time>
      </trkpt>
      <trkpt lat="44.56955" lon="2.35117">
        <ele>664.1</ele>
        <time>2018-04-16T09:00:31.000Z</time>
      </trkpt>
      <trkpt lat="44.56967" lon="2.35105">
        <ele>662.78</ele>
        <time>2018-04-16T09:00:41.000Z</time>
      </trkpt>
      <trkpt lat="44.5698" lon="2.3509">
        <ele>661.16</ele>
        <time>2018-04-16T09:00:51.000Z</time>
      </trkpt>
      <trkpt lat="44.56991" lon="2.35075">
        <ele>660.12</ele>
        <time>2018-04-16T09:01:01.000Z</time>
      </trkpt>
      <trkpt lat="44.56996" lon="2.35062">
        <ele>659.35</ele>
        <time>2018-04-16T09:01:11.000Z</time>
      </trkpt>
      <trkpt lat="44.57001" lon="2.35045">
        <ele>658.9</ele>
        <time>2018-04-16T09:01:21.000Z</time>
      </trkpt>
      <trkpt lat="44.57003" lon="2.35028">
        <ele>658.96</ele>
        <time>2018-04-16T09:01:31.000Z</time>
      </trkpt>
      <trkpt lat="44.57004" lon="2.35012">
        <ele>657.54</ele>
        <time>2018-04-16T09:01:41.000Z</time>
      </trkpt>
      <trkpt lat="44.57003" lon="2.34994">
        <ele>656.46</ele>
        <time>2018-04-16T09:01:51.000Z</time>
      </trkpt>
      <trkpt lat="44.57" lon="2.34977">
        <ele>654.94</ele>
        <time>2018-04-16T09:02:01.000Z</time>
      </trkpt>
      <trkpt lat="44.56995" lon="2.3496">
        <ele>653.86</ele>
        <time>2018-04-16T09:02:11.000Z</time>
      </trkpt>
      <trkpt lat="44.56991" lon="2.34945">
        <ele>652.42</ele>
        <time>2018-04-16T09:02:21.000Z</time>
      </trkpt>
      <trkpt lat="44.56985" lon="2.3493">
        <ele>651.74</ele>
        <time>2018-04-16T09:02:31.000Z</time>
      </trkpt>
      <trkpt lat="44.56983" lon="2.34914">
        <ele>651.32</ele>
        <time>2018-04-16T09:02:41.000Z</time>
      </trkpt>
      <trkpt lat="44.56978" lon="2.34898">
        <ele>650.66</ele>
        <time>2018-04-16T09:02:51.000Z</time>
      </trkpt>
      <trkpt lat="44.56974" lon="2.34883">
        <ele>650.74</ele>
        <time>2018-04-16T09:03:01.000Z</time>
      </trkpt>
      <trkpt lat="44.56966" lon="2.34869">
        <ele>651.67</ele>
        <time>2018-04-16T09:03:11.000Z</time>
      </trkpt>
      <trkpt lat="44.56963" lon="2.34867">
        <ele>651.4</ele>
        <time>2018-04-16T09:03:21.000Z</time>
      </trkpt>
      <trkpt lat="44.56959" lon="2.34859">
        <ele>651.3</ele>
        <time>2018-04-16T09:03:31.000Z</time>
      </trkpt>
      <trkpt lat="44.56953" lon="2.34853">
        <ele>651.64</ele>
        <time>2018-04-16T09:03:41.000Z</time>
      </trkpt>
      <trkpt lat="44.56942" lon="2.34842">
        <ele>652.5</ele>
        <time>2018-04-16T09:03:51.000Z</time>
      </trkpt>
      <trkpt lat="44.56929" lon="2.34829">
        <ele>653.39</ele>
        <time>2018-04-16T09:04:01.000Z</time>
      </trkpt>
      <trkpt lat="44.5692" lon="2.34816">
        <ele>654.01</ele>
        <time>2018-04-16T09:04:11.000Z</time>
      </trkpt>
      <trkpt lat="44.56914" lon="2.34799">
        <ele>654.39</ele>
        <time>2018-04-16T09:04:21.000Z</time>
      </trkpt>
      <trkpt lat="44.5691" lon="2.34782">
        <ele>653.93</ele>
        <time>2018-04-16T09:04:31.000Z</time>
      </trkpt>
      <trkpt lat="44.56903" lon="2.34768">
        <ele>653.28</ele>
        <time>2018-04-16T09:04:41.000Z</time>
      </trkpt>
      <trkpt lat="44.56893" lon="2.34758">
        <ele>653.62</ele>
        <time>2018-04-16T09:04:51.000Z</time>
      </trkpt>
      <trkpt lat="44.56892" lon="2.34751">
        <ele>653.61</ele>
        <time>2018-04-16T09:05:01.000Z</time>
      </trkpt>
      <trkpt lat="44.56893" lon="2.3475">
        <ele>653.43</ele>
        <time>2018-04-16T09:05:11.000Z</time>
      </trkpt>
      <trkpt lat="44.56893" lon="2.34747">
        <ele>653.21</ele>
        <time>2018-04-16T09:05:21.000Z</time>
      </trkpt>
      <trkpt lat="44.5689" lon="2.34744">
        <ele>652.7</ele>
        <time>2018-04-16T09:05:31.000Z</time>
      </trkpt>
      <trkpt lat="44.56882" lon="2.34741">
        <ele>652.4</ele>
        <time>2018-04-16T09:05:41.000Z</time>
      </trkpt>
      <trkpt lat="44.56874" lon="2.34741">
        <ele>651.96</ele>
        <time>2018-04-16T09:05:51.000Z</time>
      </trkpt>
      <trkpt lat="44.56863" lon="2.34739">
        <ele>651.44</ele>
        <time>2018-04-16T09:06:01.000Z</time>
      </trkpt>
      <trkpt lat="44.56853" lon="2.34736">
        <ele>650.21</ele>
        <time>2018-04-16T09:06:11.000Z</time>
      </trkpt>
      <trkpt lat="44.56845" lon="2.34728">
        <ele>649.35</ele>
        <time>2018-04-16T09:06:21.000Z</time>
      </trkpt>
      <trkpt lat="44.56834" lon="2.34718">
        <ele>648.96</ele>
        <time>2018-04-16T09:06:31.000Z</time>
      </trkpt>
      <trkpt lat="44.56824" lon="2.34706">
        <ele>648.33</ele>
        <time>2018-04-16T09:06:41.000Z</time>
      </trkpt>
      <trkpt lat="44.56816" lon="2.34696">
        <ele>647.53</ele>
        <time>2018-04-16T09:06:51.000Z</time>
      </trkpt>
      <trkpt lat="44.56808" lon="2.34682">
        <ele>646.79</ele>
        <time>2018-04-16T09:07:01.000Z</time>
      </trkpt>
      <trkpt lat="44.568" lon="2.34667">
        <ele>646.18</ele>
        <time>2018-04-16T09:07:11.000Z</time>
      </trkpt>
      <trkpt lat="44.56798" lon="2.34651">
        <ele>644.55</ele>
        <time>2018-04-16T09:07:21.000Z</time>
      </trkpt>
      <trkpt lat="44.56799" lon="2.34636">
        <ele>643.7</ele>
        <time>2018-04-16T09:07:31.000Z</time>
      </trkpt>
      <trkpt lat="44.568" lon="2.34623">
        <ele>642.35</ele>
        <time>2018-04-16T09:07:41.000Z</time>
      </trkpt>
      <trkpt lat="44.56802" lon="2.34608">
        <ele>641.81</ele>
        <time>2018-04-16T09:07:51.000Z</time>
      </trkpt>
      <trkpt lat="44.56807" lon="2.34592">
        <ele>641.05</ele>
        <time>2018-04-16T09:08:01.000Z</time>
      </trkpt>
      <trkpt lat="44.56812" lon="2.34576">
        <ele>639.79</ele>
        <time>2018-04-16T09:08:11.000Z</time>
      </trkpt>
      <trkpt lat="44.56815" lon="2.34558">
        <ele>638.87</ele>
        <time>2018-04-16T09:08:21.000Z</time>
      </trkpt>
      <trkpt lat="44.56815" lon="2.34539">
        <ele>638.08</ele>
        <time>2018-04-16T09:08:31.000Z</time>
      </trkpt>
      <trkpt lat="44.56812" lon="2.3452">
        <ele>637.8</ele>
        <time>2018-04-16T09:08:41.000Z</time>
      </trkpt>
      <trkpt lat="44.56805" lon="2.34506">
        <ele>636.95</ele>
        <time>2018-04-16T09:08:51.000Z</time>
      </trkpt>
      <trkpt lat="44.56794" lon="2.34493">
        <ele>636.69</ele>
        <time>2018-04-16T09:09:01.000Z</time>
      </trkpt>
      <trkpt lat="44.56784" lon="2.34481">
        <ele>636.35</ele>
        <time>2018-04-16T09:09:11.000Z</time>
      </trkpt>
      <trkpt lat="44.56775" lon="2.34471">
        <ele>635.57</ele>
        <time>2018-04-16T09:09:21.000Z</time>
      </trkpt>
      <trkpt lat="44.56765" lon="2.34458">
        <ele>635.8</ele>
        <time>2018-04-16T09:09:31.000Z</time>
      </trkpt>
      <trkpt lat="44.56758" lon="2.3445">
        <ele>635.69</ele>
        <time>2018-04-16T09:09:41.000Z</time>
      </trkpt>
      <trkpt lat="44.56755" lon="2.34446">
        <ele>635.93</ele>
        <time>2018-04-16T09:09:51.000Z</time>
      </trkpt>
      <trkpt lat="44.56749" lon="2.34438">
        <ele>635.79</ele>
        <time>2018-04-16T09:10:01.000Z</time>
      </trkpt>
      <trkpt lat="44.56743" lon="2.34426">
        <ele>635.2</ele>
        <time>2018-04-16T09:10:11.000Z</time>
      </trkpt>
      <trkpt lat="44.56734" lon="2.3441">
        <ele>634.99</ele>
        <time>2018-04-16T09:10:21.000Z</time>
      </trkpt>
      <trkpt lat="44.56728" lon="2.34393">
        <ele>634.9</ele>
        <time>2018-04-16T09:10:31.000Z</time>
      </trkpt>
      <trkpt lat="44.56722" lon="2.34377">
        <ele>634.82</ele>
        <time>2018-04-16T09:10:41.000Z</time>
      </trkpt>
      <trkpt lat="44.56717" lon="2.3436">
        <ele>635.18</ele>
        <time>2018-04-16T09:10:51.000Z</time>
      </trkpt>
      <trkpt lat="44.56718" lon="2.34341">
        <ele>635.79</ele>
        <time>2018-04-16T09:11:01.000Z</time>
      </trkpt>
      <trkpt lat="44.56719" lon="2.34323">
        <ele>636.6</ele>
        <time>2018-04-16T09:11:11.000Z</time>
      </trkpt>
      <trkpt lat="44.5672" lon="2.34306">
        <ele>637.36</ele>
        <time>2018-04-16T09:11:21.000Z</time>
      </trkpt>
      <trkpt lat="44.56719" lon="2.34288">
        <ele>637.62</ele>
        <time>2018-04-16T09:11:31.000Z</time>
      </trkpt>
      <trkpt lat="44.56718" lon="2.3427">
        <ele>638.4</ele>
        <time>2018-04-16T09:11:41.000Z</time>
      </trkpt>
      <trkpt lat="44.56715" lon="2.34251">
        <ele>639.05</ele>
        <time>2018-04-16T09:11:51.000Z</time>
      </trkpt>
      <trkpt lat="44.56713" lon="2.34232">
        <ele>639.12</ele>
        <time>2018-04-16T09:12:01.000Z</time>
      </trkpt>
      <trkpt lat="44.5671" lon="2.34215">
        <ele>639.81</ele>
        <time>2018-04-16T09:12:11.000Z</time>
      </trkpt>
      <trkpt lat="44.56704" lon="2.34199">
        <ele>640.19</ele>
        <time>2018-04-16T09:12:21.000Z</time>
      </trkpt>
      <trkpt lat="44.56704" lon="2.34181">
        <ele>640.84</ele>
        <time>2018-04-16T09:12:31.000Z</time>
      </trkpt>
      <trkpt lat="44.56704" lon="2.34166">
        <ele>641.13</ele>
        <time>2018-04-16T09:12:41.000Z</time>
      </trkpt>
      <trkpt lat="44.56708" lon="2.34151">
        <ele>641.42</ele>
        <time>2018-04-16T09:12:51.000Z</time>
      </trkpt>
      <trkpt lat="44.56715" lon="2.34135">
        <ele>642.28</ele>
        <time>2018-04-16T09:13:01.000Z</time>
      </trkpt>
      <trkpt lat="44.56719" lon="2.34119">
        <ele>642.17</ele>
        <time>2018-04-16T09:13:11.000Z</time>
      </trkpt>
      <trkpt lat="44.56721" lon="2.34103">
        <ele>641.42</ele>
        <time>2018-04-16T09:13:21.000Z</time>
      </trkpt>
      <trkpt lat="44.56721" lon="2.34086">
        <ele>641.08</ele>
        <time>2018-04-16T09:13:31.000Z</time>
      </trkpt>
      <trkpt lat="44.56723" lon="2.34068">
        <ele>640.49</ele>
        <time>2018-04-16T09:13:41.000Z</time>
      </trkpt>
      <trkpt lat="44.56727" lon="2.34048">
        <ele>638.96</ele>
        <time>2018-04-16T09:13:51.000Z</time>
      </trkpt>
      <trkpt lat="44.56731" lon="2.34029">
        <ele>638.07</ele>
        <time>2018-04-16T09:14:01.000Z</time>
      </trkpt>
      <trkpt lat="44.56735" lon="2.34011">
        <ele>636.66</ele>
        <time>2018-04-16T09:14:11.000Z</time>
      </trkpt>
      <trkpt lat="44.5674" lon="2.33993">
        <ele>635.68</ele>
        <time>2018-04-16T09:14:21.000Z</time>
      </trkpt>
      <trkpt lat="44.56743" lon="2.33975">
        <ele>634.74</ele>
        <time>2018-04-16T09:14:31.000Z</time>
      </trkpt>
      <trkpt lat="44.56745" lon="2.33959">
        <ele>634.07</ele>
        <time>2018-04-16T09:14:41.000Z</time>
      </trkpt>
      <trkpt lat="44.56749" lon="2.33942">
        <ele>632.62</ele>
        <time>2018-04-16T09:14:51.000Z</time>
      </trkpt>
      <trkpt lat="44.56752" lon="2.33924">
        <ele>632.39</ele>
        <time>2018-04-16T09:15:01.000Z</time>
      </trkpt>
      <trkpt lat="44.56755" lon="2.33908">
        <ele>631.38</ele>
        <time>2018-04-16T09:15:11.000Z</time>
      </trkpt>
      <trkpt lat="44.56758" lon="2.33891">
        <ele>630.43</ele>
        <time>2018-04-16T09:15:21.000Z</time>
      </trkpt>
      <trkpt lat="44.56762" lon="2.33873">
        <ele>629.5</ele>
        <time>2018-04-16T09:15:31.000Z</time>
      </trkpt>
      <trkpt lat="44.56765" lon="2.33856">
        <ele>628.83</ele>
        <time>2018-04-16T09:15:41.000Z</time>
      </trkpt>
      <trkpt lat="44.56769" lon="2.33838">
        <ele>628.36</ele>
        <time>2018-04-16T09:15:51.000Z</time>
      </trkpt>
      <trkpt lat="44.56772" lon="2.33821">
        <ele>627.75</ele>
        <time>2018-04-16T09:16:01.000Z</time>
      </trkpt>
      <trkpt lat="44.56773" lon="2.33804">
        <ele>627.3</ele>
        <time>2018-04-16T09:16:11.000Z</time>
      </trkpt>
      <trkpt lat="44.56776" lon="2.33786">
        <ele>627</ele>
        <time>2018-04-16T09:16:21.000Z</time>
      </trkpt>
      <trkpt lat="44.56778" lon="2.33768">
        <ele>626.85</ele>
        <time>2018-04-16T09:16:31.000Z</time>
      </trkpt>
      <trkpt lat="44.56778" lon="2.33749">
        <ele>626.25</ele>
        <time>2018-04-16T09:16:41.000Z</time>
      </trkpt>
      <trkpt lat="44.56779" lon="2.3373">
        <ele>626.73</ele>
        <time>2018-04-16T09:16:51.000Z</time>
      </trkpt>
      <trkpt lat="44.5678" lon="2.3371">
        <ele>626.45</ele>
        <time>2018-04-16T09:17:01.000Z</time>
      </trkpt>
      <trkpt lat="44.56782" lon="2.3369">
        <ele>626.34</ele>
        <time>2018-04-16T09:17:11.000Z</time>
      </trkpt>
      <trkpt lat="44.56783" lon="2.33672">
        <ele>625.71</ele>
        <time>2018-04-16T09:17:21.000Z</time>
      </trkpt>
      <trkpt lat="44.56782" lon="2.33655">
        <ele>625.34</ele>
        <time>2018-04-16T09:17:31.000Z</time>
      </trkpt>
      <trkpt lat="44.5678" lon="2.33635">
        <ele>625.57</ele>
        <time>2018-04-16T09:17:41.000Z</time>
      </trkpt>
      <trkpt lat="44.56781" lon="2.33615">
        <ele>625.77</ele>
        <time>2018-04-16T09:17:51.000Z</time>
      </trkpt>
      <trkpt lat="44.56778" lon="2.33598">
        <ele>625.56</ele>
        <time>2018-04-16T09:18:01.000Z</time>
      </trkpt>
      <trkpt lat="44.56774" lon="2.3358">
        <ele>625.19</ele>
        <time>2018-04-16T09:18:11.000Z</time>
      </trkpt>
      <trkpt lat="44.56771" lon="2.33562">
        <ele>625.66</ele>
        <time>2018-04-16T09:18:21.000Z</time>
      </trkpt>
      <trkpt lat="44.56765" lon="2.33545">
        <ele>625.57</ele>
        <time>2018-04-16T09:18:31.000Z</time>
      </trkpt>
      <trkpt lat="44.5676" lon="2.33529">
        <ele>626.58</ele>
        <time>2018-04-16T09:18:41.000Z</time>
      </trkpt>
      <trkpt lat="44.56755" lon="2.33515">
        <ele>627.21</ele>
        <time>2018-04-16T09:18:51.000Z</time>
      </trkpt>
      <trkpt lat="44.56748" lon="2.335">
        <ele>627.72</ele>
        <time>2018-04-16T09:19:01.000Z</time>
      </trkpt>
      <trkpt lat="44.56741" lon="2.33484">
        <ele>628.36</ele>
        <time>2018-04-16T09:19:11.000Z</time>
      </trkpt>
      <trkpt lat="44.56736" lon="2.33469">
        <ele>628.24</ele>
        <time>2018-04-16T09:19:21.000Z</time>
      </trkpt>
      <trkpt lat="44.56735" lon="2.33461">
        <ele>628.18</ele>
        <time>2018-04-16T09:19:31.000Z</time>
      </trkpt>
      <trkpt lat="44.56735" lon="2.3346">
        <ele>628.96</ele>
        <time>2018-04-16T09:19:50.000Z</time>
      </trkpt>
      <trkpt lat="44.56736" lon="2.3346">
        <ele>628.43</ele>
        <time>2018-04-16T09:22:16.000Z</time>
      </trkpt>
      <trkpt lat="44.56738" lon="2.33449">
        <ele>628.62</ele>
        <time>2018-04-16T09:22:26.000Z</time>
      </trkpt>
      <trkpt lat="44.56741" lon="2.33434">
        <ele>627.94</ele>
        <time>2018-04-16T09:22:36.000Z</time>
      </trkpt>
      <trkpt lat="44.56747" lon="2.33418">
        <ele>627.22</ele>
        <time>2018-04-16T09:22:46.000Z</time>
      </trkpt>
      <trkpt lat="44.56754" lon="2.33401">
        <ele>626.91</ele>
        <time>2018-04-16T09:22:56.000Z</time>
      </trkpt>
      <trkpt lat="44.5676" lon="2.33384">
        <ele>626.19</ele>
        <time>2018-04-16T09:23:06.000Z</time>
      </trkpt>
      <trkpt lat="44.56767" lon="2.33367">
        <ele>625.65</ele>
        <time>2018-04-16T09:23:16.000Z</time>
      </trkpt>
      <trkpt lat="44.56774" lon="2.33349">
        <ele>625.1</ele>
        <time>2018-04-16T09:23:26.000Z</time>
      </trkpt>
      <trkpt lat="44.56781" lon="2.33331">
        <ele>624.55</ele>
        <time>2018-04-16T09:23:36.000Z</time>
      </trkpt>
      <trkpt lat="44.56788" lon="2.33313">
        <ele>624.2</ele>
        <time>2018-04-16T09:23:46.000Z</time>
      </trkpt>
      <trkpt lat="44.56796" lon="2.33296">
        <ele>623.89</ele>
        <time>2018-04-16T09:23:56.000Z</time>
      </trkpt>
      <trkpt lat="44.56806" lon="2.33282">
        <ele>623.78</ele>
        <time>2018-04-16T09:24:06.000Z</time>
      </trkpt>
      <trkpt lat="44.56817" lon="2.3327">
        <ele>623.27</ele>
        <time>2018-04-16T09:24:16.000Z</time>
      </trkpt>
      <trkpt lat="44.56828" lon="2.33257">
        <ele>623.31</ele>
        <time>2018-04-16T09:24:26.000Z</time>
      </trkpt>
      <trkpt lat="44.56839" lon="2.33245">
        <ele>623.01</ele>
        <time>2018-04-16T09:24:36.000Z</time>
      </trkpt>
      <trkpt lat="44.56848" lon="2.33232">
        <ele>622.69</ele>
        <time>2018-04-16T09:24:46.000Z</time>
      </trkpt>
      <trkpt lat="44.56859" lon="2.33218">
        <ele>621.29</ele>
        <time>2018-04-16T09:24:56.000Z</time>
      </trkpt>
      <trkpt lat="44.5687" lon="2.33206">
        <ele>620.56</ele>
        <time>2018-04-16T09:25:06.000Z</time>
      </trkpt>
      <trkpt lat="44.56881" lon="2.33193">
        <ele>619.58</ele>
        <time>2018-04-16T09:25:16.000Z</time>
      </trkpt>
      <trkpt lat="44.56889" lon="2.3318">
        <ele>618.59</ele>
        <time>2018-04-16T09:25:26.000Z</time>
      </trkpt>
      <trkpt lat="44.56899" lon="2.3317">
        <ele>617.9</ele>
        <time>2018-04-16T09:25:36.000Z</time>
      </trkpt>
      <trkpt lat="44.56908" lon="2.33157">
        <ele>617.16</ele>
        <time>2018-04-16T09:25:46.000Z</time>
      </trkpt>
      <trkpt lat="44.56918" lon="2.33142">
        <ele>616.73</ele>
        <time>2018-04-16T09:25:56.000Z</time>
      </trkpt>
      <trkpt lat="44.56926" lon="2.33128">
        <ele>616.37</ele>
        <time>2018-04-16T09:26:06.000Z</time>
      </trkpt>
      <trkpt lat="44.56933" lon="2.33114">
        <ele>615.17</ele>
        <time>2018-04-16T09:26:16.000Z</time>
      </trkpt>
      <trkpt lat="44.56938" lon="2.33096">
        <ele>614.74</ele>
        <time>2018-04-16T09:26:26.000Z</time>
      </trkpt>
      <trkpt lat="44.56939" lon="2.33078">
        <ele>613.94</ele>
        <time>2018-04-16T09:26:36.000Z</time>
      </trkpt>
      <trkpt lat="44.56932" lon="2.33062">
        <ele>613.66</ele>
        <time>2018-04-16T09:26:46.000Z</time>
      </trkpt>
      <trkpt lat="44.56924" lon="2.3305">
        <ele>612.62</ele>
        <time>2018-04-16T09:26:56.000Z</time>
      </trkpt>
      <trkpt lat="44.56913" lon="2.33044">
        <ele>611.64</ele>
        <time>2018-04-16T09:27:06.000Z</time>
      </trkpt>
      <trkpt lat="44.569" lon="2.33041">
        <ele>610.94</ele>
        <time>2018-04-16T09:27:16.000Z</time>
      </trkpt>
      <trkpt lat="44.56888" lon="2.33044">
        <ele>609.73</ele>
        <time>2018-04-16T09:27:26.000Z</time>
      </trkpt>
      <trkpt lat="44.56874" lon="2.33052">
        <ele>609.01</ele>
        <time>2018-04-16T09:27:36.000Z</time>
      </trkpt>
      <trkpt lat="44.56861" lon="2.33059">
        <ele>607.72</ele>
        <time>2018-04-16T09:27:46.000Z</time>
      </trkpt>
      <trkpt lat="44.5685" lon="2.33065">
        <ele>606.72</ele>
        <time>2018-04-16T09:27:56.000Z</time>
      </trkpt>
      <trkpt lat="44.56837" lon="2.33072">
        <ele>605.98</ele>
        <time>2018-04-16T09:28:06.000Z</time>
      </trkpt>
      <trkpt lat="44.56823" lon="2.3308">
        <ele>605.4</ele>
        <time>2018-04-16T09:28:16.000Z</time>
      </trkpt>
      <trkpt lat="44.56813" lon="2.33091">
        <ele>604.42</ele>
        <time>2018-04-16T09:28:26.000Z</time>
      </trkpt>
      <trkpt lat="44.56806" lon="2.33106">
        <ele>604.4</ele>
        <time>2018-04-16T09:28:36.000Z</time>
      </trkpt>
      <trkpt lat="44.56796" lon="2.33116">
        <ele>604.15</ele>
        <time>2018-04-16T09:28:46.000Z</time>
      </trkpt>
      <trkpt lat="44.56783" lon="2.33121">
        <ele>603.42</ele>
        <time>2018-04-16T09:28:56.000Z</time>
      </trkpt>
      <trkpt lat="44.56771" lon="2.33116">
        <ele>601.8</ele>
        <time>2018-04-16T09:29:06.000Z</time>
      </trkpt>
      <trkpt lat="44.56762" lon="2.33101">
        <ele>601.3</ele>
        <time>2018-04-16T09:29:16.000Z</time>
      </trkpt>
      <trkpt lat="44.56755" lon="2.33086">
        <ele>600.69</ele>
        <time>2018-04-16T09:29:26.000Z</time>
      </trkpt>
      <trkpt lat="44.5675" lon="2.3307">
        <ele>600.03</ele>
        <time>2018-04-16T09:29:36.000Z</time>
      </trkpt>
      <trkpt lat="44.56745" lon="2.33051">
        <ele>599.39</ele>
        <time>2018-04-16T09:29:46.000Z</time>
      </trkpt>
      <trkpt lat="44.56739" lon="2.33034">
        <ele>598.55</ele>
        <time>2018-04-16T09:29:56.000Z</time>
      </trkpt>
      <trkpt lat="44.5673" lon="2.33024">
        <ele>598.46</ele>
        <time>2018-04-16T09:30:06.000Z</time>
      </trkpt>
      <trkpt lat="44.5672" lon="2.33014">
        <ele>598.03</ele>
        <time>2018-04-16T09:30:16.000Z</time>
      </trkpt>
      <trkpt lat="44.56707" lon="2.33006">
        <ele>596.8</ele>
        <time>2018-04-16T09:30:26.000Z</time>
      </trkpt>
      <trkpt lat="44.56697" lon="2.32998">
        <ele>595.33</ele>
        <time>2018-04-16T09:30:36.000Z</time>
      </trkpt>
      <trkpt lat="44.56688" lon="2.32989">
        <ele>594.63</ele>
        <time>2018-04-16T09:30:46.000Z</time>
      </trkpt>
      <trkpt lat="44.56686" lon="2.32988">
        <ele>594.3</ele>
        <time>2018-04-16T09:30:56.000Z</time>
      </trkpt>
      <trkpt lat="44.56678" lon="2.32979">
        <ele>594.34</ele>
        <time>2018-04-16T09:31:06.000Z</time>
      </trkpt>
      <trkpt lat="44.56673" lon="2.32969">
        <ele>593.27</ele>
        <time>2018-04-16T09:31:16.000Z</time>
      </trkpt>
      <trkpt lat="44.56667" lon="2.32954">
        <ele>592.74</ele>
        <time>2018-04-16T09:31:26.000Z</time>
      </trkpt>
      <trkpt lat="44.56662" lon="2.32936">
        <ele>592.07</ele>
        <time>2018-04-16T09:31:36.000Z</time>
      </trkpt>
      <trkpt lat="44.56658" lon="2.32918">
        <ele>591.74</ele>
        <time>2018-04-16T09:31:46.000Z</time>
      </trkpt>
      <trkpt lat="44.56654" lon="2.329">
        <ele>591.64</ele>
        <time>2018-04-16T09:31:56.000Z</time>
      </trkpt>
      <trkpt lat="44.5665" lon="2.32883">
        <ele>591.4</ele>
        <time>2018-04-16T09:32:06.000Z</time>
      </trkpt>
      <trkpt lat="44.56645" lon="2.32867">
        <ele>592.09</ele>
        <time>2018-04-16T09:32:16.000Z</time>
      </trkpt>
      <trkpt lat="44.5664" lon="2.32852">
        <ele>591.9</ele>
        <time>2018-04-16T09:32:26.000Z</time>
      </trkpt>
      <trkpt lat="44.56636" lon="2.32836">
        <ele>591.44</ele>
        <time>2018-04-16T09:32:36.000Z</time>
      </trkpt>
      <trkpt lat="44.56633" lon="2.32817">
        <ele>592.2</ele>
        <time>2018-04-16T09:32:46.000Z</time>
      </trkpt>
      <trkpt lat="44.56628" lon="2.328">
        <ele>592.36</ele>
        <time>2018-04-16T09:32:56.000Z</time>
      </trkpt>
      <trkpt lat="44.56624" lon="2.32784">
        <ele>592.84</ele>
        <time>2018-04-16T09:33:06.000Z</time>
      </trkpt>
      <trkpt lat="44.56621" lon="2.32767">
        <ele>593.24</ele>
        <time>2018-04-16T09:33:16.000Z</time>
      </trkpt>
      <trkpt lat="44.56621" lon="2.32749">
        <ele>593.92</ele>
        <time>2018-04-16T09:33:26.000Z</time>
      </trkpt>
      <trkpt lat="44.56619" lon="2.32733">
        <ele>594.95</ele>
        <time>2018-04-16T09:33:36.000Z</time>
      </trkpt>
      <trkpt lat="44.56617" lon="2.32716">
        <ele>595.23</ele>
        <time>2018-04-16T09:33:46.000Z</time>
      </trkpt>
      <trkpt lat="44.56616" lon="2.327">
        <ele>595.83</ele>
        <time>2018-04-16T09:33:56.000Z</time>
      </trkpt>
      <trkpt lat="44.56614" lon="2.32683">
        <ele>596.44</ele>
        <time>2018-04-16T09:34:06.000Z</time>
      </trkpt>
      <trkpt lat="44.56611" lon="2.32668">
        <ele>597.43</ele>
        <time>2018-04-16T09:34:16.000Z</time>
      </trkpt>
      <trkpt lat="44.56607" lon="2.32653">
        <ele>598.06</ele>
        <time>2018-04-16T09:34:26.000Z</time>
      </trkpt>
      <trkpt lat="44.56605" lon="2.3264">
        <ele>598.47</ele>
        <time>2018-04-16T09:34:36.000Z</time>
      </trkpt>
      <trkpt lat="44.56602" lon="2.32625">
        <ele>599.28</ele>
        <time>2018-04-16T09:34:46.000Z</time>
      </trkpt>
      <trkpt lat="44.56598" lon="2.32612">
        <ele>600.03</ele>
        <time>2018-04-16T09:34:56.000Z</time>
      </trkpt>
      <trkpt lat="44.56594" lon="2.32599">
        <ele>600.7</ele>
        <time>2018-04-16T09:35:06.000Z</time>
      </trkpt>
      <trkpt lat="44.5659" lon="2.32589">
        <ele>601.61</ele>
        <time>2018-04-16T09:35:16.000Z</time>
      </trkpt>
      <trkpt lat="44.56585" lon="2.32577">
        <ele>602.85</ele>
        <time>2018-04-16T09:35:26.000Z</time>
      </trkpt>
      <trkpt lat="44.56581" lon="2.32566">
        <ele>603.54</ele>
        <time>2018-04-16T09:35:36.000Z</time>
      </trkpt>
      <trkpt lat="44.5658" lon="2.32555">
        <ele>604</ele>
        <time>2018-04-16T09:35:46.000Z</time>
      </trkpt>
      <trkpt lat="44.56581" lon="2.3255">
        <ele>604.03</ele>
        <time>2018-04-16T09:35:56.000Z</time>
      </trkpt>
      <trkpt lat="44.56579" lon="2.3255">
        <ele>604.42</ele>
        <time>2018-04-16T09:36:33.000Z</time>
      </trkpt>
      <trkpt lat="44.56575" lon="2.32547">
        <ele>604.45</ele>
        <time>2018-04-16T09:36:43.000Z</time>
      </trkpt>
      <trkpt lat="44.56572" lon="2.32544">
        <ele>605.01</ele>
        <time>2018-04-16T09:36:53.000Z</time>
      </trkpt>
      <trkpt lat="44.56565" lon="2.32535">
        <ele>606.14</ele>
        <time>2018-04-16T09:37:03.000Z</time>
      </trkpt>
      <trkpt lat="44.56559" lon="2.32524">
        <ele>607.26</ele>
        <time>2018-04-16T09:37:13.000Z</time>
      </trkpt>
      <trkpt lat="44.56553" lon="2.32514">
        <ele>608.94</ele>
        <time>2018-04-16T09:37:23.000Z</time>
      </trkpt>
      <trkpt lat="44.56547" lon="2.32506">
        <ele>610.13</ele>
        <time>2018-04-16T09:37:33.000Z</time>
      </trkpt>
      <trkpt lat="44.56541" lon="2.32496">
        <ele>611.16</ele>
        <time>2018-04-16T09:37:43.000Z</time>
      </trkpt>
      <trkpt lat="44.56535" lon="2.32485">
        <ele>611.81</ele>
        <time>2018-04-16T09:37:53.000Z</time>
      </trkpt>
      <trkpt lat="44.56528" lon="2.32477">
        <ele>612.16</ele>
        <time>2018-04-16T09:38:03.000Z</time>
      </trkpt>
      <trkpt lat="44.5652" lon="2.32469">
        <ele>612.69</ele>
        <time>2018-04-16T09:38:13.000Z</time>
      </trkpt>
      <trkpt lat="44.56508" lon="2.32463">
        <ele>611.98</ele>
        <time>2018-04-16T09:38:23.000Z</time>
      </trkpt>
      <trkpt lat="44.56499" lon="2.32456">
        <ele>612.1</ele>
        <time>2018-04-16T09:38:33.000Z</time>
      </trkpt>
      <trkpt lat="44.56488" lon="2.32451">
        <ele>612.4</ele>
        <time>2018-04-16T09:38:43.000Z</time>
      </trkpt>
      <trkpt lat="44.56479" lon="2.32443">
        <ele>612.73</ele>
        <time>2018-04-16T09:38:53.000Z</time>
      </trkpt>
      <trkpt lat="44.56468" lon="2.32436">
        <ele>612.99</ele>
        <time>2018-04-16T09:39:03.000Z</time>
      </trkpt>
      <trkpt lat="44.56459" lon="2.32427">
        <ele>613.47</ele>
        <time>2018-04-16T09:39:13.000Z</time>
      </trkpt>
      <trkpt lat="44.56452" lon="2.32416">
        <ele>613.97</ele>
        <time>2018-04-16T09:39:23.000Z</time>
      </trkpt>
      <trkpt lat="44.56443" lon="2.32406">
        <ele>615.03</ele>
        <time>2018-04-16T09:39:33.000Z</time>
      </trkpt>
      <trkpt lat="44.56438" lon="2.32394">
        <ele>614.83</ele>
        <time>2018-04-16T09:39:43.000Z</time>
      </trkpt>
      <trkpt lat="44.56428" lon="2.32385">
        <ele>613.43</ele>
        <time>2018-04-16T09:39:53.000Z</time>
      </trkpt>
      <trkpt lat="44.56419" lon="2.32377">
        <ele>613.11</ele>
        <time>2018-04-16T09:40:03.000Z</time>
      </trkpt>
      <trkpt lat="44.5641" lon="2.32372">
        <ele>612.07</ele>
        <time>2018-04-16T09:40:13.000Z</time>
      </trkpt>
      <trkpt lat="44.56399" lon="2.32367">
        <ele>610.61</ele>
        <time>2018-04-16T09:40:23.000Z</time>
      </trkpt>
      <trkpt lat="44.56389" lon="2.32358">
        <ele>609.11</ele>
        <time>2018-04-16T09:40:33.000Z</time>
      </trkpt>
      <trkpt lat="44.5638" lon="2.32344">
        <ele>608.23</ele>
        <time>2018-04-16T09:40:43.000Z</time>
      </trkpt>
      <trkpt lat="44.56376" lon="2.3233">
        <ele>606.64</ele>
        <time>2018-04-16T09:40:53.000Z</time>
      </trkpt>
      <trkpt lat="44.5637" lon="2.32316">
        <ele>605.46</ele>
        <time>2018-04-16T09:41:03.000Z</time>
      </trkpt>
      <trkpt lat="44.56367" lon="2.32302">
        <ele>604.16</ele>
        <time>2018-04-16T09:41:13.000Z</time>
      </trkpt>
      <trkpt lat="44.56366" lon="2.32288">
        <ele>603.13</ele>
        <time>2018-04-16T09:41:23.000Z</time>
      </trkpt>
      <trkpt lat="44.56361" lon="2.32273">
        <ele>601.99</ele>
        <time>2018-04-16T09:41:33.000Z</time>
      </trkpt>
      <trkpt lat="44.56361" lon="2.32271">
        <ele>602.26</ele>
        <time>2018-04-16T09:41:43.000Z</time>
      </trkpt>
      <trkpt lat="44.56362" lon="2.3227">
        <ele>602.31</ele>
        <time>2018-04-16T09:42:20.000Z</time>
      </trkpt>
      <trkpt lat="44.56361" lon="2.32256">
        <ele>601.78</ele>
        <time>2018-04-16T09:42:30.000Z</time>
      </trkpt>
      <trkpt lat="44.56358" lon="2.32239">
        <ele>601.21</ele>
        <time>2018-04-16T09:42:40.000Z</time>
      </trkpt>
      <trkpt lat="44.56354" lon="2.32222">
        <ele>600.76</ele>
        <time>2018-04-16T09:42:50.000Z</time>
      </trkpt>
      <trkpt lat="44.56352" lon="2.32205">
        <ele>599.94</ele>
        <time>2018-04-16T09:43:00.000Z</time>
      </trkpt>
      <trkpt lat="44.56347" lon="2.32188">
        <ele>599.43</ele>
        <time>2018-04-16T09:43:10.000Z</time>
      </trkpt>
      <trkpt lat="44.56343" lon="2.32173">
        <ele>599.32</ele>
        <time>2018-04-16T09:43:20.000Z</time>
      </trkpt>
      <trkpt lat="44.56338" lon="2.32159">
        <ele>598.6</ele>
        <time>2018-04-16T09:43:30.000Z</time>
      </trkpt>
      <trkpt lat="44.56333" lon="2.32141">
        <ele>597.57</ele>
        <time>2018-04-16T09:43:40.000Z</time>
      </trkpt>
      <trkpt lat="44.56328" lon="2.32126">
        <ele>596.99</ele>
        <time>2018-04-16T09:43:50.000Z</time>
      </trkpt>
      <trkpt lat="44.56323" lon="2.32111">
        <ele>596.1</ele>
        <time>2018-04-16T09:44:00.000Z</time>
      </trkpt>
      <trkpt lat="44.56317" lon="2.32096">
        <ele>594.74</ele>
        <time>2018-04-16T09:44:10.000Z</time>
      </trkpt>
      <trkpt lat="44.56311" lon="2.32081">
        <ele>593.53</ele>
        <time>2018-04-16T09:44:20.000Z</time>
      </trkpt>
      <trkpt lat="44.56304" lon="2.32068">
        <ele>592.73</ele>
        <time>2018-04-16T09:44:30.000Z</time>
      </trkpt>
      <trkpt lat="44.56298" lon="2.32054">
        <ele>591.73</ele>
        <time>2018-04-16T09:44:40.000Z</time>
      </trkpt>
      <trkpt lat="44.56291" lon="2.3204">
        <ele>591.09</ele>
        <time>2018-04-16T09:44:50.000Z</time>
      </trkpt>
      <trkpt lat="44.56283" lon="2.32026">
        <ele>590.12</ele>
        <time>2018-04-16T09:45:00.000Z</time>
      </trkpt>
      <trkpt lat="44.56278" lon="2.32012">
        <ele>588.95</ele>
        <time>2018-04-16T09:45:10.000Z</time>
      </trkpt>
      <trkpt lat="44.5627" lon="2.31998">
        <ele>588.35</ele>
        <time>2018-04-16T09:45:20.000Z</time>
      </trkpt>
      <trkpt lat="44.56265" lon="2.31983">
        <ele>588.15</ele>
        <time>2018-04-16T09:45:30.000Z</time>
      </trkpt>
      <trkpt lat="44.5626" lon="2.31967">
        <ele>586.79</ele>
        <time>2018-04-16T09:45:40.000Z</time>
      </trkpt>
      <trkpt lat="44.56254" lon="2.31954">
        <ele>585.77</ele>
        <time>2018-04-16T09:45:50.000Z</time>
      </trkpt>
      <trkpt lat="44.5625" lon="2.31938">
        <ele>585.36</ele>
        <time>2018-04-16T09:46:00.000Z</time>
      </trkpt>
      <trkpt lat="44.56248" lon="2.31921">
        <ele>585.07</ele>
        <time>2018-04-16T09:46:10.000Z</time>
      </trkpt>
      <trkpt lat="44.56247" lon="2.31904">
        <ele>584.61</ele>
        <time>2018-04-16T09:46:20.000Z</time>
      </trkpt>
      <trkpt lat="44.56246" lon="2.31886">
        <ele>584.74</ele>
        <time>2018-04-16T09:46:30.000Z</time>
      </trkpt>
      <trkpt lat="44.56242" lon="2.31869">
        <ele>584.47</ele>
        <time>2018-04-16T09:46:40.000Z</time>
      </trkpt>
      <trkpt lat="44.56239" lon="2.31854">
        <ele>584.98</ele>
        <time>2018-04-16T09:46:50.000Z</time>
      </trkpt>
      <trkpt lat="44.56236" lon="2.31838">
        <ele>584.34</ele>
        <time>2018-04-16T09:47:00.000Z</time>
      </trkpt>
      <trkpt lat="44.56235" lon="2.31823">
        <ele>584.93</ele>
        <time>2018-04-16T09:47:10.000Z</time>
      </trkpt>
      <trkpt lat="44.56233" lon="2.31807">
        <ele>585.21</ele>
        <time>2018-04-16T09:47:20.000Z</time>
      </trkpt>
      <trkpt lat="44.56232" lon="2.31791">
        <ele>585.82</ele>
        <time>2018-04-16T09:47:30.000Z</time>
      </trkpt>
      <trkpt lat="44.5623" lon="2.31775">
        <ele>586.11</ele>
        <time>2018-04-16T09:47:40.000Z</time>
      </trkpt>
      <trkpt lat="44.5623" lon="2.31765">
        <ele>586.16</ele>
        <time>2018-04-16T09:47:50.000Z</time>
      </trkpt>
      <trkpt lat="44.5623" lon="2.31762">
        <ele>586.36</ele>
        <time>2018-04-16T09:48:00.000Z</time>
      </trkpt>
      <trkpt lat="44.56228" lon="2.31753">
        <ele>585.85</ele>
        <time>2018-04-16T09:48:10.000Z</time>
      </trkpt>
      <trkpt lat="44.56227" lon="2.31737">
        <ele>584.38</ele>
        <time>2018-04-16T09:48:20.000Z</time>
      </trkpt>
      <trkpt lat="44.56224" lon="2.31723">
        <ele>582.65</ele>
        <time>2018-04-16T09:48:30.000Z</time>
      </trkpt>
      <trkpt lat="44.56222" lon="2.31709">
        <ele>581.04</ele>
        <time>2018-04-16T09:48:40.000Z</time>
      </trkpt>
      <trkpt lat="44.5622" lon="2.31696">
        <ele>579.69</ele>
        <time>2018-04-16T09:48:50.000Z</time>
      </trkpt>
      <trkpt lat="44.56223" lon="2.31679">
        <ele>578.02</ele>
        <time>2018-04-16T09:49:00.000Z</time>
      </trkpt>
      <trkpt lat="44.56223" lon="2.31662">
        <ele>576.68</ele>
        <time>2018-04-16T09:49:10.000Z</time>
      </trkpt>
      <trkpt lat="44.56222" lon="2.31645">
        <ele>575.18</ele>
        <time>2018-04-16T09:49:20.000Z</time>
      </trkpt>
      <trkpt lat="44.56217" lon="2.3163">
        <ele>574.06</ele>
        <time>2018-04-16T09:49:30.000Z</time>
      </trkpt>
      <trkpt lat="44.56214" lon="2.31613">
        <ele>573.06</ele>
        <time>2018-04-16T09:49:40.000Z</time>
      </trkpt>
      <trkpt lat="44.56212" lon="2.31597">
        <ele>572.25</ele>
        <time>2018-04-16T09:49:50.000Z</time>
      </trkpt>
      <trkpt lat="44.5621" lon="2.31579">
        <ele>571.67</ele>
        <time>2018-04-16T09:50:00.000Z</time>
      </trkpt>
      <trkpt lat="44.56209" lon="2.31562">
        <ele>570.92</ele>
        <time>2018-04-16T09:50:10.000Z</time>
      </trkpt>
      <trkpt lat="44.56206" lon="2.31545">
        <ele>570.46</ele>
        <time>2018-04-16T09:50:20.000Z</time>
      </trkpt>
      <trkpt lat="44.56203" lon="2.31529">
        <ele>570.01</ele>
        <time>2018-04-16T09:50:30.000Z</time>
      </trkpt>
      <trkpt lat="44.56197" lon="2.31512">
        <ele>569.83</ele>
        <time>2018-04-16T09:50:40.000Z</time>
      </trkpt>
      <trkpt lat="44.56195" lon="2.31494">
        <ele>569.74</ele>
        <time>2018-04-16T09:50:50.000Z</time>
      </trkpt>
      <trkpt lat="44.56192" lon="2.31478">
        <ele>569.56</ele>
        <time>2018-04-16T09:51:00.000Z</time>
      </trkpt>
      <trkpt lat="44.56191" lon="2.31462">
        <ele>570.18</ele>
        <time>2018-04-16T09:51:10.000Z</time>
      </trkpt>
      <trkpt lat="44.5619" lon="2.31444">
        <ele>570.45</ele>
        <time>2018-04-16T09:51:20.000Z</time>
      </trkpt>
      <trkpt lat="44.56189" lon="2.31428">
        <ele>570.4</ele>
        <time>2018-04-16T09:51:30.000Z</time>
      </trkpt>
      <trkpt lat="44.56188" lon="2.31413">
        <ele>571.07</ele>
        <time>2018-04-16T09:51:40.000Z</time>
      </trkpt>
      <trkpt lat="44.56188" lon="2.31397">
        <ele>571.91</ele>
        <time>2018-04-16T09:51:50.000Z</time>
      </trkpt>
      <trkpt lat="44.56188" lon="2.31381">
        <ele>572.51</ele>
        <time>2018-04-16T09:52:00.000Z</time>
      </trkpt>
      <trkpt lat="44.56185" lon="2.31366">
        <ele>573.64</ele>
        <time>2018-04-16T09:52:10.000Z</time>
      </trkpt>
      <trkpt lat="44.56177" lon="2.31353">
        <ele>573.95</ele>
        <time>2018-04-16T09:52:20.000Z</time>
      </trkpt>
      <trkpt lat="44.56167" lon="2.31344">
        <ele>573.05</ele>
        <time>2018-04-16T09:52:30.000Z</time>
      </trkpt>
      <trkpt lat="44.56158" lon="2.31335">
        <ele>572.13</ele>
        <time>2018-04-16T09:52:40.000Z</time>
      </trkpt>
      <trkpt lat="44.56148" lon="2.31327">
        <ele>571.08</ele>
        <time>2018-04-16T09:52:50.000Z</time>
      </trkpt>
      <trkpt lat="44.56137" lon="2.31319">
        <ele>569.97</ele>
        <time>2018-04-16T09:53:00.000Z</time>
      </trkpt>
      <trkpt lat="44.56129" lon="2.31312">
        <ele>568.87</ele>
        <time>2018-04-16T09:53:10.000Z</time>
      </trkpt>
      <trkpt lat="44.56121" lon="2.31301">
        <ele>567.34</ele>
        <time>2018-04-16T09:53:20.000Z</time>
      </trkpt>
      <trkpt lat="44.56114" lon="2.31287">
        <ele>566.2</ele>
        <time>2018-04-16T09:53:30.000Z</time>
      </trkpt>
      <trkpt lat="44.56107" lon="2.31274">
        <ele>565.39</ele>
        <time>2018-04-16T09:53:40.000Z</time>
      </trkpt>
      <trkpt lat="44.561" lon="2.31261">
        <ele>564.07</ele>
        <time>2018-04-16T09:53:50.000Z</time>
      </trkpt>
      <trkpt lat="44.56096" lon="2.31247">
        <ele>562.37</ele>
        <time>2018-04-16T09:54:00.000Z</time>
      </trkpt>
      <trkpt lat="44.56091" lon="2.31233">
        <ele>561.15</ele>
        <time>2018-04-16T09:54:10.000Z</time>
      </trkpt>
      <trkpt lat="44.56087" lon="2.31218">
        <ele>560.12</ele>
        <time>2018-04-16T09:54:20.000Z</time>
      </trkpt>
      <trkpt lat="44.56083" lon="2.31201">
        <ele>559.9</ele>
        <time>2018-04-16T09:54:30.000Z</time>
      </trkpt>
      <trkpt lat="44.56078" lon="2.31184">
        <ele>558.67</ele>
        <time>2018-04-16T09:54:40.000Z</time>
      </trkpt>
      <trkpt lat="44.56073" lon="2.31166">
        <ele>558.43</ele>
        <time>2018-04-16T09:54:50.000Z</time>
      </trkpt>
      <trkpt lat="44.56068" lon="2.31152">
        <ele>557.63</ele>
        <time>2018-04-16T09:55:00.000Z</time>
      </trkpt>
      <trkpt lat="44.56064" lon="2.31136">
        <ele>557.34</ele>
        <time>2018-04-16T09:55:10.000Z</time>
      </trkpt>
      <trkpt lat="44.56061" lon="2.31121">
        <ele>556.46</ele>
        <time>2018-04-16T09:55:20.000Z</time>
      </trkpt>
      <trkpt lat="44.56053" lon="2.31108">
        <ele>555.99</ele>
        <time>2018-04-16T09:55:30.000Z</time>
      </trkpt>
      <trkpt lat="44.56047" lon="2.31096">
        <ele>554.65</ele>
        <time>2018-04-16T09:55:40.000Z</time>
      </trkpt>
      <trkpt lat="44.56041" lon="2.31086">
        <ele>552.87</ele>
        <time>2018-04-16T09:55:50.000Z</time>
      </trkpt>
      <trkpt lat="44.56034" lon="2.31074">
        <ele>551.57</ele>
        <time>2018-04-16T09:56:00.000Z</time>
      </trkpt>
      <trkpt lat="44.5603" lon="2.31063">
        <ele>550.46</ele>
        <time>2018-04-16T09:56:10.000Z</time>
      </trkpt>
      <trkpt lat="44.56028" lon="2.31058">
        <ele>550.48</ele>
        <time>2018-04-16T09:56:20.000Z</time>
      </trkpt>
      <trkpt lat="44.56024" lon="2.31045">
        <ele>548.93</ele>
        <time>2018-04-16T09:56:30.000Z</time>
      </trkpt>
      <trkpt lat="44.56022" lon="2.31027">
        <ele>547.93</ele>
        <time>2018-04-16T09:56:40.000Z</time>
      </trkpt>
      <trkpt lat="44.5602" lon="2.31011">
        <ele>547.72</ele>
        <time>2018-04-16T09:56:50.000Z</time>
      </trkpt>
      <trkpt lat="44.56019" lon="2.31">
        <ele>547.54</ele>
        <time>2018-04-16T09:57:00.000Z</time>
      </trkpt>
      <trkpt lat="44.56017" lon="2.30988">
        <ele>546.14</ele>
        <time>2018-04-16T09:57:10.000Z</time>
      </trkpt>
      <trkpt lat="44.56014" lon="2.30973">
        <ele>545.36</ele>
        <time>2018-04-16T09:57:20.000Z</time>
      </trkpt>
      <trkpt lat="44.56011" lon="2.30957">
        <ele>543.67</ele>
        <time>2018-04-16T09:57:30.000Z</time>
      </trkpt>
      <trkpt lat="44.56009" lon="2.3094">
        <ele>543.13</ele>
        <time>2018-04-16T09:57:40.000Z</time>
      </trkpt>
      <trkpt lat="44.56009" lon="2.30923">
        <ele>542.67</ele>
        <time>2018-04-16T09:57:50.000Z</time>
      </trkpt>
      <trkpt lat="44.56014" lon="2.30903">
        <ele>541.82</ele>
        <time>2018-04-16T09:58:00.000Z</time>
      </trkpt>
      <trkpt lat="44.56017" lon="2.30885">
        <ele>541.07</ele>
        <time>2018-04-16T09:58:10.000Z</time>
      </trkpt>
      <trkpt lat="44.56018" lon="2.30868">
        <ele>540.18</ele>
        <time>2018-04-16T09:58:20.000Z</time>
      </trkpt>
      <trkpt lat="44.56021" lon="2.30852">
        <ele>540.19</ele>
        <time>2018-04-16T09:58:30.000Z</time>
      </trkpt>
      <trkpt lat="44.56024" lon="2.30837">
        <ele>540.39</ele>
        <time>2018-04-16T09:58:40.000Z</time>
      </trkpt>
      <trkpt lat="44.56027" lon="2.30821">
        <ele>540.72</ele>
        <time>2018-04-16T09:58:50.000Z</time>
      </trkpt>
      <trkpt lat="44.56029" lon="2.30805">
        <ele>540.57</ele>
        <time>2018-04-16T09:59:00.000Z</time>
      </trkpt>
      <trkpt lat="44.56031" lon="2.30791">
        <ele>540.26</ele>
        <time>2018-04-16T09:59:10.000Z</time>
      </trkpt>
      <trkpt lat="44.56029" lon="2.30779">
        <ele>540.57</ele>
        <time>2018-04-16T09:59:20.000Z</time>
      </trkpt>
      <trkpt lat="44.56029" lon="2.30763">
        <ele>540.49</ele>
        <time>2018-04-16T09:59:30.000Z</time>
      </trkpt>
      <trkpt lat="44.56028" lon="2.30748">
        <ele>540.8</ele>
        <time>2018-04-16T09:59:40.000Z</time>
      </trkpt>
      <trkpt lat="44.56026" lon="2.30735">
        <ele>540.28</ele>
        <time>2018-04-16T09:59:50.000Z</time>
      </trkpt>
      <trkpt lat="44.56025" lon="2.30722">
        <ele>540.08</ele>
        <time>2018-04-16T10:00:00.000Z</time>
      </trkpt>
      <trkpt lat="44.56024" lon="2.30704">
        <ele>539.91</ele>
        <time>2018-04-16T10:00:10.000Z</time>
      </trkpt>
      <trkpt lat="44.56023" lon="2.30687">
        <ele>539.83</ele>
        <time>2018-04-16T10:00:20.000Z</time>
      </trkpt>
      <trkpt lat="44.56023" lon="2.30671">
        <ele>539.56</ele>
        <time>2018-04-16T10:00:30.000Z</time>
      </trkpt>
      <trkpt lat="44.5602" lon="2.30655">
        <ele>539.18</ele>
        <time>2018-04-16T10:00:40.000Z</time>
      </trkpt>
      <trkpt lat="44.56016" lon="2.30642">
        <ele>539.4</ele>
        <time>2018-04-16T10:00:50.000Z</time>
      </trkpt>
      <trkpt lat="44.56013" lon="2.30628">
        <ele>539.68</ele>
        <time>2018-04-16T10:01:00.000Z</time>
      </trkpt>
      <trkpt lat="44.56011" lon="2.30614">
        <ele>540.1</ele>
        <time>2018-04-16T10:01:10.000Z</time>
      </trkpt>
      <trkpt lat="44.5601" lon="2.30599">
        <ele>540.02</ele>
        <time>2018-04-16T10:01:20.000Z</time>
      </trkpt>
      <trkpt lat="44.56011" lon="2.30581">
        <ele>539.83</ele>
        <time>2018-04-16T10:01:30.000Z</time>
      </trkpt>
      <trkpt lat="44.56012" lon="2.30567">
        <ele>539.08</ele>
        <time>2018-04-16T10:01:40.000Z</time>
      </trkpt>
      <trkpt lat="44.56013" lon="2.30551">
        <ele>539.37</ele>
        <time>2018-04-16T10:01:50.000Z</time>
      </trkpt>
      <trkpt lat="44.56013" lon="2.30535">
        <ele>539.89</ele>
        <time>2018-04-16T10:02:00.000Z</time>
      </trkpt>
      <trkpt lat="44.56013" lon="2.3052">
        <ele>539.41</ele>
        <time>2018-04-16T10:02:10.000Z</time>
      </trkpt>
      <trkpt lat="44.56014" lon="2.30505">
        <ele>538.89</ele>
        <time>2018-04-16T10:02:20.000Z</time>
      </trkpt>
      <trkpt lat="44.56016" lon="2.30489">
        <ele>539.26</ele>
        <time>2018-04-16T10:02:30.000Z</time>
      </trkpt>
      <trkpt lat="44.56019" lon="2.30474">
        <ele>539.17</ele>
        <time>2018-04-16T10:02:40.000Z</time>
      </trkpt>
      <trkpt lat="44.5602" lon="2.30461">
        <ele>538.69</ele>
        <time>2018-04-16T10:02:50.000Z</time>
      </trkpt>
      <trkpt lat="44.56024" lon="2.30446">
        <ele>538.58</ele>
        <time>2018-04-16T10:03:00.000Z</time>
      </trkpt>
      <trkpt lat="44.56029" lon="2.30431">
        <ele>538.65</ele>
        <time>2018-04-16T10:03:10.000Z</time>
      </trkpt>
      <trkpt lat="44.56031" lon="2.30416">
        <ele>538.14</ele>
        <time>2018-04-16T10:03:20.000Z</time>
      </trkpt>
      <trkpt lat="44.56032" lon="2.30401">
        <ele>538.79</ele>
        <time>2018-04-16T10:03:30.000Z</time>
      </trkpt>
      <trkpt lat="44.5603" lon="2.30389">
        <ele>539.38</ele>
        <time>2018-04-16T10:03:40.000Z</time>
      </trkpt>
      <trkpt lat="44.56031" lon="2.30377">
        <ele>537.99</ele>
        <time>2018-04-16T10:03:50.000Z</time>
      </trkpt>
      <trkpt lat="44.56032" lon="2.30365">
        <ele>536.67</ele>
        <time>2018-04-16T10:04:00.000Z</time>
      </trkpt>
      <trkpt lat="44.56034" lon="2.30351">
        <ele>535.63</ele>
        <time>2018-04-16T10:04:10.000Z</time>
      </trkpt>
      <trkpt lat="44.56034" lon="2.30339">
        <ele>534.61</ele>
        <time>2018-04-16T10:04:20.000Z</time>
      </trkpt>
      <trkpt lat="44.56032" lon="2.3033">
        <ele>533.63</ele>
        <time>2018-04-16T10:04:30.000Z</time>
      </trkpt>
      <trkpt lat="44.56031" lon="2.3032">
        <ele>532.34</ele>
        <time>2018-04-16T10:04:40.000Z</time>
      </trkpt>
      <trkpt lat="44.56033" lon="2.30309">
        <ele>530.51</ele>
        <time>2018-04-16T10:04:50.000Z</time>
      </trkpt>
      <trkpt lat="44.56032" lon="2.303">
        <ele>529.11</ele>
        <time>2018-04-16T10:05:00.000Z</time>
      </trkpt>
      <trkpt lat="44.56033" lon="2.30289">
        <ele>527.74</ele>
        <time>2018-04-16T10:05:10.000Z</time>
      </trkpt>
      <trkpt lat="44.56033" lon="2.30279">
        <ele>526.07</ele>
        <time>2018-04-16T10:05:20.000Z</time>
      </trkpt>
      <trkpt lat="44.56031" lon="2.30271">
        <ele>525.13</ele>
        <time>2018-04-16T10:05:30.000Z</time>
      </trkpt>
      <trkpt lat="44.56033" lon="2.30261">
        <ele>525.45</ele>
        <time>2018-04-16T10:05:40.000Z</time>
      </trkpt>
      <trkpt lat="44.56032" lon="2.3025">
        <ele>525.29</ele>
        <time>2018-04-16T10:05:50.000Z</time>
      </trkpt>
      <trkpt lat="44.56029" lon="2.30237">
        <ele>524.27</ele>
        <time>2018-04-16T10:06:00.000Z</time>
      </trkpt>
      <trkpt lat="44.56031" lon="2.30223">
        <ele>522.74</ele>
        <time>2018-04-16T10:06:10.000Z</time>
      </trkpt>
      <trkpt lat="44.56034" lon="2.30212">
        <ele>521.14</ele>
        <time>2018-04-16T10:06:20.000Z</time>
      </trkpt>
      <trkpt lat="44.56036" lon="2.30201">
        <ele>520.37</ele>
        <time>2018-04-16T10:06:30.000Z</time>
      </trkpt>
      <trkpt lat="44.56037" lon="2.3019">
        <ele>518.91</ele>
        <time>2018-04-16T10:06:40.000Z</time>
      </trkpt>
      <trkpt lat="44.56038" lon="2.30177">
        <ele>518.2</ele>
        <time>2018-04-16T10:06:50.000Z</time>
      </trkpt>
      <trkpt lat="44.56037" lon="2.30168">
        <ele>516.47</ele>
        <time>2018-04-16T10:07:00.000Z</time>
      </trkpt>
      <trkpt lat="44.5604" lon="2.30155">
        <ele>514.73</ele>
        <time>2018-04-16T10:07:10.000Z</time>
      </trkpt>
      <trkpt lat="44.56039" lon="2.30142">
        <ele>514.08</ele>
        <time>2018-04-16T10:07:20.000Z</time>
      </trkpt>
      <trkpt lat="44.56037" lon="2.30128">
        <ele>513.87</ele>
        <time>2018-04-16T10:07:30.000Z</time>
      </trkpt>
      <trkpt lat="44.56031" lon="2.30118">
        <ele>512.93</ele>
        <time>2018-04-16T10:07:40.000Z</time>
      </trkpt>
      <trkpt lat="44.56028" lon="2.30116">
        <ele>513.19</ele>
        <time>2018-04-16T10:07:50.000Z</time>
      </trkpt>
      <trkpt lat="44.56027" lon="2.30114">
        <ele>512.58</ele>
        <time>2018-04-16T10:08:01.000Z</time>
      </trkpt>
      <trkpt lat="44.56023" lon="2.301">
        <ele>512.14</ele>
        <time>2018-04-16T10:08:11.000Z</time>
      </trkpt>
      <trkpt lat="44.56021" lon="2.30087">
        <ele>511.53</ele>
        <time>2018-04-16T10:08:21.000Z</time>
      </trkpt>
      <trkpt lat="44.5602" lon="2.30072">
        <ele>509.59</ele>
        <time>2018-04-16T10:08:31.000Z</time>
      </trkpt>
      <trkpt lat="44.56019" lon="2.30054">
        <ele>508.13</ele>
        <time>2018-04-16T10:08:41.000Z</time>
      </trkpt>
      <trkpt lat="44.56017" lon="2.3004">
        <ele>506.86</ele>
        <time>2018-04-16T10:08:51.000Z</time>
      </trkpt>
      <trkpt lat="44.56013" lon="2.30026">
        <ele>505.95</ele>
        <time>2018-04-16T10:09:01.000Z</time>
      </trkpt>
      <trkpt lat="44.56012" lon="2.30013">
        <ele>504.91</ele>
        <time>2018-04-16T10:09:11.000Z</time>
      </trkpt>
      <trkpt lat="44.56009" lon="2.30001">
        <ele>503.8</ele>
        <time>2018-04-16T10:09:21.000Z</time>
      </trkpt>
      <trkpt lat="44.56007" lon="2.2999">
        <ele>501.95</ele>
        <time>2018-04-16T10:09:31.000Z</time>
      </trkpt>
      <trkpt lat="44.56004" lon="2.29981">
        <ele>500.33</ele>
        <time>2018-04-16T10:09:41.000Z</time>
      </trkpt>
      <trkpt lat="44.56002" lon="2.29972">
        <ele>499.39</ele>
        <time>2018-04-16T10:09:51.000Z</time>
      </trkpt>
      <trkpt lat="44.56" lon="2.2996">
        <ele>497.98</ele>
        <time>2018-04-16T10:10:01.000Z</time>
      </trkpt>
      <trkpt lat="44.55998" lon="2.2995">
        <ele>496.35</ele>
        <time>2018-04-16T10:10:11.000Z</time>
      </trkpt>
      <trkpt lat="44.55997" lon="2.29939">
        <ele>494.85</ele>
        <time>2018-04-16T10:10:21.000Z</time>
      </trkpt>
      <trkpt lat="44.55997" lon="2.29927">
        <ele>493.7</ele>
        <time>2018-04-16T10:10:31.000Z</time>
      </trkpt>
      <trkpt lat="44.55993" lon="2.29918">
        <ele>491.91</ele>
        <time>2018-04-16T10:10:41.000Z</time>
      </trkpt>
      <trkpt lat="44.55989" lon="2.29906">
        <ele>490.68</ele>
        <time>2018-04-16T10:10:51.000Z</time>
      </trkpt>
      <trkpt lat="44.55988" lon="2.29892">
        <ele>489.97</ele>
        <time>2018-04-16T10:11:01.000Z</time>
      </trkpt>
      <trkpt lat="44.55988" lon="2.29879">
        <ele>488.63</ele>
        <time>2018-04-16T10:11:11.000Z</time>
      </trkpt>
      <trkpt lat="44.55986" lon="2.29866">
        <ele>487.58</ele>
        <time>2018-04-16T10:11:21.000Z</time>
      </trkpt>
      <trkpt lat="44.55982" lon="2.29849">
        <ele>486.8</ele>
        <time>2018-04-16T10:11:31.000Z</time>
      </trkpt>
      <trkpt lat="44.55979" lon="2.29832">
        <ele>486.02</ele>
        <time>2018-04-16T10:11:41.000Z</time>
      </trkpt>
      <trkpt lat="44.55979" lon="2.2983">
        <ele>486.18</ele>
        <time>2018-04-16T10:11:51.000Z</time>
      </trkpt>
      <trkpt lat="44.55978" lon="2.29817">
        <ele>485.78</ele>
        <time>2018-04-16T10:12:01.000Z</time>
      </trkpt>
      <trkpt lat="44.5598" lon="2.29803">
        <ele>485.24</ele>
        <time>2018-04-16T10:12:11.000Z</time>
      </trkpt>
      <trkpt lat="44.55985" lon="2.29789">
        <ele>484.35</ele>
        <time>2018-04-16T10:12:21.000Z</time>
      </trkpt>
      <trkpt lat="44.55993" lon="2.29774">
        <ele>483.93</ele>
        <time>2018-04-16T10:12:31.000Z</time>
      </trkpt>
      <trkpt lat="44.56001" lon="2.2976">
        <ele>482.96</ele>
        <time>2018-04-16T10:12:41.000Z</time>
      </trkpt>
      <trkpt lat="44.5601" lon="2.29748">
        <ele>482.12</ele>
        <time>2018-04-16T10:12:51.000Z</time>
      </trkpt>
      <trkpt lat="44.5602" lon="2.29736">
        <ele>481.6</ele>
        <time>2018-04-16T10:13:01.000Z</time>
      </trkpt>
      <trkpt lat="44.56031" lon="2.29726">
        <ele>480.79</ele>
        <time>2018-04-16T10:13:11.000Z</time>
      </trkpt>
      <trkpt lat="44.5604" lon="2.29714">
        <ele>480.29</ele>
        <time>2018-04-16T10:13:21.000Z</time>
      </trkpt>
      <trkpt lat="44.56048" lon="2.29702">
        <ele>479.38</ele>
        <time>2018-04-16T10:13:31.000Z</time>
      </trkpt>
      <trkpt lat="44.56059" lon="2.2969">
        <ele>478.81</ele>
        <time>2018-04-16T10:13:41.000Z</time>
      </trkpt>
      <trkpt lat="44.56068" lon="2.29678">
        <ele>478.07</ele>
        <time>2018-04-16T10:13:51.000Z</time>
      </trkpt>
      <trkpt lat="44.56077" lon="2.29666">
        <ele>477.58</ele>
        <time>2018-04-16T10:14:01.000Z</time>
      </trkpt>
      <trkpt lat="44.56086" lon="2.29654">
        <ele>476.35</ele>
        <time>2018-04-16T10:14:11.000Z</time>
      </trkpt>
      <trkpt lat="44.56094" lon="2.29641">
        <ele>475.62</ele>
        <time>2018-04-16T10:14:21.000Z</time>
      </trkpt>
      <trkpt lat="44.56102" lon="2.29627">
        <ele>474.86</ele>
        <time>2018-04-16T10:14:31.000Z</time>
      </trkpt>
      <trkpt lat="44.56108" lon="2.2961">
        <ele>473.91</ele>
        <time>2018-04-16T10:14:41.000Z</time>
      </trkpt>
      <trkpt lat="44.56112" lon="2.29595">
        <ele>473.84</ele>
        <time>2018-04-16T10:14:51.000Z</time>
      </trkpt>
      <trkpt lat="44.56115" lon="2.2958">
        <ele>473.04</ele>
        <time>2018-04-16T10:15:01.000Z</time>
      </trkpt>
      <trkpt lat="44.56117" lon="2.29562">
        <ele>471.83</ele>
        <time>2018-04-16T10:15:11.000Z</time>
      </trkpt>
      <trkpt lat="44.56116" lon="2.29544">
        <ele>470.72</ele>
        <time>2018-04-16T10:15:21.000Z</time>
      </trkpt>
      <trkpt lat="44.56113" lon="2.29528">
        <ele>470.02</ele>
        <time>2018-04-16T10:15:31.000Z</time>
      </trkpt>
      <trkpt lat="44.56105" lon="2.29516">
        <ele>469.48</ele>
        <time>2018-04-16T10:15:41.000Z</time>
      </trkpt>
      <trkpt lat="44.56098" lon="2.29502">
        <ele>468.47</ele>
        <time>2018-04-16T10:15:51.000Z</time>
      </trkpt>
      <trkpt lat="44.56092" lon="2.29486">
        <ele>467.95</ele>
        <time>2018-04-16T10:16:01.000Z</time>
      </trkpt>
      <trkpt lat="44.56091" lon="2.29471">
        <ele>466.47</ele>
        <time>2018-04-16T10:16:11.000Z</time>
      </trkpt>
      <trkpt lat="44.56091" lon="2.29457">
        <ele>465.5</ele>
        <time>2018-04-16T10:16:21.000Z</time>
      </trkpt>
      <trkpt lat="44.5609" lon="2.29439">
        <ele>464.76</ele>
        <time>2018-04-16T10:16:31.000Z</time>
      </trkpt>
      <trkpt lat="44.56092" lon="2.29423">
        <ele>464.02</ele>
        <time>2018-04-16T10:16:41.000Z</time>
      </trkpt>
      <trkpt lat="44.56092" lon="2.29404">
        <ele>463.32</ele>
        <time>2018-04-16T10:16:51.000Z</time>
      </trkpt>
      <trkpt lat="44.56093" lon="2.29385">
        <ele>462.56</ele>
        <time>2018-04-16T10:17:01.000Z</time>
      </trkpt>
      <trkpt lat="44.56093" lon="2.29367">
        <ele>462.17</ele>
        <time>2018-04-16T10:17:11.000Z</time>
      </trkpt>
      <trkpt lat="44.56093" lon="2.29351">
        <ele>461.14</ele>
        <time>2018-04-16T10:17:21.000Z</time>
      </trkpt>
      <trkpt lat="44.56094" lon="2.29335">
        <ele>460.63</ele>
        <time>2018-04-16T10:17:31.000Z</time>
      </trkpt>
      <trkpt lat="44.56096" lon="2.29318">
        <ele>460.51</ele>
        <time>2018-04-16T10:17:41.000Z</time>
      </trkpt>
      <trkpt lat="44.56101" lon="2.29303">
        <ele>460.56</ele>
        <time>2018-04-16T10:17:51.000Z</time>
      </trkpt>
      <trkpt lat="44.56108" lon="2.29293">
        <ele>460.84</ele>
        <time>2018-04-16T10:18:01.000Z</time>
      </trkpt>
      <trkpt lat="44.56114" lon="2.29281">
        <ele>461.21</ele>
        <time>2018-04-16T10:18:11.000Z</time>
      </trkpt>
      <trkpt lat="44.56122" lon="2.29267">
        <ele>461.77</ele>
        <time>2018-04-16T10:18:21.000Z</time>
      </trkpt>
      <trkpt lat="44.56128" lon="2.29254">
        <ele>461.93</ele>
        <time>2018-04-16T10:18:31.000Z</time>
      </trkpt>
      <trkpt lat="44.56136" lon="2.2924">
        <ele>462.14</ele>
        <time>2018-04-16T10:18:41.000Z</time>
      </trkpt>
      <trkpt lat="44.56141" lon="2.29226">
        <ele>462.31</ele>
        <time>2018-04-16T10:18:51.000Z</time>
      </trkpt>
      <trkpt lat="44.56145" lon="2.2921">
        <ele>462.82</ele>
        <time>2018-04-16T10:19:01.000Z</time>
      </trkpt>
      <trkpt lat="44.56151" lon="2.29193">
        <ele>463.17</ele>
        <time>2018-04-16T10:19:11.000Z</time>
      </trkpt>
      <trkpt lat="44.56158" lon="2.29178">
        <ele>463.72</ele>
        <time>2018-04-16T10:19:21.000Z</time>
      </trkpt>
      <trkpt lat="44.56166" lon="2.29165">
        <ele>463.62</ele>
        <time>2018-04-16T10:19:31.000Z</time>
      </trkpt>
      <trkpt lat="44.56174" lon="2.29154">
        <ele>464</ele>
        <time>2018-04-16T10:19:41.000Z</time>
      </trkpt>
      <trkpt lat="44.56182" lon="2.29142">
        <ele>464.7</ele>
        <time>2018-04-16T10:19:51.000Z</time>
      </trkpt>
      <trkpt lat="44.56191" lon="2.2913">
        <ele>464.83</ele>
        <time>2018-04-16T10:20:01.000Z</time>
      </trkpt>
      <trkpt lat="44.562" lon="2.29116">
        <ele>465.01</ele>
        <time>2018-04-16T10:20:11.000Z</time>
      </trkpt>
      <trkpt lat="44.56207" lon="2.29103">
        <ele>465.91</ele>
        <time>2018-04-16T10:20:21.000Z</time>
      </trkpt>
      <trkpt lat="44.56215" lon="2.29091">
        <ele>466.08</ele>
        <time>2018-04-16T10:20:31.000Z</time>
      </trkpt>
      <trkpt lat="44.56222" lon="2.2908">
        <ele>465.32</ele>
        <time>2018-04-16T10:20:41.000Z</time>
      </trkpt>
      <trkpt lat="44.56231" lon="2.29067">
        <ele>465.23</ele>
        <time>2018-04-16T10:20:51.000Z</time>
      </trkpt>
      <trkpt lat="44.56239" lon="2.29056">
        <ele>465.38</ele>
        <time>2018-04-16T10:21:01.000Z</time>
      </trkpt>
      <trkpt lat="44.56247" lon="2.29043">
        <ele>466.07</ele>
        <time>2018-04-16T10:21:11.000Z</time>
      </trkpt>
      <trkpt lat="44.56255" lon="2.29031">
        <ele>466.06</ele>
        <time>2018-04-16T10:21:21.000Z</time>
      </trkpt>
      <trkpt lat="44.56263" lon="2.29017">
        <ele>465.85</ele>
        <time>2018-04-16T10:21:31.000Z</time>
      </trkpt>
      <trkpt lat="44.56269" lon="2.29003">
        <ele>466.17</ele>
        <time>2018-04-16T10:21:41.000Z</time>
      </trkpt>
      <trkpt lat="44.56271" lon="2.29">
        <ele>466.55</ele>
        <time>2018-04-16T10:21:51.000Z</time>
      </trkpt>
      <trkpt lat="44.5627" lon="2.28999">
        <ele>465.74</ele>
        <time>2018-04-16T10:22:29.000Z</time>
      </trkpt>
      <trkpt lat="44.56272" lon="2.28986">
        <ele>465.87</ele>
        <time>2018-04-16T10:22:39.000Z</time>
      </trkpt>
      <trkpt lat="44.56271" lon="2.28979">
        <ele>465.91</ele>
        <time>2018-04-16T10:22:49.000Z</time>
      </trkpt>
      <trkpt lat="44.5627" lon="2.28966">
        <ele>465.6</ele>
        <time>2018-04-16T10:22:59.000Z</time>
      </trkpt>
      <trkpt lat="44.5627" lon="2.2895">
        <ele>464.06</ele>
        <time>2018-04-16T10:23:09.000Z</time>
      </trkpt>
      <trkpt lat="44.56268" lon="2.28934">
        <ele>463.19</ele>
        <time>2018-04-16T10:23:19.000Z</time>
      </trkpt>
      <trkpt lat="44.56266" lon="2.28919">
        <ele>462.16</ele>
        <time>2018-04-16T10:23:29.000Z</time>
      </trkpt>
      <trkpt lat="44.56266" lon="2.28902">
        <ele>460.67</ele>
        <time>2018-04-16T10:23:39.000Z</time>
      </trkpt>
      <trkpt lat="44.56264" lon="2.28887">
        <ele>459.03</ele>
        <time>2018-04-16T10:23:49.000Z</time>
      </trkpt>
      <trkpt lat="44.56263" lon="2.28871">
        <ele>457.83</ele>
        <time>2018-04-16T10:23:59.000Z</time>
      </trkpt>
      <trkpt lat="44.56264" lon="2.28854">
        <ele>456.52</ele>
        <time>2018-04-16T10:24:09.000Z</time>
      </trkpt>
      <trkpt lat="44.56262" lon="2.28837">
        <ele>455.38</ele>
        <time>2018-04-16T10:24:19.000Z</time>
      </trkpt>
      <trkpt lat="44.56258" lon="2.2882">
        <ele>454.36</ele>
        <time>2018-04-16T10:24:29.000Z</time>
      </trkpt>
      <trkpt lat="44.56251" lon="2.28807">
        <ele>453.56</ele>
        <time>2018-04-16T10:24:39.000Z</time>
      </trkpt>
      <trkpt lat="44.56242" lon="2.28795">
        <ele>452.77</ele>
        <time>2018-04-16T10:24:49.000Z</time>
      </trkpt>
      <trkpt lat="44.56232" lon="2.28784">
        <ele>451.82</ele>
        <time>2018-04-16T10:24:59.000Z</time>
      </trkpt>
      <trkpt lat="44.56224" lon="2.28772">
        <ele>451.04</ele>
        <time>2018-04-16T10:25:09.000Z</time>
      </trkpt>
      <trkpt lat="44.56218" lon="2.28759">
        <ele>449.57</ele>
        <time>2018-04-16T10:25:19.000Z</time>
      </trkpt>
      <trkpt lat="44.56216" lon="2.28744">
        <ele>448.27</ele>
        <time>2018-04-16T10:25:29.000Z</time>
      </trkpt>
      <trkpt lat="44.56216" lon="2.28728">
        <ele>447.39</ele>
        <time>2018-04-16T10:25:39.000Z</time>
      </trkpt>
      <trkpt lat="44.56219" lon="2.28711">
        <ele>446.23</ele>
        <time>2018-04-16T10:25:49.000Z</time>
      </trkpt>
      <trkpt lat="44.56221" lon="2.28694">
        <ele>445.75</ele>
        <time>2018-04-16T10:25:59.000Z</time>
      </trkpt>
      <trkpt lat="44.56223" lon="2.28678">
        <ele>445.42</ele>
        <time>2018-04-16T10:26:09.000Z</time>
      </trkpt>
      <trkpt lat="44.56228" lon="2.2866">
        <ele>443.98</ele>
        <time>2018-04-16T10:26:19.000Z</time>
      </trkpt>
      <trkpt lat="44.56233" lon="2.28643">
        <ele>442.98</ele>
        <time>2018-04-16T10:26:29.000Z</time>
      </trkpt>
      <trkpt lat="44.56237" lon="2.28629">
        <ele>441.48</ele>
        <time>2018-04-16T10:26:39.000Z</time>
      </trkpt>
      <trkpt lat="44.56244" lon="2.28615">
        <ele>440.33</ele>
        <time>2018-04-16T10:26:49.000Z</time>
      </trkpt>
      <trkpt lat="44.5625" lon="2.28602">
        <ele>438.98</ele>
        <time>2018-04-16T10:26:59.000Z</time>
      </trkpt>
      <trkpt lat="44.56258" lon="2.28588">
        <ele>437.96</ele>
        <time>2018-04-16T10:27:09.000Z</time>
      </trkpt>
      <trkpt lat="44.56265" lon="2.28576">
        <ele>436.21</ele>
        <time>2018-04-16T10:27:19.000Z</time>
      </trkpt>
      <trkpt lat="44.56272" lon="2.28563">
        <ele>435.62</ele>
        <time>2018-04-16T10:27:29.000Z</time>
      </trkpt>
      <trkpt lat="44.5628" lon="2.28551">
        <ele>433.67</ele>
        <time>2018-04-16T10:27:39.000Z</time>
      </trkpt>
      <trkpt lat="44.56287" lon="2.28539">
        <ele>432.35</ele>
        <time>2018-04-16T10:27:49.000Z</time>
      </trkpt>
      <trkpt lat="44.56294" lon="2.28525">
        <ele>431.59</ele>
        <time>2018-04-16T10:27:59.000Z</time>
      </trkpt>
      <trkpt lat="44.56302" lon="2.28512">
        <ele>430.54</ele>
        <time>2018-04-16T10:28:09.000Z</time>
      </trkpt>
      <trkpt lat="44.56311" lon="2.28499">
        <ele>429.61</ele>
        <time>2018-04-16T10:28:19.000Z</time>
      </trkpt>
      <trkpt lat="44.56319" lon="2.28486">
        <ele>428.73</ele>
        <time>2018-04-16T10:28:29.000Z</time>
      </trkpt>
      <trkpt lat="44.56327" lon="2.28474">
        <ele>426.67</ele>
        <time>2018-04-16T10:28:39.000Z</time>
      </trkpt>
      <trkpt lat="44.56334" lon="2.28462">
        <ele>425.66</ele>
        <time>2018-04-16T10:28:49.000Z</time>
      </trkpt>
      <trkpt lat="44.56343" lon="2.28451">
        <ele>424.93</ele>
        <time>2018-04-16T10:28:59.000Z</time>
      </trkpt>
      <trkpt lat="44.56351" lon="2.2844">
        <ele>423.8</ele>
        <time>2018-04-16T10:29:09.000Z</time>
      </trkpt>
      <trkpt lat="44.56361" lon="2.28428">
        <ele>422.4</ele>
        <time>2018-04-16T10:29:19.000Z</time>
      </trkpt>
      <trkpt lat="44.5637" lon="2.28422">
        <ele>421.13</ele>
        <time>2018-04-16T10:29:29.000Z</time>
      </trkpt>
      <trkpt lat="44.56379" lon="2.28418">
        <ele>420.01</ele>
        <time>2018-04-16T10:29:39.000Z</time>
      </trkpt>
      <trkpt lat="44.56389" lon="2.28416">
        <ele>419.32</ele>
        <time>2018-04-16T10:29:49.000Z</time>
      </trkpt>
      <trkpt lat="44.56399" lon="2.28415">
        <ele>418.01</ele>
        <time>2018-04-16T10:29:59.000Z</time>
      </trkpt>
      <trkpt lat="44.56402" lon="2.28406">
        <ele>417.19</ele>
        <time>2018-04-16T10:30:09.000Z</time>
      </trkpt>
      <trkpt lat="44.56396" lon="2.28396">
        <ele>415.87</ele>
        <time>2018-04-16T10:30:19.000Z</time>
      </trkpt>
      <trkpt lat="44.56388" lon="2.28384">
        <ele>414.68</ele>
        <time>2018-04-16T10:30:29.000Z</time>
      </trkpt>
      <trkpt lat="44.56386" lon="2.28372">
        <ele>413.65</ele>
        <time>2018-04-16T10:30:39.000Z</time>
      </trkpt>
      <trkpt lat="44.56382" lon="2.28358">
        <ele>412.16</ele>
        <time>2018-04-16T10:30:49.000Z</time>
      </trkpt>
      <trkpt lat="44.56375" lon="2.28349">
        <ele>410.88</ele>
        <time>2018-04-16T10:30:59.000Z</time>
      </trkpt>
      <trkpt lat="44.56369" lon="2.28352">
        <ele>412.17</ele>
        <time>2018-04-16T10:31:09.000Z</time>
      </trkpt>
      <trkpt lat="44.56367" lon="2.28353">
        <ele>411.89</ele>
        <time>2018-04-16T10:31:19.000Z</time>
      </trkpt>
      <trkpt lat="44.56367" lon="2.28352">
        <ele>412.58</ele>
        <time>2018-04-16T10:31:34.000Z</time>
      </trkpt>
      <trkpt lat="44.56367" lon="2.28351">
        <ele>412</ele>
        <time>2018-04-16T10:31:44.000Z</time>
      </trkpt>
      <trkpt lat="44.56369" lon="2.28351">
        <ele>412.02</ele>
        <time>2018-04-16T10:31:57.000Z</time>
      </trkpt>
      <trkpt lat="44.56373" lon="2.28352">
        <ele>412.33</ele>
        <time>2018-04-16T10:32:07.000Z</time>
      </trkpt>
      <trkpt lat="44.56373" lon="2.28353">
        <ele>412.31</ele>
        <time>2018-04-16T10:32:22.000Z</time>
      </trkpt>
      <trkpt lat="44.56372" lon="2.28352">
        <ele>412.29</ele>
        <time>2018-04-16T10:33:13.000Z</time>
      </trkpt>
      <trkpt lat="44.56372" lon="2.28351">
        <ele>412.57</ele>
        <time>2018-04-16T10:33:58.000Z</time>
      </trkpt>
      <trkpt lat="44.56372" lon="2.28351">
        <ele>412.49</ele>
        <time>2018-04-16T10:34:08.000Z</time>
      </trkpt>
      <trkpt lat="44.56371" lon="2.28352">
        <ele>412.57</ele>
        <time>2018-04-16T10:34:26.000Z</time>
      </trkpt>
      <trkpt lat="44.5637" lon="2.28355">
        <ele>412.63</ele>
        <time>2018-04-16T10:34:36.000Z</time>
      </trkpt>
      <trkpt lat="44.56371" lon="2.2836">
        <ele>412.57</ele>
        <time>2018-04-16T10:34:46.000Z</time>
      </trkpt>
      <trkpt lat="44.5637" lon="2.2836">
        <ele>411.94</ele>
        <time>2018-04-16T10:35:09.000Z</time>
      </trkpt>
      <trkpt lat="44.56368" lon="2.2836">
        <ele>411.8</ele>
        <time>2018-04-16T10:35:19.000Z</time>
      </trkpt>
      <trkpt lat="44.56369" lon="2.28354">
        <ele>412.02</ele>
        <time>2018-04-16T10:35:29.000Z</time>
      </trkpt>
      <trkpt lat="44.56367" lon="2.28354">
        <ele>412.32</ele>
        <time>2018-04-16T10:35:39.000Z</time>
      </trkpt>
      <trkpt lat="44.56368" lon="2.28355">
        <ele>412.06</ele>
        <time>2018-04-16T10:35:49.000Z</time>
      </trkpt>
      <trkpt lat="44.56368" lon="2.28356">
        <ele>411.71</ele>
        <time>2018-04-16T10:36:38.000Z</time>
      </trkpt>
      <trkpt lat="44.56369" lon="2.28358">
        <ele>412.29</ele>
        <time>2018-04-16T10:36:48.000Z</time>
      </trkpt>
      <trkpt lat="44.56369" lon="2.28359">
        <ele>411.78</ele>
        <time>2018-04-16T10:37:26.000Z</time>
      </trkpt>
      <trkpt lat="44.5637" lon="2.28361">
        <ele>411.79</ele>
        <time>2018-04-16T10:37:36.000Z</time>
      </trkpt>
      <trkpt lat="44.56369" lon="2.2836">
        <ele>411.69</ele>
        <time>2018-04-16T10:37:55.000Z</time>
      </trkpt>
      <trkpt lat="44.56363" lon="2.28353">
        <ele>411.99</ele>
        <time>2018-04-16T10:38:05.000Z</time>
      </trkpt>
      <trkpt lat="44.56364" lon="2.28353">
        <ele>411.74</ele>
        <time>2018-04-16T10:38:15.000Z</time>
      </trkpt>
      <trkpt lat="44.56369" lon="2.28357">
        <ele>411.61</ele>
        <time>2018-04-16T10:38:25.000Z</time>
      </trkpt>
      <trkpt lat="44.56373" lon="2.28358">
        <ele>411.9</ele>
        <time>2018-04-16T10:38:35.000Z</time>
      </trkpt>
      <trkpt lat="44.56372" lon="2.28359">
        <ele>411.42</ele>
        <time>2018-04-16T10:38:45.000Z</time>
      </trkpt>
      <trkpt lat="44.56371" lon="2.28362">
        <ele>411.36</ele>
        <time>2018-04-16T10:38:55.000Z</time>
      </trkpt>
      <trkpt lat="44.56373" lon="2.28361">
        <ele>411.48</ele>
        <time>2018-04-16T10:39:05.000Z</time>
      </trkpt>
      <trkpt lat="44.56369" lon="2.28354">
        <ele>411.56</ele>
        <time>2018-04-16T10:39:15.000Z</time>
      </trkpt>
      <trkpt lat="44.56364" lon="2.28351">
        <ele>411.33</ele>
        <time>2018-04-16T10:39:25.000Z</time>
      </trkpt>
      <trkpt lat="44.56365" lon="2.2835">
        <ele>411.09</ele>
        <time>2018-04-16T10:39:51.000Z</time>
      </trkpt>
      <trkpt lat="44.56366" lon="2.28349">
        <ele>411.46</ele>
        <time>2018-04-16T10:40:36.000Z</time>
      </trkpt>
      <trkpt lat="44.56369" lon="2.28351">
        <ele>411.22</ele>
        <time>2018-04-16T10:40:46.000Z</time>
      </trkpt>
      <trkpt lat="44.56369" lon="2.28353">
        <ele>411.22</ele>
        <time>2018-04-16T10:41:16.000Z</time>
      </trkpt>
      <trkpt lat="44.56366" lon="2.28351">
        <ele>411.44</ele>
        <time>2018-04-16T10:41:26.000Z</time>
      </trkpt>
      <trkpt lat="44.56364" lon="2.28351">
        <ele>411.16</ele>
        <time>2018-04-16T10:41:36.000Z</time>
      </trkpt>
      <trkpt lat="44.56365" lon="2.28353">
        <ele>410.91</ele>
        <time>2018-04-16T10:41:46.000Z</time>
      </trkpt>
      <trkpt lat="44.56368" lon="2.28357">
        <ele>410.99</ele>
        <time>2018-04-16T10:41:56.000Z</time>
      </trkpt>
      <trkpt lat="44.56364" lon="2.28362">
        <ele>411.26</ele>
        <time>2018-04-16T10:42:06.000Z</time>
      </trkpt>
      <trkpt lat="44.56363" lon="2.28361">
        <ele>411.43</ele>
        <time>2018-04-16T10:42:16.000Z</time>
      </trkpt>
      <trkpt lat="44.56364" lon="2.28359">
        <ele>410.82</ele>
        <time>2018-04-16T10:42:26.000Z</time>
      </trkpt>
      <trkpt lat="44.56367" lon="2.2836">
        <ele>410.91</ele>
        <time>2018-04-16T10:42:36.000Z</time>
      </trkpt>
      <trkpt lat="44.56365" lon="2.28357">
        <ele>411.16</ele>
        <time>2018-04-16T10:42:46.000Z</time>
      </trkpt>
      <trkpt lat="44.56363" lon="2.28355">
        <ele>410.8</ele>
        <time>2018-04-16T10:42:56.000Z</time>
      </trkpt>
      <trkpt lat="44.56366" lon="2.28356">
        <ele>410.76</ele>
        <time>2018-04-16T10:43:06.000Z</time>
      </trkpt>
      <trkpt lat="44.56367" lon="2.28359">
        <ele>410.48</ele>
        <time>2018-04-16T10:43:16.000Z</time>
      </trkpt>
      <trkpt lat="44.56368" lon="2.28358">
        <ele>410.58</ele>
        <time>2018-04-16T10:43:26.000Z</time>
      </trkpt>
      <trkpt lat="44.56373" lon="2.28355">
        <ele>410.34</ele>
        <time>2018-04-16T10:43:36.000Z</time>
      </trkpt>
      <trkpt lat="44.56376" lon="2.28355">
        <ele>410.53</ele>
        <time>2018-04-16T10:43:46.000Z</time>
      </trkpt>
      <trkpt lat="44.56374" lon="2.28357">
        <ele>410.89</ele>
        <time>2018-04-16T10:43:56.000Z</time>
      </trkpt>
      <trkpt lat="44.56375" lon="2.28358">
        <ele>410.8</ele>
        <time>2018-04-16T10:44:38.000Z</time>
      </trkpt>
      <trkpt lat="44.56379" lon="2.28358">
        <ele>410.64</ele>
        <time>2018-04-16T10:44:48.000Z</time>
      </trkpt>
      <trkpt lat="44.56377" lon="2.28358">
        <ele>410.54</ele>
        <time>2018-04-16T10:45:03.000Z</time>
      </trkpt>
      <trkpt lat="44.56374" lon="2.28357">
        <ele>410.73</ele>
        <time>2018-04-16T10:45:13.000Z</time>
      </trkpt>
      <trkpt lat="44.5637" lon="2.28356">
        <ele>410.68</ele>
        <time>2018-04-16T10:45:23.000Z</time>
      </trkpt>
      <trkpt lat="44.56369" lon="2.28356">
        <ele>410.66</ele>
        <time>2018-04-16T10:46:11.000Z</time>
      </trkpt>
      <trkpt lat="44.56367" lon="2.28354">
        <ele>410.85</ele>
        <time>2018-04-16T10:46:21.000Z</time>
      </trkpt>
      <trkpt lat="44.56366" lon="2.28356">
        <ele>410.5</ele>
        <time>2018-04-16T10:46:31.000Z</time>
      </trkpt>
      <trkpt lat="44.56367" lon="2.28357">
        <ele>410.45</ele>
        <time>2018-04-16T10:46:41.000Z</time>
      </trkpt>
      <trkpt lat="44.56368" lon="2.28358">
        <ele>410.53</ele>
        <time>2018-04-16T10:46:51.000Z</time>
      </trkpt>
      <trkpt lat="44.56369" lon="2.28359">
        <ele>410.6</ele>
        <time>2018-04-16T10:47:20.000Z</time>
      </trkpt>
      <trkpt lat="44.56368" lon="2.2836">
        <ele>410.3</ele>
        <time>2018-04-16T10:48:06.000Z</time>
      </trkpt>
      <trkpt lat="44.56369" lon="2.28361">
        <ele>410.6</ele>
        <time>2018-04-16T10:48:25.000Z</time>
      </trkpt>
      <trkpt lat="44.56374" lon="2.28362">
        <ele>410.97</ele>
        <time>2018-04-16T10:48:35.000Z</time>
      </trkpt>
      <trkpt lat="44.56372" lon="2.28362">
        <ele>411.1</ele>
        <time>2018-04-16T10:48:45.000Z</time>
      </trkpt>
      <trkpt lat="44.56369" lon="2.28361">
        <ele>410.7</ele>
        <time>2018-04-16T10:48:55.000Z</time>
      </trkpt>
      <trkpt lat="44.56369" lon="2.28363">
        <ele>411.13</ele>
        <time>2018-04-16T10:49:05.000Z</time>
      </trkpt>
      <trkpt lat="44.56367" lon="2.2836">
        <ele>410.89</ele>
        <time>2018-04-16T10:49:15.000Z</time>
      </trkpt>
      <trkpt lat="44.56362" lon="2.28355">
        <ele>410.96</ele>
        <time>2018-04-16T10:49:25.000Z</time>
      </trkpt>
      <trkpt lat="44.56364" lon="2.28356">
        <ele>411.03</ele>
        <time>2018-04-16T10:49:36.000Z</time>
      </trkpt>
      <trkpt lat="44.56366" lon="2.28359">
        <ele>411.29</ele>
        <time>2018-04-16T10:49:46.000Z</time>
      </trkpt>
      <trkpt lat="44.56366" lon="2.28357">
        <ele>410.44</ele>
        <time>2018-04-16T10:50:00.000Z</time>
      </trkpt>
      <trkpt lat="44.56362" lon="2.28356">
        <ele>410.62</ele>
        <time>2018-04-16T10:50:10.000Z</time>
      </trkpt>
      <trkpt lat="44.56363" lon="2.28356">
        <ele>411.05</ele>
        <time>2018-04-16T10:50:20.000Z</time>
      </trkpt>
      <trkpt lat="44.56368" lon="2.28354">
        <ele>411.1</ele>
        <time>2018-04-16T10:50:30.000Z</time>
      </trkpt>
      <trkpt lat="44.56369" lon="2.28353">
        <ele>410.69</ele>
        <time>2018-04-16T10:50:42.000Z</time>
      </trkpt>
      <trkpt lat="44.56372" lon="2.28354">
        <ele>410.7</ele>
        <time>2018-04-16T10:50:52.000Z</time>
      </trkpt>
      <trkpt lat="44.56373" lon="2.28355">
        <ele>410.83</ele>
        <time>2018-04-16T10:51:09.000Z</time>
      </trkpt>
      <trkpt lat="44.56375" lon="2.28356">
        <ele>411.38</ele>
        <time>2018-04-16T10:51:19.000Z</time>
      </trkpt>
      <trkpt lat="44.56373" lon="2.2836">
        <ele>410.72</ele>
        <time>2018-04-16T10:51:29.000Z</time>
      </trkpt>
      <trkpt lat="44.56371" lon="2.28357">
        <ele>410.7</ele>
        <time>2018-04-16T10:51:39.000Z</time>
      </trkpt>
      <trkpt lat="44.5637" lon="2.28357">
        <ele>410.58</ele>
        <time>2018-04-16T10:51:49.000Z</time>
      </trkpt>
      <trkpt lat="44.56371" lon="2.28358">
        <ele>410.73</ele>
        <time>2018-04-16T10:52:02.000Z</time>
      </trkpt>
      <trkpt lat="44.56374" lon="2.28358">
        <ele>411.15</ele>
        <time>2018-04-16T10:52:12.000Z</time>
      </trkpt>
      <trkpt lat="44.56376" lon="2.28358">
        <ele>410.54</ele>
        <time>2018-04-16T10:52:26.000Z</time>
      </trkpt>
      <trkpt lat="44.56376" lon="2.28356">
        <ele>410.67</ele>
        <time>2018-04-16T10:52:36.000Z</time>
      </trkpt>
      <trkpt lat="44.56373" lon="2.28355">
        <ele>410.93</ele>
        <time>2018-04-16T10:52:46.000Z</time>
      </trkpt>
      <trkpt lat="44.56374" lon="2.28355">
        <ele>410.82</ele>
        <time>2018-04-16T10:52:59.000Z</time>
      </trkpt>
      <trkpt lat="44.56376" lon="2.28355">
        <ele>410.83</ele>
        <time>2018-04-16T10:53:09.000Z</time>
      </trkpt>
      <trkpt lat="44.56374" lon="2.28356">
        <ele>410.84</ele>
        <time>2018-04-16T10:53:19.000Z</time>
      </trkpt>
      <trkpt lat="44.5637" lon="2.28358">
        <ele>410.48</ele>
        <time>2018-04-16T10:53:29.000Z</time>
      </trkpt>
      <trkpt lat="44.56367" lon="2.28357">
        <ele>410.39</ele>
        <time>2018-04-16T10:53:39.000Z</time>
      </trkpt>
      <trkpt lat="44.56367" lon="2.28358">
        <ele>410.41</ele>
        <time>2018-04-16T10:54:09.000Z</time>
      </trkpt>
      <trkpt lat="44.56366" lon="2.28358">
        <ele>410.53</ele>
        <time>2018-04-16T10:54:26.000Z</time>
      </trkpt>
      <trkpt lat="44.56369" lon="2.28356">
        <ele>410.36</ele>
        <time>2018-04-16T10:54:36.000Z</time>
      </trkpt>
      <trkpt lat="44.56371" lon="2.28355">
        <ele>410.84</ele>
        <time>2018-04-16T10:54:46.000Z</time>
      </trkpt>
      <trkpt lat="44.5637" lon="2.28356">
        <ele>410.28</ele>
        <time>2018-04-16T10:54:56.000Z</time>
      </trkpt>
      <trkpt lat="44.5637" lon="2.28354">
        <ele>410.75</ele>
        <time>2018-04-16T10:55:10.000Z</time>
      </trkpt>
      <trkpt lat="44.5637" lon="2.28352">
        <ele>410.82</ele>
        <time>2018-04-16T10:55:20.000Z</time>
      </trkpt>
      <trkpt lat="44.5637" lon="2.28356">
        <ele>410.77</ele>
        <time>2018-04-16T10:55:30.000Z</time>
      </trkpt>
      <trkpt lat="44.56371" lon="2.2836">
        <ele>410.32</ele>
        <time>2018-04-16T10:55:40.000Z</time>
      </trkpt>
      <trkpt lat="44.56372" lon="2.2836">
        <ele>410.55</ele>
        <time>2018-04-16T10:55:50.000Z</time>
      </trkpt>
      <trkpt lat="44.56371" lon="2.28359">
        <ele>410.81</ele>
        <time>2018-04-16T10:56:04.000Z</time>
      </trkpt>
      <trkpt lat="44.5637" lon="2.2836">
        <ele>410.37</ele>
        <time>2018-04-16T10:56:15.000Z</time>
      </trkpt>
      <trkpt lat="44.56367" lon="2.28361">
        <ele>410.77</ele>
        <time>2018-04-16T10:56:25.000Z</time>
      </trkpt>
      <trkpt lat="44.56374" lon="2.28363">
        <ele>410.38</ele>
        <time>2018-04-16T10:56:35.000Z</time>
      </trkpt>
      <trkpt lat="44.56375" lon="2.28361">
        <ele>410.67</ele>
        <time>2018-04-16T10:56:45.000Z</time>
      </trkpt>
      <trkpt lat="44.56377" lon="2.28359">
        <ele>410.85</ele>
        <time>2018-04-16T10:56:55.000Z</time>
      </trkpt>
      <trkpt lat="44.56378" lon="2.28359">
        <ele>410.54</ele>
        <time>2018-04-16T10:57:06.000Z</time>
      </trkpt>
      <trkpt lat="44.56375" lon="2.28358">
        <ele>410.54</ele>
        <time>2018-04-16T10:57:16.000Z</time>
      </trkpt>
      <trkpt lat="44.56374" lon="2.28357">
        <ele>410.45</ele>
        <time>2018-04-16T10:57:26.000Z</time>
      </trkpt>
      <trkpt lat="44.56373" lon="2.28356">
        <ele>410.68</ele>
        <time>2018-04-16T10:57:42.000Z</time>
      </trkpt>
      <trkpt lat="44.56369" lon="2.28353">
        <ele>410.5</ele>
        <time>2018-04-16T10:57:52.000Z</time>
      </trkpt>
      <trkpt lat="44.56368" lon="2.28353">
        <ele>410.71</ele>
        <time>2018-04-16T10:58:02.000Z</time>
      </trkpt>
      <trkpt lat="44.56369" lon="2.28354">
        <ele>410.49</ele>
        <time>2018-04-16T10:58:13.000Z</time>
      </trkpt>
      <trkpt lat="44.5637" lon="2.28355">
        <ele>410.52</ele>
        <time>2018-04-16T10:58:23.000Z</time>
      </trkpt>
      <trkpt lat="44.5637" lon="2.28357">
        <ele>410.56</ele>
        <time>2018-04-16T10:59:04.000Z</time>
      </trkpt>
      <trkpt lat="44.56371" lon="2.28358">
        <ele>410.23</ele>
        <time>2018-04-16T10:59:14.000Z</time>
      </trkpt>
      <trkpt lat="44.56372" lon="2.28358">
        <ele>409.82</ele>
        <time>2018-04-16T10:59:24.000Z</time>
      </trkpt>
      <trkpt lat="44.56373" lon="2.28359">
        <ele>410.1</ele>
        <time>2018-04-16T11:01:13.000Z</time>
      </trkpt>
      <trkpt lat="44.56374" lon="2.28361">
        <ele>410.13</ele>
        <time>2018-04-16T11:01:23.000Z</time>
      </trkpt>
      <trkpt lat="44.56374" lon="2.28366">
        <ele>409.79</ele>
        <time>2018-04-16T11:01:33.000Z</time>
      </trkpt>
      <trkpt lat="44.56374" lon="2.28369">
        <ele>410.02</ele>
        <time>2018-04-16T11:01:43.000Z</time>
      </trkpt>
      <trkpt lat="44.56376" lon="2.28368">
        <ele>410.19</ele>
        <time>2018-04-16T11:01:53.000Z</time>
      </trkpt>
      <trkpt lat="44.56375" lon="2.28367">
        <ele>410.07</ele>
        <time>2018-04-16T11:02:04.000Z</time>
      </trkpt>
      <trkpt lat="44.56373" lon="2.28365">
        <ele>410</ele>
        <time>2018-04-16T11:02:14.000Z</time>
      </trkpt>
      <trkpt lat="44.56368" lon="2.2836">
        <ele>409.55</ele>
        <time>2018-04-16T11:02:24.000Z</time>
      </trkpt>
      <trkpt lat="44.56366" lon="2.28358">
        <ele>409.53</ele>
        <time>2018-04-16T11:02:34.000Z</time>
      </trkpt>
      <trkpt lat="44.56365" lon="2.28358">
        <ele>409.74</ele>
        <time>2018-04-16T11:03:11.000Z</time>
      </trkpt>
      <trkpt lat="44.56366" lon="2.28357">
        <ele>409.86</ele>
        <time>2018-04-16T11:03:21.000Z</time>
      </trkpt>
      <trkpt lat="44.56367" lon="2.28357">
        <ele>410.41</ele>
        <time>2018-04-16T11:03:40.000Z</time>
      </trkpt>
      <trkpt lat="44.56368" lon="2.28358">
        <ele>409.83</ele>
        <time>2018-04-16T11:03:50.000Z</time>
      </trkpt>
      <trkpt lat="44.56365" lon="2.28359">
        <ele>409.88</ele>
        <time>2018-04-16T11:04:00.000Z</time>
      </trkpt>
      <trkpt lat="44.56367" lon="2.28359">
        <ele>409.81</ele>
        <time>2018-04-16T11:04:10.000Z</time>
      </trkpt>
      <trkpt lat="44.5637" lon="2.28361">
        <ele>410.35</ele>
        <time>2018-04-16T11:04:20.000Z</time>
      </trkpt>
      <trkpt lat="44.56367" lon="2.28359">
        <ele>409.86</ele>
        <time>2018-04-16T11:04:30.000Z</time>
      </trkpt>
      <trkpt lat="44.56366" lon="2.28358">
        <ele>409.83</ele>
        <time>2018-04-16T11:04:40.000Z</time>
      </trkpt>
      <trkpt lat="44.56367" lon="2.28357">
        <ele>409.74</ele>
        <time>2018-04-16T11:04:51.000Z</time>
      </trkpt>
      <trkpt lat="44.56368" lon="2.28355">
        <ele>410.19</ele>
        <time>2018-04-16T11:05:01.000Z</time>
      </trkpt>
      <trkpt lat="44.5637" lon="2.28355">
        <ele>409.92</ele>
        <time>2018-04-16T11:05:11.000Z</time>
      </trkpt>
      <trkpt lat="44.56369" lon="2.28356">
        <ele>410.14</ele>
        <time>2018-04-16T11:05:34.000Z</time>
      </trkpt>
      <trkpt lat="44.56364" lon="2.2836">
        <ele>409.64</ele>
        <time>2018-04-16T11:05:44.000Z</time>
      </trkpt>
      <trkpt lat="44.56364" lon="2.28362">
        <ele>410.07</ele>
        <time>2018-04-16T11:05:55.000Z</time>
      </trkpt>
      <trkpt lat="44.5637" lon="2.28364">
        <ele>410.01</ele>
        <time>2018-04-16T11:06:05.000Z</time>
      </trkpt>
      <trkpt lat="44.5637" lon="2.2836">
        <ele>409.84</ele>
        <time>2018-04-16T11:06:15.000Z</time>
      </trkpt>
      <trkpt lat="44.5637" lon="2.28358">
        <ele>409.86</ele>
        <time>2018-04-16T11:06:25.000Z</time>
      </trkpt>
      <trkpt lat="44.56368" lon="2.28356">
        <ele>409.69</ele>
        <time>2018-04-16T11:06:35.000Z</time>
      </trkpt>
      <trkpt lat="44.56367" lon="2.28354">
        <ele>410.2</ele>
        <time>2018-04-16T11:06:45.000Z</time>
      </trkpt>
      <trkpt lat="44.56368" lon="2.28353">
        <ele>410.18</ele>
        <time>2018-04-16T11:06:55.000Z</time>
      </trkpt>
      <trkpt lat="44.56367" lon="2.28354">
        <ele>409.97</ele>
        <time>2018-04-16T11:07:05.000Z</time>
      </trkpt>
      <trkpt lat="44.56368" lon="2.28355">
        <ele>409.46</ele>
        <time>2018-04-16T11:09:05.000Z</time>
      </trkpt>
      <trkpt lat="44.56367" lon="2.28355">
        <ele>410.05</ele>
        <time>2018-04-16T11:09:33.000Z</time>
      </trkpt>
      <trkpt lat="44.56366" lon="2.28354">
        <ele>410</ele>
        <time>2018-04-16T11:09:43.000Z</time>
      </trkpt>
      <trkpt lat="44.56367" lon="2.28355">
        <ele>409.91</ele>
        <time>2018-04-16T11:09:53.000Z</time>
      </trkpt>
      <trkpt lat="44.56367" lon="2.28356">
        <ele>410.23</ele>
        <time>2018-04-16T11:10:17.000Z</time>
      </trkpt>
      <trkpt lat="44.56368" lon="2.28358">
        <ele>409.83</ele>
        <time>2018-04-16T11:10:27.000Z</time>
      </trkpt>
      <trkpt lat="44.56369" lon="2.28358">
        <ele>410.02</ele>
        <time>2018-04-16T11:10:37.000Z</time>
      </trkpt>
      <trkpt lat="44.56372" lon="2.28356">
        <ele>409.85</ele>
        <time>2018-04-16T11:10:47.000Z</time>
      </trkpt>
      <trkpt lat="44.56372" lon="2.28353">
        <ele>409.67</ele>
        <time>2018-04-16T11:10:57.000Z</time>
      </trkpt>
      <trkpt lat="44.56371" lon="2.28352">
        <ele>409.49</ele>
        <time>2018-04-16T11:11:07.000Z</time>
      </trkpt>
      <trkpt lat="44.56371" lon="2.28353">
        <ele>409.69</ele>
        <time>2018-04-16T11:12:12.000Z</time>
      </trkpt>
      <trkpt lat="44.5637" lon="2.28354">
        <ele>410.14</ele>
        <time>2018-04-16T11:12:26.000Z</time>
      </trkpt>
      <trkpt lat="44.5637" lon="2.28355">
        <ele>409.74</ele>
        <time>2018-04-16T11:12:36.000Z</time>
      </trkpt>
      <trkpt lat="44.56368" lon="2.28356">
        <ele>409.6</ele>
        <time>2018-04-16T11:12:46.000Z</time>
      </trkpt>
      <trkpt lat="44.56369" lon="2.28355">
        <ele>409.72</ele>
        <time>2018-04-16T11:13:10.000Z</time>
      </trkpt>
      <trkpt lat="44.56374" lon="2.2835">
        <ele>409.83</ele>
        <time>2018-04-16T11:13:20.000Z</time>
      </trkpt>
      <trkpt lat="44.56375" lon="2.28351">
        <ele>409.85</ele>
        <time>2018-04-16T11:13:30.000Z</time>
      </trkpt>
      <trkpt lat="44.56374" lon="2.28351">
        <ele>409.97</ele>
        <time>2018-04-16T11:13:49.000Z</time>
      </trkpt>
      <trkpt lat="44.56371" lon="2.28352">
        <ele>409.92</ele>
        <time>2018-04-16T11:13:59.000Z</time>
      </trkpt>
      <trkpt lat="44.5637" lon="2.28352">
        <ele>410.3</ele>
        <time>2018-04-16T11:14:13.000Z</time>
      </trkpt>
      <trkpt lat="44.56371" lon="2.28353">
        <ele>410.24</ele>
        <time>2018-04-16T11:14:24.000Z</time>
      </trkpt>
      <trkpt lat="44.56373" lon="2.28355">
        <ele>410.25</ele>
        <time>2018-04-16T11:14:34.000Z</time>
      </trkpt>
      <trkpt lat="44.56374" lon="2.28356">
        <ele>410.29</ele>
        <time>2018-04-16T11:14:44.000Z</time>
      </trkpt>
      <trkpt lat="44.56377" lon="2.28357">
        <ele>409.99</ele>
        <time>2018-04-16T11:14:54.000Z</time>
      </trkpt>
      <trkpt lat="44.56375" lon="2.28357">
        <ele>410.47</ele>
        <time>2018-04-16T11:15:12.000Z</time>
      </trkpt>
      <trkpt lat="44.5637" lon="2.28356">
        <ele>410.39</ele>
        <time>2018-04-16T11:15:22.000Z</time>
      </trkpt>
      <trkpt lat="44.56366" lon="2.28357">
        <ele>410.47</ele>
        <time>2018-04-16T11:15:32.000Z</time>
      </trkpt>
      <trkpt lat="44.56364" lon="2.28357">
        <ele>410.05</ele>
        <time>2018-04-16T11:15:42.000Z</time>
      </trkpt>
      <trkpt lat="44.56364" lon="2.28358">
        <ele>410.35</ele>
        <time>2018-04-16T11:15:56.000Z</time>
      </trkpt>
      <trkpt lat="44.56368" lon="2.28356">
        <ele>409.84</ele>
        <time>2018-04-16T11:16:06.000Z</time>
      </trkpt>
      <trkpt lat="44.56375" lon="2.28349">
        <ele>408.93</ele>
        <time>2018-04-16T11:16:16.000Z</time>
      </trkpt>
      <trkpt lat="44.56377" lon="2.28336">
        <ele>407.98</ele>
        <time>2018-04-16T11:16:26.000Z</time>
      </trkpt>
      <trkpt lat="44.56378" lon="2.28323">
        <ele>406.72</ele>
        <time>2018-04-16T11:16:36.000Z</time>
      </trkpt>
      <trkpt lat="44.5638" lon="2.28308">
        <ele>405.06</ele>
        <time>2018-04-16T11:16:46.000Z</time>
      </trkpt>
      <trkpt lat="44.56381" lon="2.28292">
        <ele>403.8</ele>
        <time>2018-04-16T11:16:56.000Z</time>
      </trkpt>
      <trkpt lat="44.5638" lon="2.28277">
        <ele>402.56</ele>
        <time>2018-04-16T11:17:06.000Z</time>
      </trkpt>
      <trkpt lat="44.5638" lon="2.28265">
        <ele>401.5</ele>
        <time>2018-04-16T11:17:16.000Z</time>
      </trkpt>
      <trkpt lat="44.56381" lon="2.2825">
        <ele>399.41</ele>
        <time>2018-04-16T11:17:26.000Z</time>
      </trkpt>
      <trkpt lat="44.56381" lon="2.28235">
        <ele>398.42</ele>
        <time>2018-04-16T11:17:36.000Z</time>
      </trkpt>
      <trkpt lat="44.56381" lon="2.28221">
        <ele>397.17</ele>
        <time>2018-04-16T11:17:46.000Z</time>
      </trkpt>
      <trkpt lat="44.56379" lon="2.28207">
        <ele>395.84</ele>
        <time>2018-04-16T11:17:56.000Z</time>
      </trkpt>
      <trkpt lat="44.56375" lon="2.28192">
        <ele>394.26</ele>
        <time>2018-04-16T11:18:06.000Z</time>
      </trkpt>
      <trkpt lat="44.56374" lon="2.28176">
        <ele>392.71</ele>
        <time>2018-04-16T11:18:16.000Z</time>
      </trkpt>
      <trkpt lat="44.56372" lon="2.28162">
        <ele>391.83</ele>
        <time>2018-04-16T11:18:26.000Z</time>
      </trkpt>
      <trkpt lat="44.56371" lon="2.28147">
        <ele>390.19</ele>
        <time>2018-04-16T11:18:36.000Z</time>
      </trkpt>
      <trkpt lat="44.56368" lon="2.28131">
        <ele>388.94</ele>
        <time>2018-04-16T11:18:46.000Z</time>
      </trkpt>
      <trkpt lat="44.56365" lon="2.28118">
        <ele>387.98</ele>
        <time>2018-04-16T11:18:56.000Z</time>
      </trkpt>
      <trkpt lat="44.56362" lon="2.28105">
        <ele>386.25</ele>
        <time>2018-04-16T11:19:06.000Z</time>
      </trkpt>
      <trkpt lat="44.56361" lon="2.2809">
        <ele>384.68</ele>
        <time>2018-04-16T11:19:16.000Z</time>
      </trkpt>
      <trkpt lat="44.56359" lon="2.28075">
        <ele>383.73</ele>
        <time>2018-04-16T11:19:26.000Z</time>
      </trkpt>
      <trkpt lat="44.56357" lon="2.2806">
        <ele>382.92</ele>
        <time>2018-04-16T11:19:36.000Z</time>
      </trkpt>
      <trkpt lat="44.56354" lon="2.28046">
        <ele>381.6</ele>
        <time>2018-04-16T11:19:46.000Z</time>
      </trkpt>
      <trkpt lat="44.56352" lon="2.28033">
        <ele>380.7</ele>
        <time>2018-04-16T11:19:56.000Z</time>
      </trkpt>
      <trkpt lat="44.56352" lon="2.28018">
        <ele>379.84</ele>
        <time>2018-04-16T11:20:06.000Z</time>
      </trkpt>
      <trkpt lat="44.56354" lon="2.28002">
        <ele>379.1</ele>
        <time>2018-04-16T11:20:16.000Z</time>
      </trkpt>
      <trkpt lat="44.56353" lon="2.27994">
        <ele>378.64</ele>
        <time>2018-04-16T11:20:26.000Z</time>
      </trkpt>
      <trkpt lat="44.56357" lon="2.27978">
        <ele>377.98</ele>
        <time>2018-04-16T11:20:36.000Z</time>
      </trkpt>
      <trkpt lat="44.56362" lon="2.27964">
        <ele>377.89</ele>
        <time>2018-04-16T11:20:46.000Z</time>
      </trkpt>
      <trkpt lat="44.56364" lon="2.27949">
        <ele>376.89</ele>
        <time>2018-04-16T11:20:56.000Z</time>
      </trkpt>
      <trkpt lat="44.56368" lon="2.27933">
        <ele>375.82</ele>
        <time>2018-04-16T11:21:06.000Z</time>
      </trkpt>
      <trkpt lat="44.56369" lon="2.27918">
        <ele>373.9</ele>
        <time>2018-04-16T11:21:16.000Z</time>
      </trkpt>
      <trkpt lat="44.56371" lon="2.27904">
        <ele>372.68</ele>
        <time>2018-04-16T11:21:26.000Z</time>
      </trkpt>
      <trkpt lat="44.56371" lon="2.27887">
        <ele>372.09</ele>
        <time>2018-04-16T11:21:36.000Z</time>
      </trkpt>
      <trkpt lat="44.56371" lon="2.27868">
        <ele>371.18</ele>
        <time>2018-04-16T11:21:46.000Z</time>
      </trkpt>
      <trkpt lat="44.56369" lon="2.2785">
        <ele>370.42</ele>
        <time>2018-04-16T11:21:56.000Z</time>
      </trkpt>
      <trkpt lat="44.56367" lon="2.27833">
        <ele>369.9</ele>
        <time>2018-04-16T11:22:06.000Z</time>
      </trkpt>
      <trkpt lat="44.5636" lon="2.27818">
        <ele>368.7</ele>
        <time>2018-04-16T11:22:16.000Z</time>
      </trkpt>
      <trkpt lat="44.5635" lon="2.27808">
        <ele>368.42</ele>
        <time>2018-04-16T11:22:26.000Z</time>
      </trkpt>
      <trkpt lat="44.56351" lon="2.27793">
        <ele>367.3</ele>
        <time>2018-04-16T11:22:36.000Z</time>
      </trkpt>
      <trkpt lat="44.56355" lon="2.27781">
        <ele>367.17</ele>
        <time>2018-04-16T11:22:46.000Z</time>
      </trkpt>
      <trkpt lat="44.56359" lon="2.27767">
        <ele>366.58</ele>
        <time>2018-04-16T11:22:56.000Z</time>
      </trkpt>
      <trkpt lat="44.56364" lon="2.27753">
        <ele>366.55</ele>
        <time>2018-04-16T11:23:06.000Z</time>
      </trkpt>
      <trkpt lat="44.5637" lon="2.2774">
        <ele>366.45</ele>
        <time>2018-04-16T11:23:16.000Z</time>
      </trkpt>
      <trkpt lat="44.56371" lon="2.2773">
        <ele>365.57</ele>
        <time>2018-04-16T11:23:26.000Z</time>
      </trkpt>
      <trkpt lat="44.56364" lon="2.27727">
        <ele>365.27</ele>
        <time>2018-04-16T11:23:36.000Z</time>
      </trkpt>
      <trkpt lat="44.56361" lon="2.27727">
        <ele>365.11</ele>
        <time>2018-04-16T11:23:46.000Z</time>
      </trkpt>
      <trkpt lat="44.56361" lon="2.27731">
        <ele>365.02</ele>
        <time>2018-04-16T11:23:56.000Z</time>
      </trkpt>
      <trkpt lat="44.56362" lon="2.2773">
        <ele>364.74</ele>
        <time>2018-04-16T11:24:41.000Z</time>
      </trkpt>
      <trkpt lat="44.56361" lon="2.27728">
        <ele>364.52</ele>
        <time>2018-04-16T11:24:51.000Z</time>
      </trkpt>
      <trkpt lat="44.56362" lon="2.2773">
        <ele>364.37</ele>
        <time>2018-04-16T11:26:16.000Z</time>
      </trkpt>
      <trkpt lat="44.56362" lon="2.27733">
        <ele>364.29</ele>
        <time>2018-04-16T11:26:26.000Z</time>
      </trkpt>
      <trkpt lat="44.56362" lon="2.27732">
        <ele>364.89</ele>
        <time>2018-04-16T11:26:53.000Z</time>
      </trkpt>
      <trkpt lat="44.56362" lon="2.27728">
        <ele>364.67</ele>
        <time>2018-04-16T11:27:03.000Z</time>
      </trkpt>
      <trkpt lat="44.56369" lon="2.27727">
        <ele>365.24</ele>
        <time>2018-04-16T11:27:13.000Z</time>
      </trkpt>
      <trkpt lat="44.56371" lon="2.27725">
        <ele>364.88</ele>
        <time>2018-04-16T11:27:23.000Z</time>
      </trkpt>
      <trkpt lat="44.56377" lon="2.27716">
        <ele>365.39</ele>
        <time>2018-04-16T11:27:33.000Z</time>
      </trkpt>
      <trkpt lat="44.5638" lon="2.27702">
        <ele>364.85</ele>
        <time>2018-04-16T11:27:43.000Z</time>
      </trkpt>
      <trkpt lat="44.56386" lon="2.27686">
        <ele>364.9</ele>
        <time>2018-04-16T11:27:53.000Z</time>
      </trkpt>
      <trkpt lat="44.56392" lon="2.2767">
        <ele>365</ele>
        <time>2018-04-16T11:28:03.000Z</time>
      </trkpt>
      <trkpt lat="44.56398" lon="2.27653">
        <ele>364.47</ele>
        <time>2018-04-16T11:28:13.000Z</time>
      </trkpt>
      <trkpt lat="44.56402" lon="2.27637">
        <ele>364.8</ele>
        <time>2018-04-16T11:28:23.000Z</time>
      </trkpt>
      <trkpt lat="44.56406" lon="2.27623">
        <ele>365.41</ele>
        <time>2018-04-16T11:28:33.000Z</time>
      </trkpt>
      <trkpt lat="44.56412" lon="2.27606">
        <ele>365.87</ele>
        <time>2018-04-16T11:28:43.000Z</time>
      </trkpt>
      <trkpt lat="44.56416" lon="2.27591">
        <ele>366.95</ele>
        <time>2018-04-16T11:28:53.000Z</time>
      </trkpt>
      <trkpt lat="44.56419" lon="2.27576">
        <ele>367.71</ele>
        <time>2018-04-16T11:29:03.000Z</time>
      </trkpt>
      <trkpt lat="44.56423" lon="2.27559">
        <ele>367.89</ele>
        <time>2018-04-16T11:29:13.000Z</time>
      </trkpt>
      <trkpt lat="44.56425" lon="2.27541">
        <ele>368.22</ele>
        <time>2018-04-16T11:29:23.000Z</time>
      </trkpt>
      <trkpt lat="44.56427" lon="2.27522">
        <ele>368.33</ele>
        <time>2018-04-16T11:29:33.000Z</time>
      </trkpt>
      <trkpt lat="44.56429" lon="2.27505">
        <ele>367.97</ele>
        <time>2018-04-16T11:29:43.000Z</time>
      </trkpt>
      <trkpt lat="44.56436" lon="2.27491">
        <ele>368.27</ele>
        <time>2018-04-16T11:29:53.000Z</time>
      </trkpt>
      <trkpt lat="44.56443" lon="2.2748">
        <ele>368.32</ele>
        <time>2018-04-16T11:30:03.000Z</time>
      </trkpt>
      <trkpt lat="44.56451" lon="2.27467">
        <ele>368.3</ele>
        <time>2018-04-16T11:30:13.000Z</time>
      </trkpt>
      <trkpt lat="44.56459" lon="2.27453">
        <ele>368.05</ele>
        <time>2018-04-16T11:30:23.000Z</time>
      </trkpt>
      <trkpt lat="44.56466" lon="2.27439">
        <ele>368.72</ele>
        <time>2018-04-16T11:30:33.000Z</time>
      </trkpt>
      <trkpt lat="44.56473" lon="2.27424">
        <ele>368.94</ele>
        <time>2018-04-16T11:30:43.000Z</time>
      </trkpt>
      <trkpt lat="44.56479" lon="2.27408">
        <ele>368.21</ele>
        <time>2018-04-16T11:30:53.000Z</time>
      </trkpt>
      <trkpt lat="44.56484" lon="2.27391">
        <ele>367.91</ele>
        <time>2018-04-16T11:31:03.000Z</time>
      </trkpt>
      <trkpt lat="44.56489" lon="2.27375">
        <ele>367.7</ele>
        <time>2018-04-16T11:31:13.000Z</time>
      </trkpt>
      <trkpt lat="44.56493" lon="2.27357">
        <ele>367.44</ele>
        <time>2018-04-16T11:31:23.000Z</time>
      </trkpt>
      <trkpt lat="44.56497" lon="2.27342">
        <ele>367.61</ele>
        <time>2018-04-16T11:31:33.000Z</time>
      </trkpt>
      <trkpt lat="44.56502" lon="2.27326">
        <ele>367.2</ele>
        <time>2018-04-16T11:31:43.000Z</time>
      </trkpt>
      <trkpt lat="44.56506" lon="2.27307">
        <ele>367.55</ele>
        <time>2018-04-16T11:31:53.000Z</time>
      </trkpt>
      <trkpt lat="44.56508" lon="2.27289">
        <ele>367.67</ele>
        <time>2018-04-16T11:32:03.000Z</time>
      </trkpt>
      <trkpt lat="44.56509" lon="2.27272">
        <ele>367.68</ele>
        <time>2018-04-16T11:32:13.000Z</time>
      </trkpt>
      <trkpt lat="44.5651" lon="2.27254">
        <ele>368.56</ele>
        <time>2018-04-16T11:32:23.000Z</time>
      </trkpt>
      <trkpt lat="44.56509" lon="2.27236">
        <ele>368.9</ele>
        <time>2018-04-16T11:32:33.000Z</time>
      </trkpt>
      <trkpt lat="44.56506" lon="2.27219">
        <ele>369.23</ele>
        <time>2018-04-16T11:32:43.000Z</time>
      </trkpt>
      <trkpt lat="44.56502" lon="2.27203">
        <ele>370.16</ele>
        <time>2018-04-16T11:32:53.000Z</time>
      </trkpt>
      <trkpt lat="44.56499" lon="2.27189">
        <ele>370.83</ele>
        <time>2018-04-16T11:33:03.000Z</time>
      </trkpt>
      <trkpt lat="44.56497" lon="2.27173">
        <ele>371.53</ele>
        <time>2018-04-16T11:33:13.000Z</time>
      </trkpt>
      <trkpt lat="44.56495" lon="2.27158">
        <ele>372.64</ele>
        <time>2018-04-16T11:33:23.000Z</time>
      </trkpt>
      <trkpt lat="44.5649" lon="2.27143">
        <ele>373.31</ele>
        <time>2018-04-16T11:33:33.000Z</time>
      </trkpt>
      <trkpt lat="44.56487" lon="2.27127">
        <ele>373.5</ele>
        <time>2018-04-16T11:33:43.000Z</time>
      </trkpt>
      <trkpt lat="44.56484" lon="2.27113">
        <ele>373.6</ele>
        <time>2018-04-16T11:33:53.000Z</time>
      </trkpt>
      <trkpt lat="44.5648" lon="2.27098">
        <ele>374.24</ele>
        <time>2018-04-16T11:34:03.000Z</time>
      </trkpt>
      <trkpt lat="44.56476" lon="2.27082">
        <ele>373.38</ele>
        <time>2018-04-16T11:34:13.000Z</time>
      </trkpt>
      <trkpt lat="44.56473" lon="2.27066">
        <ele>373.6</ele>
        <time>2018-04-16T11:34:23.000Z</time>
      </trkpt>
      <trkpt lat="44.56467" lon="2.27051">
        <ele>373.19</ele>
        <time>2018-04-16T11:34:33.000Z</time>
      </trkpt>
      <trkpt lat="44.56462" lon="2.27036">
        <ele>373.48</ele>
        <time>2018-04-16T11:34:43.000Z</time>
      </trkpt>
      <trkpt lat="44.56458" lon="2.27021">
        <ele>373.59</ele>
        <time>2018-04-16T11:34:53.000Z</time>
      </trkpt>
      <trkpt lat="44.56455" lon="2.27003">
        <ele>373.92</ele>
        <time>2018-04-16T11:35:03.000Z</time>
      </trkpt>
      <trkpt lat="44.56452" lon="2.26988">
        <ele>374.3</ele>
        <time>2018-04-16T11:35:13.000Z</time>
      </trkpt>
      <trkpt lat="44.56446" lon="2.26973">
        <ele>374.87</ele>
        <time>2018-04-16T11:35:23.000Z</time>
      </trkpt>
      <trkpt lat="44.56441" lon="2.2696">
        <ele>375.96</ele>
        <time>2018-04-16T11:35:33.000Z</time>
      </trkpt>
      <trkpt lat="44.56436" lon="2.26946">
        <ele>376.53</ele>
        <time>2018-04-16T11:35:43.000Z</time>
      </trkpt>
      <trkpt lat="44.56429" lon="2.26931">
        <ele>377.42</ele>
        <time>2018-04-16T11:35:53.000Z</time>
      </trkpt>
      <trkpt lat="44.56424" lon="2.26916">
        <ele>378.98</ele>
        <time>2018-04-16T11:36:03.000Z</time>
      </trkpt>
      <trkpt lat="44.56417" lon="2.26903">
        <ele>380.11</ele>
        <time>2018-04-16T11:36:13.000Z</time>
      </trkpt>
      <trkpt lat="44.56412" lon="2.2689">
        <ele>380.92</ele>
        <time>2018-04-16T11:36:23.000Z</time>
      </trkpt>
      <trkpt lat="44.56408" lon="2.26877">
        <ele>381.92</ele>
        <time>2018-04-16T11:36:33.000Z</time>
      </trkpt>
      <trkpt lat="44.56404" lon="2.26862">
        <ele>383.04</ele>
        <time>2018-04-16T11:36:43.000Z</time>
      </trkpt>
      <trkpt lat="44.56401" lon="2.26847">
        <ele>384.12</ele>
        <time>2018-04-16T11:36:53.000Z</time>
      </trkpt>
      <trkpt lat="44.56396" lon="2.26833">
        <ele>384.76</ele>
        <time>2018-04-16T11:37:03.000Z</time>
      </trkpt>
      <trkpt lat="44.56391" lon="2.26817">
        <ele>385.33</ele>
        <time>2018-04-16T11:37:13.000Z</time>
      </trkpt>
      <trkpt lat="44.56386" lon="2.26802">
        <ele>385.45</ele>
        <time>2018-04-16T11:37:23.000Z</time>
      </trkpt>
      <trkpt lat="44.56382" lon="2.26787">
        <ele>385.28</ele>
        <time>2018-04-16T11:37:33.000Z</time>
      </trkpt>
      <trkpt lat="44.56378" lon="2.26771">
        <ele>384.83</ele>
        <time>2018-04-16T11:37:43.000Z</time>
      </trkpt>
      <trkpt lat="44.56372" lon="2.26756">
        <ele>385.06</ele>
        <time>2018-04-16T11:37:53.000Z</time>
      </trkpt>
      <trkpt lat="44.56367" lon="2.26741">
        <ele>384.37</ele>
        <time>2018-04-16T11:38:03.000Z</time>
      </trkpt>
      <trkpt lat="44.56362" lon="2.26728">
        <ele>383.71</ele>
        <time>2018-04-16T11:38:13.000Z</time>
      </trkpt>
      <trkpt lat="44.56357" lon="2.26714">
        <ele>383.55</ele>
        <time>2018-04-16T11:38:23.000Z</time>
      </trkpt>
      <trkpt lat="44.56352" lon="2.26699">
        <ele>383.7</ele>
        <time>2018-04-16T11:38:33.000Z</time>
      </trkpt>
      <trkpt lat="44.56346" lon="2.26684">
        <ele>383.82</ele>
        <time>2018-04-16T11:38:43.000Z</time>
      </trkpt>
      <trkpt lat="44.56342" lon="2.26668">
        <ele>383.72</ele>
        <time>2018-04-16T11:38:53.000Z</time>
      </trkpt>
      <trkpt lat="44.56338" lon="2.26652">
        <ele>383.67</ele>
        <time>2018-04-16T11:39:03.000Z</time>
      </trkpt>
      <trkpt lat="44.56334" lon="2.26636">
        <ele>383.69</ele>
        <time>2018-04-16T11:39:13.000Z</time>
      </trkpt>
      <trkpt lat="44.56331" lon="2.2662">
        <ele>383.33</ele>
        <time>2018-04-16T11:39:23.000Z</time>
      </trkpt>
      <trkpt lat="44.56327" lon="2.26605">
        <ele>383.54</ele>
        <time>2018-04-16T11:39:33.000Z</time>
      </trkpt>
      <trkpt lat="44.56324" lon="2.26588">
        <ele>383.36</ele>
        <time>2018-04-16T11:39:43.000Z</time>
      </trkpt>
      <trkpt lat="44.56321" lon="2.26571">
        <ele>382.57</ele>
        <time>2018-04-16T11:39:53.000Z</time>
      </trkpt>
      <trkpt lat="44.56318" lon="2.26555">
        <ele>382.75</ele>
        <time>2018-04-16T11:40:03.000Z</time>
      </trkpt>
      <trkpt lat="44.56315" lon="2.2654">
        <ele>382.45</ele>
        <time>2018-04-16T11:40:13.000Z</time>
      </trkpt>
      <trkpt lat="44.56316" lon="2.26522">
        <ele>382.31</ele>
        <time>2018-04-16T11:40:23.000Z</time>
      </trkpt>
      <trkpt lat="44.56317" lon="2.26505">
        <ele>381.64</ele>
        <time>2018-04-16T11:40:33.000Z</time>
      </trkpt>
      <trkpt lat="44.56319" lon="2.26489">
        <ele>381.29</ele>
        <time>2018-04-16T11:40:43.000Z</time>
      </trkpt>
      <trkpt lat="44.56323" lon="2.26473">
        <ele>381.43</ele>
        <time>2018-04-16T11:40:53.000Z</time>
      </trkpt>
      <trkpt lat="44.56327" lon="2.26459">
        <ele>381.87</ele>
        <time>2018-04-16T11:41:03.000Z</time>
      </trkpt>
      <trkpt lat="44.56329" lon="2.26445">
        <ele>381.48</ele>
        <time>2018-04-16T11:41:13.000Z</time>
      </trkpt>
      <trkpt lat="44.56328" lon="2.2644">
        <ele>381.36</ele>
        <time>2018-04-16T11:41:23.000Z</time>
      </trkpt>
      <trkpt lat="44.56327" lon="2.2644">
        <ele>380.9</ele>
        <time>2018-04-16T11:41:37.000Z</time>
      </trkpt>
      <trkpt lat="44.56328" lon="2.26439">
        <ele>380.63</ele>
        <time>2018-04-16T11:42:59.000Z</time>
      </trkpt>
      <trkpt lat="44.56333" lon="2.26427">
        <ele>380.05</ele>
        <time>2018-04-16T11:43:09.000Z</time>
      </trkpt>
      <trkpt lat="44.56337" lon="2.26411">
        <ele>380</ele>
        <time>2018-04-16T11:43:19.000Z</time>
      </trkpt>
      <trkpt lat="44.56338" lon="2.26392">
        <ele>379.71</ele>
        <time>2018-04-16T11:43:29.000Z</time>
      </trkpt>
      <trkpt lat="44.56337" lon="2.26374">
        <ele>379.54</ele>
        <time>2018-04-16T11:43:39.000Z</time>
      </trkpt>
      <trkpt lat="44.56334" lon="2.26362">
        <ele>378.61</ele>
        <time>2018-04-16T11:43:49.000Z</time>
      </trkpt>
      <trkpt lat="44.56336" lon="2.26347">
        <ele>377.73</ele>
        <time>2018-04-16T11:43:59.000Z</time>
      </trkpt>
      <trkpt lat="44.56343" lon="2.2633">
        <ele>376.68</ele>
        <time>2018-04-16T11:44:09.000Z</time>
      </trkpt>
      <trkpt lat="44.56345" lon="2.26316">
        <ele>375.34</ele>
        <time>2018-04-16T11:44:19.000Z</time>
      </trkpt>
      <trkpt lat="44.56349" lon="2.26301">
        <ele>373.69</ele>
        <time>2018-04-16T11:44:29.000Z</time>
      </trkpt>
      <trkpt lat="44.56352" lon="2.26287">
        <ele>372.85</ele>
        <time>2018-04-16T11:44:39.000Z</time>
      </trkpt>
      <trkpt lat="44.56356" lon="2.26275">
        <ele>372.11</ele>
        <time>2018-04-16T11:44:49.000Z</time>
      </trkpt>
      <trkpt lat="44.56362" lon="2.26261">
        <ele>370.17</ele>
        <time>2018-04-16T11:44:59.000Z</time>
      </trkpt>
      <trkpt lat="44.56367" lon="2.26246">
        <ele>369.29</ele>
        <time>2018-04-16T11:45:09.000Z</time>
      </trkpt>
      <trkpt lat="44.56373" lon="2.26234">
        <ele>368.24</ele>
        <time>2018-04-16T11:45:19.000Z</time>
      </trkpt>
      <trkpt lat="44.56378" lon="2.26221">
        <ele>367.19</ele>
        <time>2018-04-16T11:45:29.000Z</time>
      </trkpt>
      <trkpt lat="44.56382" lon="2.26206">
        <ele>365.73</ele>
        <time>2018-04-16T11:45:39.000Z</time>
      </trkpt>
      <trkpt lat="44.56387" lon="2.26192">
        <ele>364.39</ele>
        <time>2018-04-16T11:45:49.000Z</time>
      </trkpt>
      <trkpt lat="44.56391" lon="2.26178">
        <ele>362.39</ele>
        <time>2018-04-16T11:45:59.000Z</time>
      </trkpt>
      <trkpt lat="44.56394" lon="2.26166">
        <ele>361.08</ele>
        <time>2018-04-16T11:46:09.000Z</time>
      </trkpt>
      <trkpt lat="44.56394" lon="2.26165">
        <ele>361.17</ele>
        <time>2018-04-16T11:46:19.000Z</time>
      </trkpt>
      <trkpt lat="44.56396" lon="2.26159">
        <ele>360.58</ele>
        <time>2018-04-16T11:46:29.000Z</time>
      </trkpt>
      <trkpt lat="44.564" lon="2.26145">
        <ele>359.33</ele>
        <time>2018-04-16T11:46:39.000Z</time>
      </trkpt>
      <trkpt lat="44.56406" lon="2.26131">
        <ele>358.17</ele>
        <time>2018-04-16T11:46:49.000Z</time>
      </trkpt>
      <trkpt lat="44.56411" lon="2.26116">
        <ele>357.04</ele>
        <time>2018-04-16T11:46:59.000Z</time>
      </trkpt>
      <trkpt lat="44.56417" lon="2.26101">
        <ele>355.24</ele>
        <time>2018-04-16T11:47:09.000Z</time>
      </trkpt>
      <trkpt lat="44.56423" lon="2.26085">
        <ele>353.91</ele>
        <time>2018-04-16T11:47:19.000Z</time>
      </trkpt>
      <trkpt lat="44.5643" lon="2.26069">
        <ele>352.47</ele>
        <time>2018-04-16T11:47:29.000Z</time>
      </trkpt>
      <trkpt lat="44.56434" lon="2.26057">
        <ele>351.35</ele>
        <time>2018-04-16T11:47:39.000Z</time>
      </trkpt>
      <trkpt lat="44.56437" lon="2.26042">
        <ele>350.12</ele>
        <time>2018-04-16T11:47:49.000Z</time>
      </trkpt>
      <trkpt lat="44.56441" lon="2.26026">
        <ele>349.3</ele>
        <time>2018-04-16T11:47:59.000Z</time>
      </trkpt>
      <trkpt lat="44.56443" lon="2.2601">
        <ele>348.74</ele>
        <time>2018-04-16T11:48:09.000Z</time>
      </trkpt>
      <trkpt lat="44.56445" lon="2.25994">
        <ele>347.85</ele>
        <time>2018-04-16T11:48:19.000Z</time>
      </trkpt>
      <trkpt lat="44.56449" lon="2.25978">
        <ele>346.89</ele>
        <time>2018-04-16T11:48:29.000Z</time>
      </trkpt>
      <trkpt lat="44.56454" lon="2.25961">
        <ele>346.21</ele>
        <time>2018-04-16T11:48:39.000Z</time>
      </trkpt>
      <trkpt lat="44.56457" lon="2.25943">
        <ele>345.56</ele>
        <time>2018-04-16T11:48:49.000Z</time>
      </trkpt>
      <trkpt lat="44.56461" lon="2.25927">
        <ele>344.34</ele>
        <time>2018-04-16T11:48:59.000Z</time>
      </trkpt>
      <trkpt lat="44.56465" lon="2.25912">
        <ele>342.81</ele>
        <time>2018-04-16T11:49:09.000Z</time>
      </trkpt>
      <trkpt lat="44.56469" lon="2.25896">
        <ele>342.04</ele>
        <time>2018-04-16T11:49:19.000Z</time>
      </trkpt>
      <trkpt lat="44.56471" lon="2.25879">
        <ele>340.92</ele>
        <time>2018-04-16T11:49:29.000Z</time>
      </trkpt>
      <trkpt lat="44.5647" lon="2.25862">
        <ele>339.65</ele>
        <time>2018-04-16T11:49:39.000Z</time>
      </trkpt>
      <trkpt lat="44.56468" lon="2.25846">
        <ele>338.04</ele>
        <time>2018-04-16T11:49:49.000Z</time>
      </trkpt>
      <trkpt lat="44.56465" lon="2.25828">
        <ele>337.21</ele>
        <time>2018-04-16T11:49:59.000Z</time>
      </trkpt>
      <trkpt lat="44.56464" lon="2.25815">
        <ele>335.74</ele>
        <time>2018-04-16T11:50:09.000Z</time>
      </trkpt>
      <trkpt lat="44.56469" lon="2.25799">
        <ele>334.24</ele>
        <time>2018-04-16T11:50:19.000Z</time>
      </trkpt>
      <trkpt lat="44.56473" lon="2.25784">
        <ele>332.46</ele>
        <time>2018-04-16T11:50:29.000Z</time>
      </trkpt>
      <trkpt lat="44.56476" lon="2.25769">
        <ele>330.98</ele>
        <time>2018-04-16T11:50:39.000Z</time>
      </trkpt>
      <trkpt lat="44.56477" lon="2.25753">
        <ele>328.83</ele>
        <time>2018-04-16T11:50:49.000Z</time>
      </trkpt>
      <trkpt lat="44.56477" lon="2.25738">
        <ele>327.12</ele>
        <time>2018-04-16T11:50:59.000Z</time>
      </trkpt>
      <trkpt lat="44.56475" lon="2.25723">
        <ele>325.01</ele>
        <time>2018-04-16T11:51:09.000Z</time>
      </trkpt>
      <trkpt lat="44.56474" lon="2.25707">
        <ele>323.07</ele>
        <time>2018-04-16T11:51:19.000Z</time>
      </trkpt>
      <trkpt lat="44.56475" lon="2.25691">
        <ele>321.7</ele>
        <time>2018-04-16T11:51:29.000Z</time>
      </trkpt>
      <trkpt lat="44.56471" lon="2.25676">
        <ele>319.84</ele>
        <time>2018-04-16T11:51:39.000Z</time>
      </trkpt>
      <trkpt lat="44.56468" lon="2.25661">
        <ele>318.44</ele>
        <time>2018-04-16T11:51:49.000Z</time>
      </trkpt>
      <trkpt lat="44.5647" lon="2.25647">
        <ele>317.43</ele>
        <time>2018-04-16T11:51:59.000Z</time>
      </trkpt>
      <trkpt lat="44.56478" lon="2.2564">
        <ele>316.18</ele>
        <time>2018-04-16T11:52:09.000Z</time>
      </trkpt>
      <trkpt lat="44.56489" lon="2.25634">
        <ele>314.69</ele>
        <time>2018-04-16T11:52:19.000Z</time>
      </trkpt>
      <trkpt lat="44.565" lon="2.25626">
        <ele>312.7</ele>
        <time>2018-04-16T11:52:29.000Z</time>
      </trkpt>
      <trkpt lat="44.56506" lon="2.25613">
        <ele>311.15</ele>
        <time>2018-04-16T11:52:39.000Z</time>
      </trkpt>
      <trkpt lat="44.56509" lon="2.25596">
        <ele>309.01</ele>
        <time>2018-04-16T11:52:49.000Z</time>
      </trkpt>
      <trkpt lat="44.5651" lon="2.25581">
        <ele>307.93</ele>
        <time>2018-04-16T11:52:59.000Z</time>
      </trkpt>
      <trkpt lat="44.56511" lon="2.25564">
        <ele>305.89</ele>
        <time>2018-04-16T11:53:09.000Z</time>
      </trkpt>
      <trkpt lat="44.56514" lon="2.25549">
        <ele>304.27</ele>
        <time>2018-04-16T11:53:19.000Z</time>
      </trkpt>
      <trkpt lat="44.56513" lon="2.25536">
        <ele>301.89</ele>
        <time>2018-04-16T11:53:29.000Z</time>
      </trkpt>
      <trkpt lat="44.56504" lon="2.25524">
        <ele>300.29</ele>
        <time>2018-04-16T11:53:39.000Z</time>
      </trkpt>
      <trkpt lat="44.56496" lon="2.25512">
        <ele>298.65</ele>
        <time>2018-04-16T11:53:49.000Z</time>
      </trkpt>
      <trkpt lat="44.56487" lon="2.25501">
        <ele>297.37</ele>
        <time>2018-04-16T11:53:59.000Z</time>
      </trkpt>
      <trkpt lat="44.56479" lon="2.25487">
        <ele>296.29</ele>
        <time>2018-04-16T11:54:09.000Z</time>
      </trkpt>
      <trkpt lat="44.56471" lon="2.25476">
        <ele>295.37</ele>
        <time>2018-04-16T11:54:19.000Z</time>
      </trkpt>
      <trkpt lat="44.56465" lon="2.2546">
        <ele>294.48</ele>
        <time>2018-04-16T11:54:29.000Z</time>
      </trkpt>
      <trkpt lat="44.56462" lon="2.25443">
        <ele>293.68</ele>
        <time>2018-04-16T11:54:39.000Z</time>
      </trkpt>
      <trkpt lat="44.56461" lon="2.25427">
        <ele>292.49</ele>
        <time>2018-04-16T11:54:49.000Z</time>
      </trkpt>
      <trkpt lat="44.56463" lon="2.25409">
        <ele>291.24</ele>
        <time>2018-04-16T11:54:59.000Z</time>
      </trkpt>
      <trkpt lat="44.56464" lon="2.25392">
        <ele>289.8</ele>
        <time>2018-04-16T11:55:09.000Z</time>
      </trkpt>
      <trkpt lat="44.56464" lon="2.25375">
        <ele>289.06</ele>
        <time>2018-04-16T11:55:19.000Z</time>
      </trkpt>
      <trkpt lat="44.56465" lon="2.25359">
        <ele>287.92</ele>
        <time>2018-04-16T11:55:29.000Z</time>
      </trkpt>
      <trkpt lat="44.56465" lon="2.25342">
        <ele>286.77</ele>
        <time>2018-04-16T11:55:39.000Z</time>
      </trkpt>
      <trkpt lat="44.5646" lon="2.25327">
        <ele>285.65</ele>
        <time>2018-04-16T11:55:49.000Z</time>
      </trkpt>
      <trkpt lat="44.56452" lon="2.25316">
        <ele>284.34</ele>
        <time>2018-04-16T11:55:59.000Z</time>
      </trkpt>
      <trkpt lat="44.56447" lon="2.25301">
        <ele>282.8</ele>
        <time>2018-04-16T11:56:09.000Z</time>
      </trkpt>
      <trkpt lat="44.56446" lon="2.25288">
        <ele>280.78</ele>
        <time>2018-04-16T11:56:19.000Z</time>
      </trkpt>
      <trkpt lat="44.56446" lon="2.25276">
        <ele>278.86</ele>
        <time>2018-04-16T11:56:29.000Z</time>
      </trkpt>
      <trkpt lat="44.56445" lon="2.25273">
        <ele>278.7</ele>
        <time>2018-04-16T11:56:39.000Z</time>
      </trkpt>
      <trkpt lat="44.56443" lon="2.25266">
        <ele>277.76</ele>
        <time>2018-04-16T11:56:49.000Z</time>
      </trkpt>
      <trkpt lat="44.56441" lon="2.25257">
        <ele>276.08</ele>
        <time>2018-04-16T11:56:59.000Z</time>
      </trkpt>
      <trkpt lat="44.5644" lon="2.25256">
        <ele>275.57</ele>
        <time>2018-04-16T11:57:09.000Z</time>
      </trkpt>
      <trkpt lat="44.56439" lon="2.25249">
        <ele>274.98</ele>
        <time>2018-04-16T11:57:19.000Z</time>
      </trkpt>
      <trkpt lat="44.56439" lon="2.25233">
        <ele>273.49</ele>
        <time>2018-04-16T11:57:29.000Z</time>
      </trkpt>
      <trkpt lat="44.56438" lon="2.25216">
        <ele>272.02</ele>
        <time>2018-04-16T11:57:39.000Z</time>
      </trkpt>
      <trkpt lat="44.56439" lon="2.25203">
        <ele>270.55</ele>
        <time>2018-04-16T11:57:49.000Z</time>
      </trkpt>
      <trkpt lat="44.56448" lon="2.25201">
        <ele>269.42</ele>
        <time>2018-04-16T11:57:59.000Z</time>
      </trkpt>
      <trkpt lat="44.56462" lon="2.252">
        <ele>268.71</ele>
        <time>2018-04-16T11:58:09.000Z</time>
      </trkpt>
      <trkpt lat="44.56471" lon="2.25198">
        <ele>267.4</ele>
        <time>2018-04-16T11:58:19.000Z</time>
      </trkpt>
      <trkpt lat="44.56479" lon="2.25192">
        <ele>265.59</ele>
        <time>2018-04-16T11:58:29.000Z</time>
      </trkpt>
      <trkpt lat="44.56488" lon="2.25184">
        <ele>264.31</ele>
        <time>2018-04-16T11:58:39.000Z</time>
      </trkpt>
      <trkpt lat="44.56501" lon="2.2518">
        <ele>262.22</ele>
        <time>2018-04-16T11:58:49.000Z</time>
      </trkpt>
      <trkpt lat="44.5651" lon="2.2518">
        <ele>260.96</ele>
        <time>2018-04-16T11:58:59.000Z</time>
      </trkpt>
      <trkpt lat="44.56511" lon="2.25168">
        <ele>259.25</ele>
        <time>2018-04-16T11:59:09.000Z</time>
      </trkpt>
      <trkpt lat="44.56508" lon="2.25157">
        <ele>257.6</ele>
        <time>2018-04-16T11:59:19.000Z</time>
      </trkpt>
      <trkpt lat="44.56499" lon="2.25149">
        <ele>255.45</ele>
        <time>2018-04-16T11:59:29.000Z</time>
      </trkpt>
      <trkpt lat="44.5649" lon="2.25146">
        <ele>253.17</ele>
        <time>2018-04-16T11:59:39.000Z</time>
      </trkpt>
      <trkpt lat="44.56482" lon="2.2514">
        <ele>251.1</ele>
        <time>2018-04-16T11:59:49.000Z</time>
      </trkpt>
      <trkpt lat="44.56474" lon="2.25127">
        <ele>249.76</ele>
        <time>2018-04-16T11:59:59.000Z</time>
      </trkpt>
      <trkpt lat="44.56467" lon="2.25114">
        <ele>248.28</ele>
        <time>2018-04-16T12:00:09.000Z</time>
      </trkpt>
      <trkpt lat="44.5646" lon="2.25104">
        <ele>247.08</ele>
        <time>2018-04-16T12:00:19.000Z</time>
      </trkpt>
      <trkpt lat="44.5645" lon="2.25096">
        <ele>245.94</ele>
        <time>2018-04-16T12:00:29.000Z</time>
      </trkpt>
      <trkpt lat="44.56441" lon="2.25084">
        <ele>244.95</ele>
        <time>2018-04-16T12:00:39.000Z</time>
      </trkpt>
      <trkpt lat="44.56435" lon="2.25078">
        <ele>243.3</ele>
        <time>2018-04-16T12:00:49.000Z</time>
      </trkpt>
      <trkpt lat="44.56425" lon="2.25073">
        <ele>241.66</ele>
        <time>2018-04-16T12:00:59.000Z</time>
      </trkpt>
      <trkpt lat="44.56412" lon="2.2507">
        <ele>239.73</ele>
        <time>2018-04-16T12:01:09.000Z</time>
      </trkpt>
      <trkpt lat="44.564" lon="2.25074">
        <ele>238.65</ele>
        <time>2018-04-16T12:01:19.000Z</time>
      </trkpt>
      <trkpt lat="44.56387" lon="2.25073">
        <ele>238.1</ele>
        <time>2018-04-16T12:01:29.000Z</time>
      </trkpt>
      <trkpt lat="44.56381" lon="2.2507">
        <ele>237.79</ele>
        <time>2018-04-16T12:01:39.000Z</time>
      </trkpt>
      <trkpt lat="44.56369" lon="2.25069">
        <ele>237</ele>
        <time>2018-04-16T12:01:49.000Z</time>
      </trkpt>
      <trkpt lat="44.5636" lon="2.25061">
        <ele>236.2</ele>
        <time>2018-04-16T12:01:59.000Z</time>
      </trkpt>
      <trkpt lat="44.56358" lon="2.25054">
        <ele>236.15</ele>
        <time>2018-04-16T12:02:09.000Z</time>
      </trkpt>
      <trkpt lat="44.56361" lon="2.25038">
        <ele>236.22</ele>
        <time>2018-04-16T12:02:19.000Z</time>
      </trkpt>
      <trkpt lat="44.56364" lon="2.25022">
        <ele>235.79</ele>
        <time>2018-04-16T12:02:29.000Z</time>
      </trkpt>
      <trkpt lat="44.56363" lon="2.25005">
        <ele>236.25</ele>
        <time>2018-04-16T12:02:39.000Z</time>
      </trkpt>
      <trkpt lat="44.56365" lon="2.24985">
        <ele>236.04</ele>
        <time>2018-04-16T12:02:49.000Z</time>
      </trkpt>
      <trkpt lat="44.56368" lon="2.24968">
        <ele>236.17</ele>
        <time>2018-04-16T12:02:59.000Z</time>
      </trkpt>
      <trkpt lat="44.56373" lon="2.24952">
        <ele>236.08</ele>
        <time>2018-04-16T12:03:09.000Z</time>
      </trkpt>
      <trkpt lat="44.56375" lon="2.24934">
        <ele>235.92</ele>
        <time>2018-04-16T12:03:19.000Z</time>
      </trkpt>
      <trkpt lat="44.5638" lon="2.24919">
        <ele>235.91</ele>
        <time>2018-04-16T12:03:29.000Z</time>
      </trkpt>
      <trkpt lat="44.56381" lon="2.24904">
        <ele>236.33</ele>
        <time>2018-04-16T12:03:39.000Z</time>
      </trkpt>
      <trkpt lat="44.5638" lon="2.24887">
        <ele>235.91</ele>
        <time>2018-04-16T12:03:49.000Z</time>
      </trkpt>
      <trkpt lat="44.56379" lon="2.2487">
        <ele>235.77</ele>
        <time>2018-04-16T12:03:59.000Z</time>
      </trkpt>
      <trkpt lat="44.56381" lon="2.24853">
        <ele>235.8</ele>
        <time>2018-04-16T12:04:09.000Z</time>
      </trkpt>
      <trkpt lat="44.56382" lon="2.24839">
        <ele>236.29</ele>
        <time>2018-04-16T12:04:19.000Z</time>
      </trkpt>
      <trkpt lat="44.56385" lon="2.24825">
        <ele>236.61</ele>
        <time>2018-04-16T12:04:29.000Z</time>
      </trkpt>
      <trkpt lat="44.56389" lon="2.2482">
        <ele>237.24</ele>
        <time>2018-04-16T12:04:39.000Z</time>
      </trkpt>
      <trkpt lat="44.56397" lon="2.24827">
        <ele>237.97</ele>
        <time>2018-04-16T12:04:49.000Z</time>
      </trkpt>
      <trkpt lat="44.56406" lon="2.2483">
        <ele>238.16</ele>
        <time>2018-04-16T12:04:59.000Z</time>
      </trkpt>
      <trkpt lat="44.56414" lon="2.24831">
        <ele>238.4</ele>
        <time>2018-04-16T12:05:09.000Z</time>
      </trkpt>
      <trkpt lat="44.56415" lon="2.2483">
        <ele>238.38</ele>
        <time>2018-04-16T12:05:19.000Z</time>
      </trkpt>
      <trkpt lat="44.56416" lon="2.2483">
        <ele>238.64</ele>
        <time>2018-04-16T12:05:32.000Z</time>
      </trkpt>
      <trkpt lat="44.56422" lon="2.2482">
        <ele>239.07</ele>
        <time>2018-04-16T12:05:42.000Z</time>
      </trkpt>
      <trkpt lat="44.56431" lon="2.24811">
        <ele>239.9</ele>
        <time>2018-04-16T12:05:52.000Z</time>
      </trkpt>
      <trkpt lat="44.56434" lon="2.24805">
        <ele>241.82</ele>
        <time>2018-04-16T12:06:02.000Z</time>
      </trkpt>
      <trkpt lat="44.56438" lon="2.24792">
        <ele>242.77</ele>
        <time>2018-04-16T12:06:12.000Z</time>
      </trkpt>
      <trkpt lat="44.56437" lon="2.24782">
        <ele>243.51</ele>
        <time>2018-04-16T12:06:22.000Z</time>
      </trkpt>
      <trkpt lat="44.56433" lon="2.24773">
        <ele>244.51</ele>
        <time>2018-04-16T12:06:32.000Z</time>
      </trkpt>
      <trkpt lat="44.56431" lon="2.24763">
        <ele>245.34</ele>
        <time>2018-04-16T12:06:42.000Z</time>
      </trkpt>
      <trkpt lat="44.56426" lon="2.24752">
        <ele>246.74</ele>
        <time>2018-04-16T12:06:52.000Z</time>
      </trkpt>
      <trkpt lat="44.56422" lon="2.24742">
        <ele>247.69</ele>
        <time>2018-04-16T12:07:02.000Z</time>
      </trkpt>
      <trkpt lat="44.56417" lon="2.24731">
        <ele>248.67</ele>
        <time>2018-04-16T12:07:12.000Z</time>
      </trkpt>
      <trkpt lat="44.56415" lon="2.24718">
        <ele>249.14</ele>
        <time>2018-04-16T12:07:22.000Z</time>
      </trkpt>
      <trkpt lat="44.56413" lon="2.24707">
        <ele>250.39</ele>
        <time>2018-04-16T12:07:32.000Z</time>
      </trkpt>
      <trkpt lat="44.56411" lon="2.24696">
        <ele>251.61</ele>
        <time>2018-04-16T12:07:42.000Z</time>
      </trkpt>
      <trkpt lat="44.56408" lon="2.24683">
        <ele>252.19</ele>
        <time>2018-04-16T12:07:52.000Z</time>
      </trkpt>
      <trkpt lat="44.56408" lon="2.24672">
        <ele>253.11</ele>
        <time>2018-04-16T12:08:02.000Z</time>
      </trkpt>
      <trkpt lat="44.5641" lon="2.24663">
        <ele>254.22</ele>
        <time>2018-04-16T12:08:12.000Z</time>
      </trkpt>
      <trkpt lat="44.56416" lon="2.24653">
        <ele>254.93</ele>
        <time>2018-04-16T12:08:22.000Z</time>
      </trkpt>
      <trkpt lat="44.56421" lon="2.24645">
        <ele>256.38</ele>
        <time>2018-04-16T12:08:32.000Z</time>
      </trkpt>
      <trkpt lat="44.56429" lon="2.24636">
        <ele>257.09</ele>
        <time>2018-04-16T12:08:42.000Z</time>
      </trkpt>
      <trkpt lat="44.56435" lon="2.24629">
        <ele>258.07</ele>
        <time>2018-04-16T12:08:52.000Z</time>
      </trkpt>
      <trkpt lat="44.56441" lon="2.24624">
        <ele>259.03</ele>
        <time>2018-04-16T12:09:02.000Z</time>
      </trkpt>
      <trkpt lat="44.56447" lon="2.2462">
        <ele>260.06</ele>
        <time>2018-04-16T12:09:12.000Z</time>
      </trkpt>
      <trkpt lat="44.56454" lon="2.24612">
        <ele>261.26</ele>
        <time>2018-04-16T12:09:22.000Z</time>
      </trkpt>
      <trkpt lat="44.5646" lon="2.24607">
        <ele>262.29</ele>
        <time>2018-04-16T12:09:32.000Z</time>
      </trkpt>
      <trkpt lat="44.56466" lon="2.24605">
        <ele>263.23</ele>
        <time>2018-04-16T12:09:42.000Z</time>
      </trkpt>
      <trkpt lat="44.56472" lon="2.24609">
        <ele>265.06</ele>
        <time>2018-04-16T12:09:52.000Z</time>
      </trkpt>
      <trkpt lat="44.56478" lon="2.24614">
        <ele>266.45</ele>
        <time>2018-04-16T12:10:02.000Z</time>
      </trkpt>
      <trkpt lat="44.56482" lon="2.24616">
        <ele>268.05</ele>
        <time>2018-04-16T12:10:12.000Z</time>
      </trkpt>
      <trkpt lat="44.56488" lon="2.24617">
        <ele>269.42</ele>
        <time>2018-04-16T12:10:22.000Z</time>
      </trkpt>
      <trkpt lat="44.56493" lon="2.2462">
        <ele>270.54</ele>
        <time>2018-04-16T12:10:32.000Z</time>
      </trkpt>
      <trkpt lat="44.56499" lon="2.24623">
        <ele>272.24</ele>
        <time>2018-04-16T12:10:42.000Z</time>
      </trkpt>
      <trkpt lat="44.56504" lon="2.24629">
        <ele>273.41</ele>
        <time>2018-04-16T12:10:52.000Z</time>
      </trkpt>
      <trkpt lat="44.56508" lon="2.24635">
        <ele>274.53</ele>
        <time>2018-04-16T12:11:02.000Z</time>
      </trkpt>
      <trkpt lat="44.56511" lon="2.24641">
        <ele>276.02</ele>
        <time>2018-04-16T12:11:12.000Z</time>
      </trkpt>
      <trkpt lat="44.56514" lon="2.24648">
        <ele>276.89</ele>
        <time>2018-04-16T12:11:22.000Z</time>
      </trkpt>
      <trkpt lat="44.56517" lon="2.24657">
        <ele>278.21</ele>
        <time>2018-04-16T12:11:32.000Z</time>
      </trkpt>
      <trkpt lat="44.56523" lon="2.24664">
        <ele>279.31</ele>
        <time>2018-04-16T12:11:42.000Z</time>
      </trkpt>
      <trkpt lat="44.56528" lon="2.24667">
        <ele>280.64</ele>
        <time>2018-04-16T12:11:52.000Z</time>
      </trkpt>
      <trkpt lat="44.56535" lon="2.24671">
        <ele>282.04</ele>
        <time>2018-04-16T12:12:02.000Z</time>
      </trkpt>
      <trkpt lat="44.56539" lon="2.24671">
        <ele>282.71</ele>
        <time>2018-04-16T12:12:12.000Z</time>
      </trkpt>
      <trkpt lat="44.56546" lon="2.24668">
        <ele>284.03</ele>
        <time>2018-04-16T12:12:22.000Z</time>
      </trkpt>
      <trkpt lat="44.56554" lon="2.24664">
        <ele>284.9</ele>
        <time>2018-04-16T12:12:32.000Z</time>
      </trkpt>
      <trkpt lat="44.56562" lon="2.24662">
        <ele>285.65</ele>
        <time>2018-04-16T12:12:42.000Z</time>
      </trkpt>
      <trkpt lat="44.56571" lon="2.24658">
        <ele>286.93</ele>
        <time>2018-04-16T12:12:52.000Z</time>
      </trkpt>
      <trkpt lat="44.56577" lon="2.24654">
        <ele>287.73</ele>
        <time>2018-04-16T12:13:02.000Z</time>
      </trkpt>
      <trkpt lat="44.56585" lon="2.24653">
        <ele>288.14</ele>
        <time>2018-04-16T12:13:12.000Z</time>
      </trkpt>
      <trkpt lat="44.5659" lon="2.24644">
        <ele>289.5</ele>
        <time>2018-04-16T12:13:22.000Z</time>
      </trkpt>
      <trkpt lat="44.56595" lon="2.24635">
        <ele>289.74</ele>
        <time>2018-04-16T12:13:32.000Z</time>
      </trkpt>
      <trkpt lat="44.56599" lon="2.24625">
        <ele>290.66</ele>
        <time>2018-04-16T12:13:42.000Z</time>
      </trkpt>
      <trkpt lat="44.56601" lon="2.24614">
        <ele>291.77</ele>
        <time>2018-04-16T12:13:52.000Z</time>
      </trkpt>
      <trkpt lat="44.56605" lon="2.24606">
        <ele>292.63</ele>
        <time>2018-04-16T12:14:02.000Z</time>
      </trkpt>
      <trkpt lat="44.56607" lon="2.24596">
        <ele>293.49</ele>
        <time>2018-04-16T12:14:12.000Z</time>
      </trkpt>
      <trkpt lat="44.5661" lon="2.24588">
        <ele>294.43</ele>
        <time>2018-04-16T12:14:22.000Z</time>
      </trkpt>
      <trkpt lat="44.56614" lon="2.24579">
        <ele>295.92</ele>
        <time>2018-04-16T12:14:32.000Z</time>
      </trkpt>
      <trkpt lat="44.56621" lon="2.24574">
        <ele>296.64</ele>
        <time>2018-04-16T12:14:42.000Z</time>
      </trkpt>
      <trkpt lat="44.56627" lon="2.24571">
        <ele>298.03</ele>
        <time>2018-04-16T12:14:52.000Z</time>
      </trkpt>
      <trkpt lat="44.56635" lon="2.2457">
        <ele>299.23</ele>
        <time>2018-04-16T12:15:02.000Z</time>
      </trkpt>
      <trkpt lat="44.56642" lon="2.24568">
        <ele>299.77</ele>
        <time>2018-04-16T12:15:12.000Z</time>
      </trkpt>
      <trkpt lat="44.56648" lon="2.24567">
        <ele>301.27</ele>
        <time>2018-04-16T12:15:22.000Z</time>
      </trkpt>
      <trkpt lat="44.56654" lon="2.24565">
        <ele>302.6</ele>
        <time>2018-04-16T12:15:32.000Z</time>
      </trkpt>
      <trkpt lat="44.56659" lon="2.24563">
        <ele>303.96</ele>
        <time>2018-04-16T12:15:42.000Z</time>
      </trkpt>
      <trkpt lat="44.56664" lon="2.24561">
        <ele>305.44</ele>
        <time>2018-04-16T12:15:52.000Z</time>
      </trkpt>
      <trkpt lat="44.5667" lon="2.24561">
        <ele>306.91</ele>
        <time>2018-04-16T12:16:02.000Z</time>
      </trkpt>
      <trkpt lat="44.56675" lon="2.24561">
        <ele>308.03</ele>
        <time>2018-04-16T12:16:12.000Z</time>
      </trkpt>
      <trkpt lat="44.56682" lon="2.24561">
        <ele>309.27</ele>
        <time>2018-04-16T12:16:22.000Z</time>
      </trkpt>
      <trkpt lat="44.56689" lon="2.24561">
        <ele>310.55</ele>
        <time>2018-04-16T12:16:32.000Z</time>
      </trkpt>
      <trkpt lat="44.56696" lon="2.24563">
        <ele>311.39</ele>
        <time>2018-04-16T12:16:42.000Z</time>
      </trkpt>
      <trkpt lat="44.56701" lon="2.24562">
        <ele>312.8</ele>
        <time>2018-04-16T12:16:52.000Z</time>
      </trkpt>
      <trkpt lat="44.56705" lon="2.24563">
        <ele>314.31</ele>
        <time>2018-04-16T12:17:02.000Z</time>
      </trkpt>
      <trkpt lat="44.5671" lon="2.24569">
        <ele>315.36</ele>
        <time>2018-04-16T12:17:12.000Z</time>
      </trkpt>
      <trkpt lat="44.56713" lon="2.24578">
        <ele>316.32</ele>
        <time>2018-04-16T12:17:22.000Z</time>
      </trkpt>
      <trkpt lat="44.56714" lon="2.24587">
        <ele>317.42</ele>
        <time>2018-04-16T12:17:32.000Z</time>
      </trkpt>
      <trkpt lat="44.56714" lon="2.24597">
        <ele>318.42</ele>
        <time>2018-04-16T12:17:42.000Z</time>
      </trkpt>
      <trkpt lat="44.56714" lon="2.24604">
        <ele>320.16</ele>
        <time>2018-04-16T12:17:52.000Z</time>
      </trkpt>
      <trkpt lat="44.56718" lon="2.24613">
        <ele>320.75</ele>
        <time>2018-04-16T12:18:02.000Z</time>
      </trkpt>
      <trkpt lat="44.56727" lon="2.24615">
        <ele>320.9</ele>
        <time>2018-04-16T12:18:12.000Z</time>
      </trkpt>
      <trkpt lat="44.56736" lon="2.24616">
        <ele>321.22</ele>
        <time>2018-04-16T12:18:22.000Z</time>
      </trkpt>
      <trkpt lat="44.56744" lon="2.24619">
        <ele>321.43</ele>
        <time>2018-04-16T12:18:32.000Z</time>
      </trkpt>
      <trkpt lat="44.56754" lon="2.2462">
        <ele>321.68</ele>
        <time>2018-04-16T12:18:42.000Z</time>
      </trkpt>
      <trkpt lat="44.56763" lon="2.24622">
        <ele>321.86</ele>
        <time>2018-04-16T12:18:52.000Z</time>
      </trkpt>
      <trkpt lat="44.56773" lon="2.24624">
        <ele>322.15</ele>
        <time>2018-04-16T12:19:02.000Z</time>
      </trkpt>
      <trkpt lat="44.56781" lon="2.24629">
        <ele>322.31</ele>
        <time>2018-04-16T12:19:12.000Z</time>
      </trkpt>
      <trkpt lat="44.56788" lon="2.24631">
        <ele>322.99</ele>
        <time>2018-04-16T12:19:22.000Z</time>
      </trkpt>
      <trkpt lat="44.56795" lon="2.24635">
        <ele>324.27</ele>
        <time>2018-04-16T12:19:32.000Z</time>
      </trkpt>
      <trkpt lat="44.56802" lon="2.24639">
        <ele>325.06</ele>
        <time>2018-04-16T12:19:42.000Z</time>
      </trkpt>
      <trkpt lat="44.56811" lon="2.24645">
        <ele>325.74</ele>
        <time>2018-04-16T12:19:52.000Z</time>
      </trkpt>
      <trkpt lat="44.56819" lon="2.24649">
        <ele>325.48</ele>
        <time>2018-04-16T12:20:02.000Z</time>
      </trkpt>
      <trkpt lat="44.56828" lon="2.24657">
        <ele>325.73</ele>
        <time>2018-04-16T12:20:12.000Z</time>
      </trkpt>
      <trkpt lat="44.56837" lon="2.24662">
        <ele>325.49</ele>
        <time>2018-04-16T12:20:22.000Z</time>
      </trkpt>
      <trkpt lat="44.56845" lon="2.24662">
        <ele>325.65</ele>
        <time>2018-04-16T12:20:32.000Z</time>
      </trkpt>
      <trkpt lat="44.56854" lon="2.24662">
        <ele>325.13</ele>
        <time>2018-04-16T12:20:42.000Z</time>
      </trkpt>
      <trkpt lat="44.56863" lon="2.24665">
        <ele>324.82</ele>
        <time>2018-04-16T12:20:52.000Z</time>
      </trkpt>
      <trkpt lat="44.56873" lon="2.24669">
        <ele>323.75</ele>
        <time>2018-04-16T12:21:02.000Z</time>
      </trkpt>
      <trkpt lat="44.56884" lon="2.24674">
        <ele>322.54</ele>
        <time>2018-04-16T12:21:12.000Z</time>
      </trkpt>
      <trkpt lat="44.56893" lon="2.24679">
        <ele>321.46</ele>
        <time>2018-04-16T12:21:22.000Z</time>
      </trkpt>
      <trkpt lat="44.56901" lon="2.24684">
        <ele>320.52</ele>
        <time>2018-04-16T12:21:32.000Z</time>
      </trkpt>
      <trkpt lat="44.56911" lon="2.24687">
        <ele>319.14</ele>
        <time>2018-04-16T12:21:42.000Z</time>
      </trkpt>
      <trkpt lat="44.5692" lon="2.24689">
        <ele>319.05</ele>
        <time>2018-04-16T12:21:52.000Z</time>
      </trkpt>
      <trkpt lat="44.56932" lon="2.2469">
        <ele>318.26</ele>
        <time>2018-04-16T12:22:02.000Z</time>
      </trkpt>
      <trkpt lat="44.56941" lon="2.24695">
        <ele>317.54</ele>
        <time>2018-04-16T12:22:12.000Z</time>
      </trkpt>
      <trkpt lat="44.56951" lon="2.24698">
        <ele>316.85</ele>
        <time>2018-04-16T12:22:22.000Z</time>
      </trkpt>
      <trkpt lat="44.56961" lon="2.24699">
        <ele>316.01</ele>
        <time>2018-04-16T12:22:32.000Z</time>
      </trkpt>
      <trkpt lat="44.56971" lon="2.24698">
        <ele>315.42</ele>
        <time>2018-04-16T12:22:42.000Z</time>
      </trkpt>
      <trkpt lat="44.56981" lon="2.24696">
        <ele>314.45</ele>
        <time>2018-04-16T12:22:52.000Z</time>
      </trkpt>
      <trkpt lat="44.56992" lon="2.24694">
        <ele>313.09</ele>
        <time>2018-04-16T12:23:02.000Z</time>
      </trkpt>
      <trkpt lat="44.57005" lon="2.24694">
        <ele>312.48</ele>
        <time>2018-04-16T12:23:12.000Z</time>
      </trkpt>
      <trkpt lat="44.57015" lon="2.24692">
        <ele>312.28</ele>
        <time>2018-04-16T12:23:22.000Z</time>
      </trkpt>
      <trkpt lat="44.57027" lon="2.24689">
        <ele>312.07</ele>
        <time>2018-04-16T12:23:32.000Z</time>
      </trkpt>
      <trkpt lat="44.57039" lon="2.24687">
        <ele>311.76</ele>
        <time>2018-04-16T12:23:42.000Z</time>
      </trkpt>
      <trkpt lat="44.5705" lon="2.24685">
        <ele>311.9</ele>
        <time>2018-04-16T12:23:52.000Z</time>
      </trkpt>
      <trkpt lat="44.57061" lon="2.24685">
        <ele>311.86</ele>
        <time>2018-04-16T12:24:02.000Z</time>
      </trkpt>
      <trkpt lat="44.57073" lon="2.24682">
        <ele>311.7</ele>
        <time>2018-04-16T12:24:12.000Z</time>
      </trkpt>
      <trkpt lat="44.57085" lon="2.24676">
        <ele>311.8</ele>
        <time>2018-04-16T12:24:22.000Z</time>
      </trkpt>
      <trkpt lat="44.57097" lon="2.24672">
        <ele>311.25</ele>
        <time>2018-04-16T12:24:32.000Z</time>
      </trkpt>
      <trkpt lat="44.57108" lon="2.24667">
        <ele>311.27</ele>
        <time>2018-04-16T12:24:42.000Z</time>
      </trkpt>
      <trkpt lat="44.57119" lon="2.24662">
        <ele>311.74</ele>
        <time>2018-04-16T12:24:52.000Z</time>
      </trkpt>
      <trkpt lat="44.57129" lon="2.24656">
        <ele>311.46</ele>
        <time>2018-04-16T12:25:02.000Z</time>
      </trkpt>
      <trkpt lat="44.57139" lon="2.2465">
        <ele>311.61</ele>
        <time>2018-04-16T12:25:12.000Z</time>
      </trkpt>
      <trkpt lat="44.57149" lon="2.24644">
        <ele>311.84</ele>
        <time>2018-04-16T12:25:22.000Z</time>
      </trkpt>
      <trkpt lat="44.5716" lon="2.24635">
        <ele>311.83</ele>
        <time>2018-04-16T12:25:32.000Z</time>
      </trkpt>
      <trkpt lat="44.5717" lon="2.24628">
        <ele>312.2</ele>
        <time>2018-04-16T12:25:42.000Z</time>
      </trkpt>
      <trkpt lat="44.57179" lon="2.24615">
        <ele>312.71</ele>
        <time>2018-04-16T12:25:52.000Z</time>
      </trkpt>
      <trkpt lat="44.57188" lon="2.24607">
        <ele>313.14</ele>
        <time>2018-04-16T12:26:02.000Z</time>
      </trkpt>
      <trkpt lat="44.57196" lon="2.24601">
        <ele>313.73</ele>
        <time>2018-04-16T12:26:12.000Z</time>
      </trkpt>
      <trkpt lat="44.57206" lon="2.24597">
        <ele>314.58</ele>
        <time>2018-04-16T12:26:22.000Z</time>
      </trkpt>
      <trkpt lat="44.57216" lon="2.24592">
        <ele>314.97</ele>
        <time>2018-04-16T12:26:32.000Z</time>
      </trkpt>
      <trkpt lat="44.57226" lon="2.24588">
        <ele>315.47</ele>
        <time>2018-04-16T12:26:42.000Z</time>
      </trkpt>
      <trkpt lat="44.57235" lon="2.24585">
        <ele>316.55</ele>
        <time>2018-04-16T12:26:52.000Z</time>
      </trkpt>
      <trkpt lat="44.57244" lon="2.24585">
        <ele>317.11</ele>
        <time>2018-04-16T12:27:02.000Z</time>
      </trkpt>
      <trkpt lat="44.57255" lon="2.24583">
        <ele>317.77</ele>
        <time>2018-04-16T12:27:12.000Z</time>
      </trkpt>
      <trkpt lat="44.57265" lon="2.24583">
        <ele>318.51</ele>
        <time>2018-04-16T12:27:22.000Z</time>
      </trkpt>
      <trkpt lat="44.57272" lon="2.2458">
        <ele>319.59</ele>
        <time>2018-04-16T12:27:32.000Z</time>
      </trkpt>
      <trkpt lat="44.57277" lon="2.24577">
        <ele>320.61</ele>
        <time>2018-04-16T12:27:43.000Z</time>
      </trkpt>
      <trkpt lat="44.57277" lon="2.24576">
        <ele>320.49</ele>
        <time>2018-04-16T12:27:53.000Z</time>
      </trkpt>
      <trkpt lat="44.57278" lon="2.24575">
        <ele>320.45</ele>
        <time>2018-04-16T12:28:28.000Z</time>
      </trkpt>
      <trkpt lat="44.57282" lon="2.24571">
        <ele>320.83</ele>
        <time>2018-04-16T12:28:38.000Z</time>
      </trkpt>
      <trkpt lat="44.57277" lon="2.24568">
        <ele>322.28</ele>
        <time>2018-04-16T12:28:48.000Z</time>
      </trkpt>
      <trkpt lat="44.57271" lon="2.24562">
        <ele>323.67</ele>
        <time>2018-04-16T12:28:58.000Z</time>
      </trkpt>
      <trkpt lat="44.57272" lon="2.24552">
        <ele>324.37</ele>
        <time>2018-04-16T12:29:08.000Z</time>
      </trkpt>
      <trkpt lat="44.57278" lon="2.24549">
        <ele>324.91</ele>
        <time>2018-04-16T12:29:18.000Z</time>
      </trkpt>
      <trkpt lat="44.57287" lon="2.24547">
        <ele>325.93</ele>
        <time>2018-04-16T12:29:28.000Z</time>
      </trkpt>
      <trkpt lat="44.57295" lon="2.24543">
        <ele>326.82</ele>
        <time>2018-04-16T12:29:38.000Z</time>
      </trkpt>
      <trkpt lat="44.57302" lon="2.24536">
        <ele>328.2</ele>
        <time>2018-04-16T12:29:48.000Z</time>
      </trkpt>
      <trkpt lat="44.57308" lon="2.24528">
        <ele>329.04</ele>
        <time>2018-04-16T12:29:58.000Z</time>
      </trkpt>
      <trkpt lat="44.57313" lon="2.24519">
        <ele>329.5</ele>
        <time>2018-04-16T12:30:08.000Z</time>
      </trkpt>
      <trkpt lat="44.57318" lon="2.24508">
        <ele>330.24</ele>
        <time>2018-04-16T12:30:18.000Z</time>
      </trkpt>
      <trkpt lat="44.57322" lon="2.24499">
        <ele>331.27</ele>
        <time>2018-04-16T12:30:28.000Z</time>
      </trkpt>
      <trkpt lat="44.57327" lon="2.24489">
        <ele>332.23</ele>
        <time>2018-04-16T12:30:38.000Z</time>
      </trkpt>
      <trkpt lat="44.57331" lon="2.2448">
        <ele>333.47</ele>
        <time>2018-04-16T12:30:48.000Z</time>
      </trkpt>
      <trkpt lat="44.57334" lon="2.24469">
        <ele>333.94</ele>
        <time>2018-04-16T12:30:58.000Z</time>
      </trkpt>
      <trkpt lat="44.57337" lon="2.24457">
        <ele>335.12</ele>
        <time>2018-04-16T12:31:08.000Z</time>
      </trkpt>
      <trkpt lat="44.57339" lon="2.24446">
        <ele>336.07</ele>
        <time>2018-04-16T12:31:18.000Z</time>
      </trkpt>
      <trkpt lat="44.57337" lon="2.24435">
        <ele>337.04</ele>
        <time>2018-04-16T12:31:28.000Z</time>
      </trkpt>
      <trkpt lat="44.57335" lon="2.24423">
        <ele>337.64</ele>
        <time>2018-04-16T12:31:38.000Z</time>
      </trkpt>
      <trkpt lat="44.57334" lon="2.24411">
        <ele>338.37</ele>
        <time>2018-04-16T12:31:48.000Z</time>
      </trkpt>
      <trkpt lat="44.57331" lon="2.24401">
        <ele>338.74</ele>
        <time>2018-04-16T12:31:58.000Z</time>
      </trkpt>
      <trkpt lat="44.5733" lon="2.24389">
        <ele>339.45</ele>
        <time>2018-04-16T12:32:08.000Z</time>
      </trkpt>
      <trkpt lat="44.57331" lon="2.24377">
        <ele>340.6</ele>
        <time>2018-04-16T12:32:18.000Z</time>
      </trkpt>
      <trkpt lat="44.57333" lon="2.24366">
        <ele>341.89</ele>
        <time>2018-04-16T12:32:28.000Z</time>
      </trkpt>
      <trkpt lat="44.57336" lon="2.24358">
        <ele>343.25</ele>
        <time>2018-04-16T12:32:38.000Z</time>
      </trkpt>
      <trkpt lat="44.57341" lon="2.24351">
        <ele>343.77</ele>
        <time>2018-04-16T12:32:48.000Z</time>
      </trkpt>
      <trkpt lat="44.57346" lon="2.24343">
        <ele>344.8</ele>
        <time>2018-04-16T12:32:58.000Z</time>
      </trkpt>
      <trkpt lat="44.5735" lon="2.24333">
        <ele>345.81</ele>
        <time>2018-04-16T12:33:08.000Z</time>
      </trkpt>
      <trkpt lat="44.57354" lon="2.24325">
        <ele>346.64</ele>
        <time>2018-04-16T12:33:18.000Z</time>
      </trkpt>
      <trkpt lat="44.57358" lon="2.24314">
        <ele>347.97</ele>
        <time>2018-04-16T12:33:28.000Z</time>
      </trkpt>
      <trkpt lat="44.57361" lon="2.24304">
        <ele>349.37</ele>
        <time>2018-04-16T12:33:38.000Z</time>
      </trkpt>
      <trkpt lat="44.57365" lon="2.24295">
        <ele>350.23</ele>
        <time>2018-04-16T12:33:48.000Z</time>
      </trkpt>
      <trkpt lat="44.5737" lon="2.24286">
        <ele>351.21</ele>
        <time>2018-04-16T12:33:58.000Z</time>
      </trkpt>
      <trkpt lat="44.57375" lon="2.24276">
        <ele>352.03</ele>
        <time>2018-04-16T12:34:08.000Z</time>
      </trkpt>
      <trkpt lat="44.57379" lon="2.24267">
        <ele>352.78</ele>
        <time>2018-04-16T12:34:18.000Z</time>
      </trkpt>
      <trkpt lat="44.57383" lon="2.24258">
        <ele>354.09</ele>
        <time>2018-04-16T12:34:28.000Z</time>
      </trkpt>
      <trkpt lat="44.57388" lon="2.2425">
        <ele>354.88</ele>
        <time>2018-04-16T12:34:38.000Z</time>
      </trkpt>
      <trkpt lat="44.57392" lon="2.24243">
        <ele>355.84</ele>
        <time>2018-04-16T12:34:48.000Z</time>
      </trkpt>
      <trkpt lat="44.57396" lon="2.24237">
        <ele>356.69</ele>
        <time>2018-04-16T12:34:58.000Z</time>
      </trkpt>
      <trkpt lat="44.57401" lon="2.24227">
        <ele>357.46</ele>
        <time>2018-04-16T12:35:08.000Z</time>
      </trkpt>
      <trkpt lat="44.57407" lon="2.24219">
        <ele>358.16</ele>
        <time>2018-04-16T12:35:18.000Z</time>
      </trkpt>
      <trkpt lat="44.57413" lon="2.2421">
        <ele>359.58</ele>
        <time>2018-04-16T12:35:28.000Z</time>
      </trkpt>
      <trkpt lat="44.57417" lon="2.24206">
        <ele>360.33</ele>
        <time>2018-04-16T12:35:38.000Z</time>
      </trkpt>
      <trkpt lat="44.57421" lon="2.24204">
        <ele>361.16</ele>
        <time>2018-04-16T12:35:48.000Z</time>
      </trkpt>
      <trkpt lat="44.57427" lon="2.24198">
        <ele>361.84</ele>
        <time>2018-04-16T12:35:58.000Z</time>
      </trkpt>
      <trkpt lat="44.57432" lon="2.24189">
        <ele>362.5</ele>
        <time>2018-04-16T12:36:08.000Z</time>
      </trkpt>
      <trkpt lat="44.57439" lon="2.2418">
        <ele>362.98</ele>
        <time>2018-04-16T12:36:18.000Z</time>
      </trkpt>
      <trkpt lat="44.57445" lon="2.24172">
        <ele>363.63</ele>
        <time>2018-04-16T12:36:28.000Z</time>
      </trkpt>
      <trkpt lat="44.5745" lon="2.24163">
        <ele>364.39</ele>
        <time>2018-04-16T12:36:38.000Z</time>
      </trkpt>
      <trkpt lat="44.57457" lon="2.24155">
        <ele>365.39</ele>
        <time>2018-04-16T12:36:48.000Z</time>
      </trkpt>
      <trkpt lat="44.57465" lon="2.24146">
        <ele>366.25</ele>
        <time>2018-04-16T12:36:58.000Z</time>
      </trkpt>
      <trkpt lat="44.57471" lon="2.24138">
        <ele>367.1</ele>
        <time>2018-04-16T12:37:08.000Z</time>
      </trkpt>
      <trkpt lat="44.57476" lon="2.24129">
        <ele>367.21</ele>
        <time>2018-04-16T12:37:18.000Z</time>
      </trkpt>
      <trkpt lat="44.57482" lon="2.24119">
        <ele>367.85</ele>
        <time>2018-04-16T12:37:28.000Z</time>
      </trkpt>
      <trkpt lat="44.57487" lon="2.24109">
        <ele>368.12</ele>
        <time>2018-04-16T12:37:38.000Z</time>
      </trkpt>
      <trkpt lat="44.57492" lon="2.241">
        <ele>368.66</ele>
        <time>2018-04-16T12:37:48.000Z</time>
      </trkpt>
      <trkpt lat="44.57498" lon="2.24091">
        <ele>369.47</ele>
        <time>2018-04-16T12:37:58.000Z</time>
      </trkpt>
      <trkpt lat="44.57501" lon="2.24081">
        <ele>370.56</ele>
        <time>2018-04-16T12:38:08.000Z</time>
      </trkpt>
      <trkpt lat="44.57504" lon="2.24071">
        <ele>371.57</ele>
        <time>2018-04-16T12:38:18.000Z</time>
      </trkpt>
      <trkpt lat="44.57507" lon="2.2406">
        <ele>372.59</ele>
        <time>2018-04-16T12:38:28.000Z</time>
      </trkpt>
      <trkpt lat="44.57507" lon="2.24054">
        <ele>373.66</ele>
        <time>2018-04-16T12:38:38.000Z</time>
      </trkpt>
      <trkpt lat="44.57505" lon="2.24049">
        <ele>374.27</ele>
        <time>2018-04-16T12:38:48.000Z</time>
      </trkpt>
      <trkpt lat="44.57502" lon="2.24039">
        <ele>374.78</ele>
        <time>2018-04-16T12:38:58.000Z</time>
      </trkpt>
      <trkpt lat="44.57503" lon="2.24028">
        <ele>375.58</ele>
        <time>2018-04-16T12:39:08.000Z</time>
      </trkpt>
      <trkpt lat="44.57509" lon="2.2402">
        <ele>376.09</ele>
        <time>2018-04-16T12:39:18.000Z</time>
      </trkpt>
      <trkpt lat="44.57516" lon="2.24014">
        <ele>376.24</ele>
        <time>2018-04-16T12:39:28.000Z</time>
      </trkpt>
      <trkpt lat="44.57522" lon="2.24008">
        <ele>376.83</ele>
        <time>2018-04-16T12:39:38.000Z</time>
      </trkpt>
      <trkpt lat="44.5753" lon="2.24004">
        <ele>377.84</ele>
        <time>2018-04-16T12:39:48.000Z</time>
      </trkpt>
      <trkpt lat="44.57539" lon="2.23999">
        <ele>378.44</ele>
        <time>2018-04-16T12:39:58.000Z</time>
      </trkpt>
      <trkpt lat="44.57547" lon="2.23995">
        <ele>378.93</ele>
        <time>2018-04-16T12:40:08.000Z</time>
      </trkpt>
      <trkpt lat="44.57556" lon="2.23991">
        <ele>379.1</ele>
        <time>2018-04-16T12:40:18.000Z</time>
      </trkpt>
      <trkpt lat="44.57564" lon="2.23987">
        <ele>379.68</ele>
        <time>2018-04-16T12:40:28.000Z</time>
      </trkpt>
      <trkpt lat="44.57574" lon="2.23985">
        <ele>380.18</ele>
        <time>2018-04-16T12:40:38.000Z</time>
      </trkpt>
      <trkpt lat="44.5758" lon="2.23982">
        <ele>380.75</ele>
        <time>2018-04-16T12:40:48.000Z</time>
      </trkpt>
      <trkpt lat="44.5759" lon="2.23983">
        <ele>381.31</ele>
        <time>2018-04-16T12:40:58.000Z</time>
      </trkpt>
      <trkpt lat="44.57599" lon="2.23982">
        <ele>381.96</ele>
        <time>2018-04-16T12:41:08.000Z</time>
      </trkpt>
      <trkpt lat="44.57607" lon="2.2398">
        <ele>382.54</ele>
        <time>2018-04-16T12:41:18.000Z</time>
      </trkpt>
      <trkpt lat="44.57616" lon="2.23978">
        <ele>383.27</ele>
        <time>2018-04-16T12:41:28.000Z</time>
      </trkpt>
      <trkpt lat="44.57622" lon="2.23976">
        <ele>383.5</ele>
        <time>2018-04-16T12:41:38.000Z</time>
      </trkpt>
      <trkpt lat="44.5763" lon="2.23972">
        <ele>383.42</ele>
        <time>2018-04-16T12:41:48.000Z</time>
      </trkpt>
      <trkpt lat="44.57636" lon="2.23966">
        <ele>382.9</ele>
        <time>2018-04-16T12:41:58.000Z</time>
      </trkpt>
      <trkpt lat="44.5764" lon="2.23958">
        <ele>382.25</ele>
        <time>2018-04-16T12:42:08.000Z</time>
      </trkpt>
      <trkpt lat="44.57642" lon="2.23948">
        <ele>381.83</ele>
        <time>2018-04-16T12:42:18.000Z</time>
      </trkpt>
      <trkpt lat="44.57645" lon="2.23937">
        <ele>381.64</ele>
        <time>2018-04-16T12:42:28.000Z</time>
      </trkpt>
      <trkpt lat="44.57652" lon="2.23927">
        <ele>381.44</ele>
        <time>2018-04-16T12:42:38.000Z</time>
      </trkpt>
      <trkpt lat="44.57659" lon="2.2392">
        <ele>380.53</ele>
        <time>2018-04-16T12:42:48.000Z</time>
      </trkpt>
      <trkpt lat="44.5766" lon="2.23913">
        <ele>380.05</ele>
        <time>2018-04-16T12:42:58.000Z</time>
      </trkpt>
      <trkpt lat="44.57661" lon="2.23912">
        <ele>380.13</ele>
        <time>2018-04-16T12:43:24.000Z</time>
      </trkpt>
      <trkpt lat="44.57664" lon="2.23909">
        <ele>379.87</ele>
        <time>2018-04-16T12:43:34.000Z</time>
      </trkpt>
      <trkpt lat="44.57665" lon="2.23899">
        <ele>379.77</ele>
        <time>2018-04-16T12:43:44.000Z</time>
      </trkpt>
      <trkpt lat="44.57666" lon="2.23898">
        <ele>379.94</ele>
        <time>2018-04-16T12:43:58.000Z</time>
      </trkpt>
      <trkpt lat="44.57667" lon="2.23898">
        <ele>380.65</ele>
        <time>2018-04-16T12:44:32.000Z</time>
      </trkpt>
      <trkpt lat="44.57668" lon="2.23897">
        <ele>379.6</ele>
        <time>2018-04-16T12:45:36.000Z</time>
      </trkpt>
      <trkpt lat="44.57673" lon="2.23885">
        <ele>379.68</ele>
        <time>2018-04-16T12:45:46.000Z</time>
      </trkpt>
      <trkpt lat="44.57677" lon="2.23873">
        <ele>380.04</ele>
        <time>2018-04-16T12:45:56.000Z</time>
      </trkpt>
      <trkpt lat="44.57678" lon="2.2386">
        <ele>380.97</ele>
        <time>2018-04-16T12:46:06.000Z</time>
      </trkpt>
      <trkpt lat="44.57679" lon="2.23846">
        <ele>382.01</ele>
        <time>2018-04-16T12:46:16.000Z</time>
      </trkpt>
      <trkpt lat="44.57678" lon="2.23833">
        <ele>382.83</ele>
        <time>2018-04-16T12:46:26.000Z</time>
      </trkpt>
      <trkpt lat="44.57679" lon="2.2382">
        <ele>383.62</ele>
        <time>2018-04-16T12:46:36.000Z</time>
      </trkpt>
      <trkpt lat="44.5768" lon="2.23808">
        <ele>384.13</ele>
        <time>2018-04-16T12:46:46.000Z</time>
      </trkpt>
      <trkpt lat="44.5768" lon="2.23794">
        <ele>384.32</ele>
        <time>2018-04-16T12:46:56.000Z</time>
      </trkpt>
      <trkpt lat="44.5768" lon="2.23781">
        <ele>384.17</ele>
        <time>2018-04-16T12:47:06.000Z</time>
      </trkpt>
      <trkpt lat="44.57683" lon="2.23766">
        <ele>383.59</ele>
        <time>2018-04-16T12:47:16.000Z</time>
      </trkpt>
      <trkpt lat="44.57687" lon="2.23752">
        <ele>382.35</ele>
        <time>2018-04-16T12:47:26.000Z</time>
      </trkpt>
      <trkpt lat="44.57691" lon="2.23737">
        <ele>381.1</ele>
        <time>2018-04-16T12:47:36.000Z</time>
      </trkpt>
      <trkpt lat="44.57692" lon="2.23724">
        <ele>379.95</ele>
        <time>2018-04-16T12:47:46.000Z</time>
      </trkpt>
      <trkpt lat="44.57694" lon="2.23711">
        <ele>379.02</ele>
        <time>2018-04-16T12:47:56.000Z</time>
      </trkpt>
      <trkpt lat="44.57696" lon="2.23699">
        <ele>377.77</ele>
        <time>2018-04-16T12:48:06.000Z</time>
      </trkpt>
      <trkpt lat="44.57698" lon="2.23684">
        <ele>376.85</ele>
        <time>2018-04-16T12:48:16.000Z</time>
      </trkpt>
      <trkpt lat="44.57701" lon="2.23669">
        <ele>376.8</ele>
        <time>2018-04-16T12:48:26.000Z</time>
      </trkpt>
      <trkpt lat="44.57706" lon="2.23655">
        <ele>376.71</ele>
        <time>2018-04-16T12:48:36.000Z</time>
      </trkpt>
      <trkpt lat="44.5771" lon="2.23644">
        <ele>377.28</ele>
        <time>2018-04-16T12:48:46.000Z</time>
      </trkpt>
      <trkpt lat="44.57714" lon="2.23632">
        <ele>377.4</ele>
        <time>2018-04-16T12:48:56.000Z</time>
      </trkpt>
      <trkpt lat="44.57718" lon="2.23617">
        <ele>378.15</ele>
        <time>2018-04-16T12:49:06.000Z</time>
      </trkpt>
      <trkpt lat="44.57722" lon="2.23604">
        <ele>378.85</ele>
        <time>2018-04-16T12:49:16.000Z</time>
      </trkpt>
      <trkpt lat="44.57727" lon="2.23593">
        <ele>379.65</ele>
        <time>2018-04-16T12:49:26.000Z</time>
      </trkpt>
      <trkpt lat="44.57732" lon="2.2358">
        <ele>380.11</ele>
        <time>2018-04-16T12:49:36.000Z</time>
      </trkpt>
      <trkpt lat="44.57737" lon="2.23566">
        <ele>380.67</ele>
        <time>2018-04-16T12:49:46.000Z</time>
      </trkpt>
      <trkpt lat="44.57741" lon="2.23555">
        <ele>381.14</ele>
        <time>2018-04-16T12:49:56.000Z</time>
      </trkpt>
      <trkpt lat="44.57744" lon="2.23543">
        <ele>381.54</ele>
        <time>2018-04-16T12:50:06.000Z</time>
      </trkpt>
      <trkpt lat="44.57749" lon="2.23531">
        <ele>381.76</ele>
        <time>2018-04-16T12:50:16.000Z</time>
      </trkpt>
      <trkpt lat="44.57754" lon="2.23519">
        <ele>381.48</ele>
        <time>2018-04-16T12:50:26.000Z</time>
      </trkpt>
      <trkpt lat="44.5776" lon="2.23506">
        <ele>381.02</ele>
        <time>2018-04-16T12:50:36.000Z</time>
      </trkpt>
      <trkpt lat="44.57766" lon="2.23494">
        <ele>380.22</ele>
        <time>2018-04-16T12:50:46.000Z</time>
      </trkpt>
      <trkpt lat="44.57771" lon="2.23483">
        <ele>379.33</ele>
        <time>2018-04-16T12:50:56.000Z</time>
      </trkpt>
      <trkpt lat="44.57776" lon="2.23471">
        <ele>378.87</ele>
        <time>2018-04-16T12:51:06.000Z</time>
      </trkpt>
      <trkpt lat="44.57781" lon="2.23459">
        <ele>377.74</ele>
        <time>2018-04-16T12:51:16.000Z</time>
      </trkpt>
      <trkpt lat="44.57786" lon="2.23446">
        <ele>376.55</ele>
        <time>2018-04-16T12:51:26.000Z</time>
      </trkpt>
      <trkpt lat="44.5779" lon="2.23434">
        <ele>375.98</ele>
        <time>2018-04-16T12:51:36.000Z</time>
      </trkpt>
      <trkpt lat="44.57794" lon="2.2342">
        <ele>375.23</ele>
        <time>2018-04-16T12:51:46.000Z</time>
      </trkpt>
      <trkpt lat="44.57797" lon="2.23406">
        <ele>374.4</ele>
        <time>2018-04-16T12:51:56.000Z</time>
      </trkpt>
      <trkpt lat="44.57801" lon="2.23393">
        <ele>373.3</ele>
        <time>2018-04-16T12:52:06.000Z</time>
      </trkpt>
      <trkpt lat="44.57807" lon="2.2338">
        <ele>372.43</ele>
        <time>2018-04-16T12:52:16.000Z</time>
      </trkpt>
      <trkpt lat="44.57812" lon="2.23367">
        <ele>372.09</ele>
        <time>2018-04-16T12:52:26.000Z</time>
      </trkpt>
      <trkpt lat="44.57816" lon="2.23355">
        <ele>370.96</ele>
        <time>2018-04-16T12:52:36.000Z</time>
      </trkpt>
      <trkpt lat="44.5782" lon="2.23343">
        <ele>369.33</ele>
        <time>2018-04-16T12:52:46.000Z</time>
      </trkpt>
      <trkpt lat="44.57826" lon="2.23332">
        <ele>368.35</ele>
        <time>2018-04-16T12:52:56.000Z</time>
      </trkpt>
      <trkpt lat="44.57832" lon="2.23318">
        <ele>367.29</ele>
        <time>2018-04-16T12:53:06.000Z</time>
      </trkpt>
      <trkpt lat="44.57837" lon="2.23307">
        <ele>366.49</ele>
        <time>2018-04-16T12:53:16.000Z</time>
      </trkpt>
      <trkpt lat="44.57843" lon="2.23296">
        <ele>365.46</ele>
        <time>2018-04-16T12:53:26.000Z</time>
      </trkpt>
      <trkpt lat="44.57849" lon="2.23284">
        <ele>364.26</ele>
        <time>2018-04-16T12:53:36.000Z</time>
      </trkpt>
      <trkpt lat="44.57855" lon="2.23272">
        <ele>362.63</ele>
        <time>2018-04-16T12:53:46.000Z</time>
      </trkpt>
      <trkpt lat="44.57861" lon="2.23261">
        <ele>361.7</ele>
        <time>2018-04-16T12:53:56.000Z</time>
      </trkpt>
      <trkpt lat="44.57867" lon="2.2325">
        <ele>360.43</ele>
        <time>2018-04-16T12:54:06.000Z</time>
      </trkpt>
      <trkpt lat="44.57874" lon="2.2324">
        <ele>358.77</ele>
        <time>2018-04-16T12:54:16.000Z</time>
      </trkpt>
      <trkpt lat="44.57881" lon="2.23229">
        <ele>357.6</ele>
        <time>2018-04-16T12:54:26.000Z</time>
      </trkpt>
      <trkpt lat="44.57887" lon="2.23219">
        <ele>356.77</ele>
        <time>2018-04-16T12:54:36.000Z</time>
      </trkpt>
      <trkpt lat="44.57891" lon="2.2321">
        <ele>356.25</ele>
        <time>2018-04-16T12:54:46.000Z</time>
      </trkpt>
      <trkpt lat="44.57898" lon="2.232">
        <ele>355.17</ele>
        <time>2018-04-16T12:54:56.000Z</time>
      </trkpt>
      <trkpt lat="44.57905" lon="2.23189">
        <ele>354.61</ele>
        <time>2018-04-16T12:55:06.000Z</time>
      </trkpt>
      <trkpt lat="44.57915" lon="2.2318">
        <ele>354.99</ele>
        <time>2018-04-16T12:55:16.000Z</time>
      </trkpt>
      <trkpt lat="44.57921" lon="2.23174">
        <ele>355.39</ele>
        <time>2018-04-16T12:55:26.000Z</time>
      </trkpt>
      <trkpt lat="44.57922" lon="2.23173">
        <ele>355.21</ele>
        <time>2018-04-16T12:56:01.000Z</time>
      </trkpt>
      <trkpt lat="44.57927" lon="2.23165">
        <ele>355.87</ele>
        <time>2018-04-16T12:56:11.000Z</time>
      </trkpt>
      <trkpt lat="44.57934" lon="2.23153">
        <ele>356.58</ele>
        <time>2018-04-16T12:56:21.000Z</time>
      </trkpt>
      <trkpt lat="44.57941" lon="2.23143">
        <ele>356.77</ele>
        <time>2018-04-16T12:56:31.000Z</time>
      </trkpt>
      <trkpt lat="44.57946" lon="2.23134">
        <ele>357.24</ele>
        <time>2018-04-16T12:56:41.000Z</time>
      </trkpt>
      <trkpt lat="44.57951" lon="2.23124">
        <ele>358.16</ele>
        <time>2018-04-16T12:56:51.000Z</time>
      </trkpt>
      <trkpt lat="44.57957" lon="2.23116">
        <ele>358.99</ele>
        <time>2018-04-16T12:57:01.000Z</time>
      </trkpt>
      <trkpt lat="44.57963" lon="2.23105">
        <ele>359.59</ele>
        <time>2018-04-16T12:57:11.000Z</time>
      </trkpt>
      <trkpt lat="44.57969" lon="2.23093">
        <ele>359.73</ele>
        <time>2018-04-16T12:57:21.000Z</time>
      </trkpt>
      <trkpt lat="44.57974" lon="2.23081">
        <ele>359.79</ele>
        <time>2018-04-16T12:57:31.000Z</time>
      </trkpt>
      <trkpt lat="44.5798" lon="2.2307">
        <ele>359.81</ele>
        <time>2018-04-16T12:57:41.000Z</time>
      </trkpt>
      <trkpt lat="44.57985" lon="2.23058">
        <ele>359.85</ele>
        <time>2018-04-16T12:57:51.000Z</time>
      </trkpt>
      <trkpt lat="44.57991" lon="2.23046">
        <ele>359.73</ele>
        <time>2018-04-16T12:58:01.000Z</time>
      </trkpt>
      <trkpt lat="44.57996" lon="2.23032">
        <ele>359.96</ele>
        <time>2018-04-16T12:58:11.000Z</time>
      </trkpt>
      <trkpt lat="44.57999" lon="2.2302">
        <ele>359.71</ele>
        <time>2018-04-16T12:58:21.000Z</time>
      </trkpt>
      <trkpt lat="44.58003" lon="2.23007">
        <ele>359.62</ele>
        <time>2018-04-16T12:58:31.000Z</time>
      </trkpt>
      <trkpt lat="44.58008" lon="2.22992">
        <ele>359.56</ele>
        <time>2018-04-16T12:58:41.000Z</time>
      </trkpt>
      <trkpt lat="44.58012" lon="2.22981">
        <ele>359.09</ele>
        <time>2018-04-16T12:58:51.000Z</time>
      </trkpt>
      <trkpt lat="44.58016" lon="2.22968">
        <ele>358.83</ele>
        <time>2018-04-16T12:59:01.000Z</time>
      </trkpt>
      <trkpt lat="44.58019" lon="2.22955">
        <ele>358.93</ele>
        <time>2018-04-16T12:59:11.000Z</time>
      </trkpt>
      <trkpt lat="44.58024" lon="2.22942">
        <ele>358.33</ele>
        <time>2018-04-16T12:59:21.000Z</time>
      </trkpt>
      <trkpt lat="44.58029" lon="2.2293">
        <ele>357.6</ele>
        <time>2018-04-16T12:59:31.000Z</time>
      </trkpt>
      <trkpt lat="44.58034" lon="2.22917">
        <ele>356.84</ele>
        <time>2018-04-16T12:59:41.000Z</time>
      </trkpt>
      <trkpt lat="44.58039" lon="2.22905">
        <ele>356.22</ele>
        <time>2018-04-16T12:59:51.000Z</time>
      </trkpt>
      <trkpt lat="44.58045" lon="2.22891">
        <ele>355.74</ele>
        <time>2018-04-16T13:00:01.000Z</time>
      </trkpt>
      <trkpt lat="44.58051" lon="2.22879">
        <ele>355.19</ele>
        <time>2018-04-16T13:00:11.000Z</time>
      </trkpt>
      <trkpt lat="44.58055" lon="2.22865">
        <ele>354.01</ele>
        <time>2018-04-16T13:00:21.000Z</time>
      </trkpt>
      <trkpt lat="44.58058" lon="2.22858">
        <ele>354.09</ele>
        <time>2018-04-16T13:00:31.000Z</time>
      </trkpt>
      <trkpt lat="44.58065" lon="2.22854">
        <ele>352.45</ele>
        <time>2018-04-16T13:00:41.000Z</time>
      </trkpt>
      <trkpt lat="44.58073" lon="2.22849">
        <ele>351.22</ele>
        <time>2018-04-16T13:00:51.000Z</time>
      </trkpt>
      <trkpt lat="44.58084" lon="2.22846">
        <ele>350.29</ele>
        <time>2018-04-16T13:01:01.000Z</time>
      </trkpt>
      <trkpt lat="44.58092" lon="2.22844">
        <ele>349.89</ele>
        <time>2018-04-16T13:01:11.000Z</time>
      </trkpt>
      <trkpt lat="44.581" lon="2.22847">
        <ele>349.25</ele>
        <time>2018-04-16T13:01:21.000Z</time>
      </trkpt>
      <trkpt lat="44.58108" lon="2.22847">
        <ele>348.89</ele>
        <time>2018-04-16T13:01:31.000Z</time>
      </trkpt>
      <trkpt lat="44.58115" lon="2.22848">
        <ele>347.1</ele>
        <time>2018-04-16T13:01:41.000Z</time>
      </trkpt>
      <trkpt lat="44.58124" lon="2.22852">
        <ele>345.96</ele>
        <time>2018-04-16T13:01:51.000Z</time>
      </trkpt>
      <trkpt lat="44.58131" lon="2.22848">
        <ele>344.92</ele>
        <time>2018-04-16T13:02:01.000Z</time>
      </trkpt>
      <trkpt lat="44.58132" lon="2.2285">
        <ele>344.51</ele>
        <time>2018-04-16T13:02:49.000Z</time>
      </trkpt>
      <trkpt lat="44.58137" lon="2.22853">
        <ele>343.52</ele>
        <time>2018-04-16T13:02:59.000Z</time>
      </trkpt>
      <trkpt lat="44.58146" lon="2.22853">
        <ele>341.67</ele>
        <time>2018-04-16T13:03:09.000Z</time>
      </trkpt>
      <trkpt lat="44.58154" lon="2.22846">
        <ele>340.39</ele>
        <time>2018-04-16T13:03:19.000Z</time>
      </trkpt>
      <trkpt lat="44.58161" lon="2.22836">
        <ele>339.81</ele>
        <time>2018-04-16T13:03:29.000Z</time>
      </trkpt>
      <trkpt lat="44.58168" lon="2.22824">
        <ele>338.85</ele>
        <time>2018-04-16T13:03:39.000Z</time>
      </trkpt>
      <trkpt lat="44.58174" lon="2.22811">
        <ele>337.97</ele>
        <time>2018-04-16T13:03:49.000Z</time>
      </trkpt>
      <trkpt lat="44.58182" lon="2.228">
        <ele>336.17</ele>
        <time>2018-04-16T13:03:59.000Z</time>
      </trkpt>
      <trkpt lat="44.58188" lon="2.22788">
        <ele>335.95</ele>
        <time>2018-04-16T13:04:09.000Z</time>
      </trkpt>
      <trkpt lat="44.58194" lon="2.22776">
        <ele>335.22</ele>
        <time>2018-04-16T13:04:19.000Z</time>
      </trkpt>
      <trkpt lat="44.58199" lon="2.22762">
        <ele>335.1</ele>
        <time>2018-04-16T13:04:29.000Z</time>
      </trkpt>
      <trkpt lat="44.582" lon="2.22755">
        <ele>334.25</ele>
        <time>2018-04-16T13:04:39.000Z</time>
      </trkpt>
      <trkpt lat="44.58201" lon="2.22754">
        <ele>334.29</ele>
        <time>2018-04-16T13:05:14.000Z</time>
      </trkpt>
      <trkpt lat="44.58202" lon="2.22743">
        <ele>333.77</ele>
        <time>2018-04-16T13:05:24.000Z</time>
      </trkpt>
      <trkpt lat="44.58203" lon="2.22733">
        <ele>332.43</ele>
        <time>2018-04-16T13:05:34.000Z</time>
      </trkpt>
      <trkpt lat="44.58206" lon="2.22722">
        <ele>331.21</ele>
        <time>2018-04-16T13:05:44.000Z</time>
      </trkpt>
      <trkpt lat="44.58209" lon="2.22713">
        <ele>330.07</ele>
        <time>2018-04-16T13:05:54.000Z</time>
      </trkpt>
      <trkpt lat="44.58209" lon="2.22704">
        <ele>329.31</ele>
        <time>2018-04-16T13:06:04.000Z</time>
      </trkpt>
      <trkpt lat="44.58212" lon="2.22695">
        <ele>327.69</ele>
        <time>2018-04-16T13:06:14.000Z</time>
      </trkpt>
      <trkpt lat="44.58214" lon="2.22687">
        <ele>326.89</ele>
        <time>2018-04-16T13:06:24.000Z</time>
      </trkpt>
      <trkpt lat="44.58216" lon="2.22681">
        <ele>325.87</ele>
        <time>2018-04-16T13:06:34.000Z</time>
      </trkpt>
      <trkpt lat="44.58218" lon="2.22676">
        <ele>325.2</ele>
        <time>2018-04-16T13:06:44.000Z</time>
      </trkpt>
      <trkpt lat="44.5822" lon="2.22672">
        <ele>324.78</ele>
        <time>2018-04-16T13:06:54.000Z</time>
      </trkpt>
      <trkpt lat="44.58222" lon="2.22666">
        <ele>324.17</ele>
        <time>2018-04-16T13:07:04.000Z</time>
      </trkpt>
      <trkpt lat="44.58224" lon="2.22661">
        <ele>323.29</ele>
        <time>2018-04-16T13:07:14.000Z</time>
      </trkpt>
      <trkpt lat="44.58227" lon="2.22655">
        <ele>322.65</ele>
        <time>2018-04-16T13:07:24.000Z</time>
      </trkpt>
      <trkpt lat="44.5823" lon="2.2265">
        <ele>320.99</ele>
        <time>2018-04-16T13:07:34.000Z</time>
      </trkpt>
      <trkpt lat="44.58234" lon="2.22645">
        <ele>320.41</ele>
        <time>2018-04-16T13:07:44.000Z</time>
      </trkpt>
      <trkpt lat="44.58238" lon="2.2264">
        <ele>319.64</ele>
        <time>2018-04-16T13:07:54.000Z</time>
      </trkpt>
      <trkpt lat="44.58242" lon="2.22635">
        <ele>318.52</ele>
        <time>2018-04-16T13:08:04.000Z</time>
      </trkpt>
      <trkpt lat="44.58241" lon="2.22634">
        <ele>318.61</ele>
        <time>2018-04-16T13:08:14.000Z</time>
      </trkpt>
      <trkpt lat="44.58239" lon="2.22633">
        <ele>319.18</ele>
        <time>2018-04-16T13:08:27.000Z</time>
      </trkpt>
      <trkpt lat="44.58235" lon="2.22636">
        <ele>319.86</ele>
        <time>2018-04-16T13:08:37.000Z</time>
      </trkpt>
      <trkpt lat="44.58232" lon="2.22642">
        <ele>320.35</ele>
        <time>2018-04-16T13:08:47.000Z</time>
      </trkpt>
      <trkpt lat="44.58232" lon="2.22642">
        <ele>320.56</ele>
        <time>2018-04-16T13:09:02.000Z</time>
      </trkpt>
      <trkpt lat="44.58231" lon="2.22643">
        <ele>320.9</ele>
        <time>2018-04-16T13:09:12.000Z</time>
      </trkpt>
      <trkpt lat="44.58228" lon="2.22645">
        <ele>321.19</ele>
        <time>2018-04-16T13:09:22.000Z</time>
      </trkpt>
      <trkpt lat="44.58227" lon="2.22647">
        <ele>321.95</ele>
        <time>2018-04-16T13:09:32.000Z</time>
      </trkpt>
      <trkpt lat="44.58226" lon="2.22647">
        <ele>321.77</ele>
        <time>2018-04-16T13:09:42.000Z</time>
      </trkpt>
      <trkpt lat="44.58229" lon="2.22644">
        <ele>321.33</ele>
        <time>2018-04-16T13:09:52.000Z</time>
      </trkpt>
      <trkpt lat="44.58235" lon="2.22644">
        <ele>320.77</ele>
        <time>2018-04-16T13:10:02.000Z</time>
      </trkpt>
      <trkpt lat="44.58239" lon="2.22642">
        <ele>320.37</ele>
        <time>2018-04-16T13:10:12.000Z</time>
      </trkpt>
      <trkpt lat="44.5824" lon="2.22637">
        <ele>319.93</ele>
        <time>2018-04-16T13:10:22.000Z</time>
      </trkpt>
      <trkpt lat="44.58242" lon="2.22637">
        <ele>319.56</ele>
        <time>2018-04-16T13:10:32.000Z</time>
      </trkpt>
      <trkpt lat="44.58243" lon="2.22633">
        <ele>319.14</ele>
        <time>2018-04-16T13:10:42.000Z</time>
      </trkpt>
      <trkpt lat="44.58248" lon="2.22627">
        <ele>317.93</ele>
        <time>2018-04-16T13:10:52.000Z</time>
      </trkpt>
      <trkpt lat="44.58255" lon="2.22621">
        <ele>316.58</ele>
        <time>2018-04-16T13:11:02.000Z</time>
      </trkpt>
      <trkpt lat="44.58262" lon="2.22615">
        <ele>315.22</ele>
        <time>2018-04-16T13:11:12.000Z</time>
      </trkpt>
      <trkpt lat="44.58268" lon="2.22604">
        <ele>313.9</ele>
        <time>2018-04-16T13:11:22.000Z</time>
      </trkpt>
      <trkpt lat="44.58271" lon="2.22592">
        <ele>311.96</ele>
        <time>2018-04-16T13:11:32.000Z</time>
      </trkpt>
      <trkpt lat="44.58274" lon="2.2258">
        <ele>310.22</ele>
        <time>2018-04-16T13:11:42.000Z</time>
      </trkpt>
      <trkpt lat="44.58274" lon="2.22568">
        <ele>308.78</ele>
        <time>2018-04-16T13:11:52.000Z</time>
      </trkpt>
      <trkpt lat="44.58274" lon="2.22557">
        <ele>307.41</ele>
        <time>2018-04-16T13:12:02.000Z</time>
      </trkpt>
      <trkpt lat="44.58274" lon="2.22548">
        <ele>305.36</ele>
        <time>2018-04-16T13:12:12.000Z</time>
      </trkpt>
      <trkpt lat="44.58273" lon="2.22534">
        <ele>303.29</ele>
        <time>2018-04-16T13:12:22.000Z</time>
      </trkpt>
      <trkpt lat="44.5827" lon="2.22519">
        <ele>302.24</ele>
        <time>2018-04-16T13:12:32.000Z</time>
      </trkpt>
      <trkpt lat="44.5827" lon="2.22506">
        <ele>301.16</ele>
        <time>2018-04-16T13:12:42.000Z</time>
      </trkpt>
      <trkpt lat="44.58268" lon="2.22503">
        <ele>300.78</ele>
        <time>2018-04-16T13:12:52.000Z</time>
      </trkpt>
      <trkpt lat="44.58268" lon="2.22501">
        <ele>300.57</ele>
        <time>2018-04-16T13:13:02.000Z</time>
      </trkpt>
      <trkpt lat="44.58267" lon="2.22491">
        <ele>299.29</ele>
        <time>2018-04-16T13:13:12.000Z</time>
      </trkpt>
      <trkpt lat="44.58271" lon="2.22484">
        <ele>297.27</ele>
        <time>2018-04-16T13:13:22.000Z</time>
      </trkpt>
      <trkpt lat="44.58273" lon="2.22483">
        <ele>295.61</ele>
        <time>2018-04-16T13:13:32.000Z</time>
      </trkpt>
      <trkpt lat="44.58278" lon="2.22488">
        <ele>293.98</ele>
        <time>2018-04-16T13:13:42.000Z</time>
      </trkpt>
      <trkpt lat="44.58283" lon="2.22483">
        <ele>292.42</ele>
        <time>2018-04-16T13:13:52.000Z</time>
      </trkpt>
      <trkpt lat="44.58287" lon="2.22474">
        <ele>290.58</ele>
        <time>2018-04-16T13:14:02.000Z</time>
      </trkpt>
      <trkpt lat="44.58285" lon="2.22463">
        <ele>289.61</ele>
        <time>2018-04-16T13:14:12.000Z</time>
      </trkpt>
      <trkpt lat="44.58281" lon="2.22453">
        <ele>288.48</ele>
        <time>2018-04-16T13:14:22.000Z</time>
      </trkpt>
      <trkpt lat="44.58274" lon="2.22444">
        <ele>287.52</ele>
        <time>2018-04-16T13:14:32.000Z</time>
      </trkpt>
      <trkpt lat="44.58269" lon="2.2244">
        <ele>286.08</ele>
        <time>2018-04-16T13:14:42.000Z</time>
      </trkpt>
      <trkpt lat="44.58267" lon="2.22432">
        <ele>284.91</ele>
        <time>2018-04-16T13:14:52.000Z</time>
      </trkpt>
      <trkpt lat="44.58274" lon="2.22434">
        <ele>283.62</ele>
        <time>2018-04-16T13:15:02.000Z</time>
      </trkpt>
      <trkpt lat="44.5828" lon="2.22438">
        <ele>282.14</ele>
        <time>2018-04-16T13:15:12.000Z</time>
      </trkpt>
      <trkpt lat="44.58286" lon="2.22445">
        <ele>280.6</ele>
        <time>2018-04-16T13:15:22.000Z</time>
      </trkpt>
      <trkpt lat="44.58292" lon="2.22451">
        <ele>278.7</ele>
        <time>2018-04-16T13:15:32.000Z</time>
      </trkpt>
      <trkpt lat="44.58299" lon="2.22456">
        <ele>277.03</ele>
        <time>2018-04-16T13:15:42.000Z</time>
      </trkpt>
      <trkpt lat="44.58304" lon="2.22465">
        <ele>275.76</ele>
        <time>2018-04-16T13:15:52.000Z</time>
      </trkpt>
      <trkpt lat="44.58307" lon="2.22471">
        <ele>274.46</ele>
        <time>2018-04-16T13:16:02.000Z</time>
      </trkpt>
      <trkpt lat="44.58314" lon="2.22481">
        <ele>273.83</ele>
        <time>2018-04-16T13:16:12.000Z</time>
      </trkpt>
      <trkpt lat="44.58322" lon="2.22489">
        <ele>273.27</ele>
        <time>2018-04-16T13:16:22.000Z</time>
      </trkpt>
      <trkpt lat="44.58332" lon="2.22498">
        <ele>272.66</ele>
        <time>2018-04-16T13:16:32.000Z</time>
      </trkpt>
      <trkpt lat="44.58339" lon="2.22504">
        <ele>271.15</ele>
        <time>2018-04-16T13:16:42.000Z</time>
      </trkpt>
      <trkpt lat="44.58342" lon="2.22511">
        <ele>269.63</ele>
        <time>2018-04-16T13:16:52.000Z</time>
      </trkpt>
      <trkpt lat="44.58347" lon="2.22519">
        <ele>267.32</ele>
        <time>2018-04-16T13:17:02.000Z</time>
      </trkpt>
      <trkpt lat="44.58352" lon="2.22524">
        <ele>266.03</ele>
        <time>2018-04-16T13:17:12.000Z</time>
      </trkpt>
      <trkpt lat="44.58356" lon="2.22531">
        <ele>264.17</ele>
        <time>2018-04-16T13:17:22.000Z</time>
      </trkpt>
      <trkpt lat="44.58359" lon="2.22536">
        <ele>263.02</ele>
        <time>2018-04-16T13:17:32.000Z</time>
      </trkpt>
      <trkpt lat="44.58363" lon="2.22543">
        <ele>261.28</ele>
        <time>2018-04-16T13:17:42.000Z</time>
      </trkpt>
      <trkpt lat="44.58366" lon="2.22549">
        <ele>260.27</ele>
        <time>2018-04-16T13:17:52.000Z</time>
      </trkpt>
      <trkpt lat="44.58373" lon="2.22558">
        <ele>259.27</ele>
        <time>2018-04-16T13:18:02.000Z</time>
      </trkpt>
      <trkpt lat="44.58377" lon="2.22566">
        <ele>257.94</ele>
        <time>2018-04-16T13:18:12.000Z</time>
      </trkpt>
      <trkpt lat="44.5838" lon="2.2257">
        <ele>256.13</ele>
        <time>2018-04-16T13:18:22.000Z</time>
      </trkpt>
      <trkpt lat="44.58381" lon="2.22574">
        <ele>254.93</ele>
        <time>2018-04-16T13:18:32.000Z</time>
      </trkpt>
      <trkpt lat="44.58383" lon="2.22586">
        <ele>253.58</ele>
        <time>2018-04-16T13:18:42.000Z</time>
      </trkpt>
      <trkpt lat="44.58386" lon="2.22595">
        <ele>252.22</ele>
        <time>2018-04-16T13:18:52.000Z</time>
      </trkpt>
      <trkpt lat="44.58389" lon="2.22609">
        <ele>250.53</ele>
        <time>2018-04-16T13:19:02.000Z</time>
      </trkpt>
      <trkpt lat="44.58394" lon="2.22616">
        <ele>248.67</ele>
        <time>2018-04-16T13:19:12.000Z</time>
      </trkpt>
      <trkpt lat="44.584" lon="2.22619">
        <ele>248.3</ele>
        <time>2018-04-16T13:19:22.000Z</time>
      </trkpt>
      <trkpt lat="44.58404" lon="2.22626">
        <ele>246.79</ele>
        <time>2018-04-16T13:19:32.000Z</time>
      </trkpt>
      <trkpt lat="44.58409" lon="2.2263">
        <ele>245.72</ele>
        <time>2018-04-16T13:19:42.000Z</time>
      </trkpt>
      <trkpt lat="44.58415" lon="2.22634">
        <ele>244.73</ele>
        <time>2018-04-16T13:19:52.000Z</time>
      </trkpt>
      <trkpt lat="44.58422" lon="2.22642">
        <ele>243.6</ele>
        <time>2018-04-16T13:20:02.000Z</time>
      </trkpt>
      <trkpt lat="44.58427" lon="2.22652">
        <ele>242.9</ele>
        <time>2018-04-16T13:20:12.000Z</time>
      </trkpt>
      <trkpt lat="44.58429" lon="2.22661">
        <ele>242.13</ele>
        <time>2018-04-16T13:20:22.000Z</time>
      </trkpt>
      <trkpt lat="44.58428" lon="2.22673">
        <ele>241.07</ele>
        <time>2018-04-16T13:20:32.000Z</time>
      </trkpt>
      <trkpt lat="44.5843" lon="2.22685">
        <ele>240.68</ele>
        <time>2018-04-16T13:20:42.000Z</time>
      </trkpt>
      <trkpt lat="44.58434" lon="2.227">
        <ele>239.81</ele>
        <time>2018-04-16T13:20:52.000Z</time>
      </trkpt>
      <trkpt lat="44.58437" lon="2.22712">
        <ele>238.58</ele>
        <time>2018-04-16T13:21:02.000Z</time>
      </trkpt>
      <trkpt lat="44.58439" lon="2.22723">
        <ele>237.76</ele>
        <time>2018-04-16T13:21:12.000Z</time>
      </trkpt>
      <trkpt lat="44.58443" lon="2.2273">
        <ele>236.63</ele>
        <time>2018-04-16T13:21:22.000Z</time>
      </trkpt>
      <trkpt lat="44.58447" lon="2.2274">
        <ele>235.73</ele>
        <time>2018-04-16T13:21:32.000Z</time>
      </trkpt>
      <trkpt lat="44.5845" lon="2.22745">
        <ele>234.77</ele>
        <time>2018-04-16T13:21:42.000Z</time>
      </trkpt>
      <trkpt lat="44.58453" lon="2.2275">
        <ele>233.98</ele>
        <time>2018-04-16T13:21:52.000Z</time>
      </trkpt>
      <trkpt lat="44.5846" lon="2.2276">
        <ele>232.72</ele>
        <time>2018-04-16T13:22:02.000Z</time>
      </trkpt>
      <trkpt lat="44.58463" lon="2.22768">
        <ele>231.9</ele>
        <time>2018-04-16T13:22:12.000Z</time>
      </trkpt>
      <trkpt lat="44.58466" lon="2.22773">
        <ele>230.35</ele>
        <time>2018-04-16T13:22:22.000Z</time>
      </trkpt>
      <trkpt lat="44.5847" lon="2.22781">
        <ele>228.83</ele>
        <time>2018-04-16T13:22:32.000Z</time>
      </trkpt>
      <trkpt lat="44.58472" lon="2.22791">
        <ele>227.41</ele>
        <time>2018-04-16T13:22:42.000Z</time>
      </trkpt>
      <trkpt lat="44.58472" lon="2.228">
        <ele>226.39</ele>
        <time>2018-04-16T13:22:52.000Z</time>
      </trkpt>
      <trkpt lat="44.58472" lon="2.22811">
        <ele>225.27</ele>
        <time>2018-04-16T13:23:02.000Z</time>
      </trkpt>
      <trkpt lat="44.58473" lon="2.22824">
        <ele>223.99</ele>
        <time>2018-04-16T13:23:12.000Z</time>
      </trkpt>
      <trkpt lat="44.58472" lon="2.22833">
        <ele>222.3</ele>
        <time>2018-04-16T13:23:22.000Z</time>
      </trkpt>
      <trkpt lat="44.5847" lon="2.22844">
        <ele>221.26</ele>
        <time>2018-04-16T13:23:32.000Z</time>
      </trkpt>
      <trkpt lat="44.5847" lon="2.22856">
        <ele>220.27</ele>
        <time>2018-04-16T13:23:42.000Z</time>
      </trkpt>
      <trkpt lat="44.58469" lon="2.22861">
        <ele>219.87</ele>
        <time>2018-04-16T13:23:52.000Z</time>
      </trkpt>
      <trkpt lat="44.5847" lon="2.22871">
        <ele>218.62</ele>
        <time>2018-04-16T13:24:02.000Z</time>
      </trkpt>
      <trkpt lat="44.58473" lon="2.22881">
        <ele>217.9</ele>
        <time>2018-04-16T13:24:12.000Z</time>
      </trkpt>
      <trkpt lat="44.58473" lon="2.22883">
        <ele>217.49</ele>
        <time>2018-04-16T13:24:57.000Z</time>
      </trkpt>
      <trkpt lat="44.58478" lon="2.22891">
        <ele>217.67</ele>
        <time>2018-04-16T13:25:07.000Z</time>
      </trkpt>
      <trkpt lat="44.58489" lon="2.22884">
        <ele>217.69</ele>
        <time>2018-04-16T13:25:17.000Z</time>
      </trkpt>
      <trkpt lat="44.58499" lon="2.22875">
        <ele>217.67</ele>
        <time>2018-04-16T13:25:27.000Z</time>
      </trkpt>
      <trkpt lat="44.58509" lon="2.22873">
        <ele>217.89</ele>
        <time>2018-04-16T13:25:37.000Z</time>
      </trkpt>
      <trkpt lat="44.58519" lon="2.22874">
        <ele>218.21</ele>
        <time>2018-04-16T13:25:47.000Z</time>
      </trkpt>
      <trkpt lat="44.58528" lon="2.22875">
        <ele>218.56</ele>
        <time>2018-04-16T13:25:57.000Z</time>
      </trkpt>
      <trkpt lat="44.58539" lon="2.22878">
        <ele>219.19</ele>
        <time>2018-04-16T13:26:07.000Z</time>
      </trkpt>
      <trkpt lat="44.58547" lon="2.22881">
        <ele>218.88</ele>
        <time>2018-04-16T13:26:17.000Z</time>
      </trkpt>
      <trkpt lat="44.5855" lon="2.22882">
        <ele>218.86</ele>
        <time>2018-04-16T13:26:27.000Z</time>
      </trkpt>
      <trkpt lat="44.58558" lon="2.22887">
        <ele>219.71</ele>
        <time>2018-04-16T13:26:37.000Z</time>
      </trkpt>
      <trkpt lat="44.58568" lon="2.22891">
        <ele>219.54</ele>
        <time>2018-04-16T13:26:47.000Z</time>
      </trkpt>
      <trkpt lat="44.5858" lon="2.22899">
        <ele>219.22</ele>
        <time>2018-04-16T13:26:57.000Z</time>
      </trkpt>
      <trkpt lat="44.58591" lon="2.22906">
        <ele>219.48</ele>
        <time>2018-04-16T13:27:07.000Z</time>
      </trkpt>
      <trkpt lat="44.58602" lon="2.22912">
        <ele>219.56</ele>
        <time>2018-04-16T13:27:17.000Z</time>
      </trkpt>
      <trkpt lat="44.58614" lon="2.22917">
        <ele>219.37</ele>
        <time>2018-04-16T13:27:27.000Z</time>
      </trkpt>
      <trkpt lat="44.58624" lon="2.22924">
        <ele>218.96</ele>
        <time>2018-04-16T13:27:37.000Z</time>
      </trkpt>
      <trkpt lat="44.58635" lon="2.2293">
        <ele>218.89</ele>
        <time>2018-04-16T13:27:47.000Z</time>
      </trkpt>
      <trkpt lat="44.58646" lon="2.22939">
        <ele>218.65</ele>
        <time>2018-04-16T13:27:57.000Z</time>
      </trkpt>
      <trkpt lat="44.58656" lon="2.22947">
        <ele>218.09</ele>
        <time>2018-04-16T13:28:07.000Z</time>
      </trkpt>
      <trkpt lat="44.58668" lon="2.22954">
        <ele>217.85</ele>
        <time>2018-04-16T13:28:17.000Z</time>
      </trkpt>
      <trkpt lat="44.58677" lon="2.22962">
        <ele>217.35</ele>
        <time>2018-04-16T13:28:27.000Z</time>
      </trkpt>
      <trkpt lat="44.58686" lon="2.22969">
        <ele>217.03</ele>
        <time>2018-04-16T13:28:37.000Z</time>
      </trkpt>
      <trkpt lat="44.58695" lon="2.2298">
        <ele>217.1</ele>
        <time>2018-04-16T13:28:47.000Z</time>
      </trkpt>
      <trkpt lat="44.58705" lon="2.22993">
        <ele>216.57</ele>
        <time>2018-04-16T13:28:57.000Z</time>
      </trkpt>
      <trkpt lat="44.58713" lon="2.23005">
        <ele>216.69</ele>
        <time>2018-04-16T13:29:07.000Z</time>
      </trkpt>
      <trkpt lat="44.58719" lon="2.23017">
        <ele>216.07</ele>
        <time>2018-04-16T13:29:17.000Z</time>
      </trkpt>
      <trkpt lat="44.58724" lon="2.23031">
        <ele>215.05</ele>
        <time>2018-04-16T13:29:27.000Z</time>
      </trkpt>
      <trkpt lat="44.58729" lon="2.23044">
        <ele>214.75</ele>
        <time>2018-04-16T13:29:37.000Z</time>
      </trkpt>
      <trkpt lat="44.58735" lon="2.23056">
        <ele>214.82</ele>
        <time>2018-04-16T13:29:47.000Z</time>
      </trkpt>
      <trkpt lat="44.58739" lon="2.23071">
        <ele>214.52</ele>
        <time>2018-04-16T13:29:57.000Z</time>
      </trkpt>
      <trkpt lat="44.58741" lon="2.23085">
        <ele>213.69</ele>
        <time>2018-04-16T13:30:07.000Z</time>
      </trkpt>
      <trkpt lat="44.58745" lon="2.23095">
        <ele>214.09</ele>
        <time>2018-04-16T13:30:17.000Z</time>
      </trkpt>
      <trkpt lat="44.58753" lon="2.23105">
        <ele>213.87</ele>
        <time>2018-04-16T13:30:27.000Z</time>
      </trkpt>
      <trkpt lat="44.58759" lon="2.23111">
        <ele>213.27</ele>
        <time>2018-04-16T13:30:37.000Z</time>
      </trkpt>
      <trkpt lat="44.58759" lon="2.23109">
        <ele>213.19</ele>
        <time>2018-04-16T13:31:23.000Z</time>
      </trkpt>
      <trkpt lat="44.58766" lon="2.23102">
        <ele>212.98</ele>
        <time>2018-04-16T13:31:33.000Z</time>
      </trkpt>
      <trkpt lat="44.58775" lon="2.23102">
        <ele>212.9</ele>
        <time>2018-04-16T13:31:43.000Z</time>
      </trkpt>
      <trkpt lat="44.58785" lon="2.23107">
        <ele>213.45</ele>
        <time>2018-04-16T13:31:53.000Z</time>
      </trkpt>
      <trkpt lat="44.58796" lon="2.23113">
        <ele>213.47</ele>
        <time>2018-04-16T13:32:03.000Z</time>
      </trkpt>
      <trkpt lat="44.58804" lon="2.23122">
        <ele>213.69</ele>
        <time>2018-04-16T13:32:13.000Z</time>
      </trkpt>
      <trkpt lat="44.58814" lon="2.23129">
        <ele>213.75</ele>
        <time>2018-04-16T13:32:23.000Z</time>
      </trkpt>
      <trkpt lat="44.58824" lon="2.23139">
        <ele>213.55</ele>
        <time>2018-04-16T13:32:33.000Z</time>
      </trkpt>
      <trkpt lat="44.58835" lon="2.23147">
        <ele>214.16</ele>
        <time>2018-04-16T13:32:43.000Z</time>
      </trkpt>
      <trkpt lat="44.58846" lon="2.23154">
        <ele>213.99</ele>
        <time>2018-04-16T13:32:53.000Z</time>
      </trkpt>
      <trkpt lat="44.58856" lon="2.23161">
        <ele>214.48</ele>
        <time>2018-04-16T13:33:03.000Z</time>
      </trkpt>
      <trkpt lat="44.58865" lon="2.23167">
        <ele>214.84</ele>
        <time>2018-04-16T13:33:13.000Z</time>
      </trkpt>
      <trkpt lat="44.58874" lon="2.23171">
        <ele>215.27</ele>
        <time>2018-04-16T13:33:23.000Z</time>
      </trkpt>
      <trkpt lat="44.58883" lon="2.23178">
        <ele>215.91</ele>
        <time>2018-04-16T13:33:33.000Z</time>
      </trkpt>
      <trkpt lat="44.58892" lon="2.23185">
        <ele>216.36</ele>
        <time>2018-04-16T13:33:43.000Z</time>
      </trkpt>
      <trkpt lat="44.58901" lon="2.23192">
        <ele>217.43</ele>
        <time>2018-04-16T13:33:53.000Z</time>
      </trkpt>
      <trkpt lat="44.58907" lon="2.23201">
        <ele>217.9</ele>
        <time>2018-04-16T13:34:03.000Z</time>
      </trkpt>
      <trkpt lat="44.58914" lon="2.23211">
        <ele>218.82</ele>
        <time>2018-04-16T13:34:13.000Z</time>
      </trkpt>
      <trkpt lat="44.58919" lon="2.23222">
        <ele>219.38</ele>
        <time>2018-04-16T13:34:23.000Z</time>
      </trkpt>
      <trkpt lat="44.58926" lon="2.23228">
        <ele>219.96</ele>
        <time>2018-04-16T13:34:33.000Z</time>
      </trkpt>
      <trkpt lat="44.58934" lon="2.23235">
        <ele>220.34</ele>
        <time>2018-04-16T13:34:43.000Z</time>
      </trkpt>
      <trkpt lat="44.58943" lon="2.23239">
        <ele>221</ele>
        <time>2018-04-16T13:34:53.000Z</time>
      </trkpt>
      <trkpt lat="44.58951" lon="2.23239">
        <ele>221.89</ele>
        <time>2018-04-16T13:35:03.000Z</time>
      </trkpt>
      <trkpt lat="44.58961" lon="2.2324">
        <ele>222.78</ele>
        <time>2018-04-16T13:35:13.000Z</time>
      </trkpt>
      <trkpt lat="44.58972" lon="2.23241">
        <ele>223.76</ele>
        <time>2018-04-16T13:35:23.000Z</time>
      </trkpt>
      <trkpt lat="44.58981" lon="2.23245">
        <ele>223.97</ele>
        <time>2018-04-16T13:35:33.000Z</time>
      </trkpt>
      <trkpt lat="44.5899" lon="2.23247">
        <ele>224.74</ele>
        <time>2018-04-16T13:35:43.000Z</time>
      </trkpt>
      <trkpt lat="44.58999" lon="2.23245">
        <ele>225.26</ele>
        <time>2018-04-16T13:35:53.000Z</time>
      </trkpt>
      <trkpt lat="44.5901" lon="2.23243">
        <ele>225.99</ele>
        <time>2018-04-16T13:36:03.000Z</time>
      </trkpt>
      <trkpt lat="44.59018" lon="2.23243">
        <ele>226.71</ele>
        <time>2018-04-16T13:36:13.000Z</time>
      </trkpt>
      <trkpt lat="44.59026" lon="2.23243">
        <ele>228.02</ele>
        <time>2018-04-16T13:36:23.000Z</time>
      </trkpt>
      <trkpt lat="44.59034" lon="2.2324">
        <ele>228.67</ele>
        <time>2018-04-16T13:36:33.000Z</time>
      </trkpt>
      <trkpt lat="44.59043" lon="2.23236">
        <ele>229.53</ele>
        <time>2018-04-16T13:36:43.000Z</time>
      </trkpt>
      <trkpt lat="44.59051" lon="2.23236">
        <ele>230.5</ele>
        <time>2018-04-16T13:36:53.000Z</time>
      </trkpt>
      <trkpt lat="44.5906" lon="2.23234">
        <ele>231.46</ele>
        <time>2018-04-16T13:37:03.000Z</time>
      </trkpt>
      <trkpt lat="44.59066" lon="2.23232">
        <ele>232.51</ele>
        <time>2018-04-16T13:37:13.000Z</time>
      </trkpt>
      <trkpt lat="44.59073" lon="2.23228">
        <ele>233.43</ele>
        <time>2018-04-16T13:37:23.000Z</time>
      </trkpt>
      <trkpt lat="44.59077" lon="2.2323">
        <ele>234.59</ele>
        <time>2018-04-16T13:37:33.000Z</time>
      </trkpt>
      <trkpt lat="44.59088" lon="2.23228">
        <ele>235.44</ele>
        <time>2018-04-16T13:37:43.000Z</time>
      </trkpt>
      <trkpt lat="44.59099" lon="2.23225">
        <ele>236.74</ele>
        <time>2018-04-16T13:37:53.000Z</time>
      </trkpt>
      <trkpt lat="44.59103" lon="2.23213">
        <ele>237.46</ele>
        <time>2018-04-16T13:38:03.000Z</time>
      </trkpt>
      <trkpt lat="44.59109" lon="2.23203">
        <ele>238.57</ele>
        <time>2018-04-16T13:38:13.000Z</time>
      </trkpt>
      <trkpt lat="44.59115" lon="2.23197">
        <ele>239.68</ele>
        <time>2018-04-16T13:38:23.000Z</time>
      </trkpt>
      <trkpt lat="44.5912" lon="2.23191">
        <ele>240.43</ele>
        <time>2018-04-16T13:38:33.000Z</time>
      </trkpt>
      <trkpt lat="44.59122" lon="2.23188">
        <ele>240.78</ele>
        <time>2018-04-16T13:38:43.000Z</time>
      </trkpt>
      <trkpt lat="44.59128" lon="2.2319">
        <ele>241.79</ele>
        <time>2018-04-16T13:38:53.000Z</time>
      </trkpt>
      <trkpt lat="44.5913" lon="2.23193">
        <ele>241.96</ele>
        <time>2018-04-16T13:39:03.000Z</time>
      </trkpt>
      <trkpt lat="44.59129" lon="2.23197">
        <ele>241.58</ele>
        <time>2018-04-16T13:39:13.000Z</time>
      </trkpt>
      <trkpt lat="44.59128" lon="2.23196">
        <ele>241.42</ele>
        <time>2018-04-16T13:39:23.000Z</time>
      </trkpt>
      <trkpt lat="44.59127" lon="2.23196">
        <ele>241.59</ele>
        <time>2018-04-16T13:40:00.000Z</time>
      </trkpt>
      <trkpt lat="44.59126" lon="2.23195">
        <ele>241.38</ele>
        <time>2018-04-16T13:40:10.000Z</time>
      </trkpt>
      <trkpt lat="44.59127" lon="2.23196">
        <ele>241.33</ele>
        <time>2018-04-16T13:40:20.000Z</time>
      </trkpt>
      <trkpt lat="44.59128" lon="2.23196">
        <ele>241.46</ele>
        <time>2018-04-16T13:40:23.000Z</time>
      </trkpt>
    </trkseg>
  </trk>
</gpx>